ftp/pub/palmer/observations_modified/2019/November/AR191111_BASE.txt

Download

Sample DateTime	Unit Id	WS Avg 2min	WD Avg 2min	WGS 10min	WGD 10min	Air Temp	Rel Humidity	Dew Point	Pyranometer	Quantum	Air Pressure	Snow Level	Rainfall	PW Current	Visibility	CBase 1	CBase 2	CBase 3	Vert Vis
2019/11/11  00:00:00  BASE  7.19124  332  8.10852  332  -1.1  100   -1.1  14    0     986.7    NA       0.0000   9999     330   0     0    
2019/11/11  00:01:00  BASE  6.84432  333  8.10852  332  -1.1  100   -1.1  13    0     986.7    NA       0.0000   9999     300   0     0    
2019/11/11  00:02:00  BASE  6.87372  332  7.86744  328  -1.1  100   -1.1  13    0     986.7    NA       0.0000   9999     300   0     0    
2019/11/11  00:03:00  BASE  6.99132  330  7.86744  328  -1.1  100   -1.1  13    0     986.7    NA       0.0000   UP       9000  260   0    
2019/11/11  00:04:00  BASE  7.07952  331  7.86744  328  -1.1  100   -1.1  12    0     986.7    NA       0.0000   UP       8000  260   0    
2019/11/11  00:05:00  BASE  7.22064  332  7.86744  328  -1.1  100   -1.1  12    0     986.7    NA       0.0000   UP       9000  260   0    
2019/11/11  00:06:00  BASE  7.2912   331  7.86744  328  -1.1  100   -1.1  11    0     986.7    NA       0.0000   UP       BR    7000  260  
2019/11/11  00:07:00  BASE  7.19712  330  7.86744  328  -1.1  100   -1.1  11    0     986.7    NA       0.0000   UP       BR    7000  260  
2019/11/11  00:08:00  BASE  7.03248  332  7.86744  328  -1.1  100   -1.1  11    0     986.7    NA       0.0000   UP       BR    8000  300  
2019/11/11  00:09:00  BASE  7.15596  334  7.80276  339  -1.1  100   -1.1  10    0     986.7    NA       0.0000   UP       BR    9000  260  
2019/11/11  00:10:00  BASE  7.056    334  7.80276  339  -1.1  100   -1.1  10    0     986.7    NA       0.0000   UP       BR    8000  230  
2019/11/11  00:11:00  BASE  6.80316  335  7.80276  339  -1.1  100   -1.1  9     0     986.6    NA       0.0000   UP       BR    8000  230  
2019/11/11  00:12:00  BASE  6.74436  337  7.80276  339  -1.1  100   -1.1  9     0     986.6    NA       0.0000   UP       BR    7000  230  
2019/11/11  00:13:00  BASE  6.60324  337  7.80276  339  -1.1  100   -1.1  8     0     986.6    NA       0.0000   UP       BR    7000  230  
2019/11/11  00:14:00  BASE  6.29748  339  7.80276  339  -1.1  100   -1.1  8     0     986.6    NA       0.0000   UP       BR    6000  230  
2019/11/11  00:15:00  BASE  6.09168  339  7.80276  339  -1.1  100   -1.1  8     0     986.6    NA       0.0000   UP       BR    7000  230  
2019/11/11  00:16:00  BASE  6.16812  339  7.80276  339  -1.1  100   -1.1  7     0     986.5    NA       0.0000   UP       BR    8000  230  
2019/11/11  00:17:00  BASE  6.13872  341  7.80276  339  -1.1  100   -1.1  7     0     986.6    NA       0.0000   UP       BR    8000  230  
2019/11/11  00:18:00  BASE  6.03288  341  7.80276  339  -1.1  100   -1.1  7     0     986.5    NA       0.0000   UP       BR    7000  0    
2019/11/11  00:19:00  BASE  6.12108  339  7.59108  336  -1.1  100   -1.1  7     0     986.5    NA       0.0000   UP       BR    6000  0    
2019/11/11  00:20:00  BASE  6.29748  338  7.59108  336  -1.1  100   -1.1  6     0     986.5    NA       0.0000   UP       BR    5000  0    
2019/11/11  00:21:00  BASE  6.2916   338  7.4088   340  -1.1  100   -1.1  6     0     986.5    NA       0.0000   UP       BR    4800  0    
2019/11/11  00:22:00  BASE  6.04464  339  7.2618   346  -1.1  100   -1.1  6     0     986.5    NA       0.0000   UP       BR    5000  0    
2019/11/11  00:23:00  BASE  6.17988  339  6.92664  339  -1.1  100   -1.1  6     0     986.5    NA       0.0000   UP       BR    5000  0    
2019/11/11  00:24:00  BASE  6.33864  339  6.92664  339  -1.1  100   -1.1  6     0     986.5    NA       0.0000   UP       BR    5000  0    
2019/11/11  00:25:00  BASE  6.174    340  6.92664  339  -1.2  100   -1.2  6     0     986.5    NA       0.0000   UP       BR    5000  0    
2019/11/11  00:26:00  BASE  6.15048  340  6.92664  339  -1.2  100   -1.2  6     0     986.4    NA       0.0000   UP       BR    7000  0    
2019/11/11  00:27:00  BASE  6.17988  340  6.92664  339  -1.2  100   -1.2  6     0     986.4    NA       0.0000   UP       BR    7000  0    
2019/11/11  00:28:00  BASE  6.04464  340  6.92664  339  -1.2  100   -1.2  6     0     986.4    NA       0.0000   UP       BR    7000  0    
2019/11/11  00:29:00  BASE  5.89764  340  6.83844  336  -1.2  100   -1.2  6     0     986.3    NA       0.0000   UP       BR    5000  0    
2019/11/11  00:30:00  BASE  5.83884  340  6.83844  336  -1.2  100   -1.2  6     0     986.3    NA       0.0000   UP       BR    5000  0    
2019/11/11  00:31:00  BASE  5.57424  342  6.83844  336  -1.2  100   -1.2  5     0     986.3    NA       0.0000   UP       BR    5000  0    
2019/11/11  00:32:00  BASE  5.68008  343  6.83844  336  -1.2  100   -1.2  5     0     986.2    NA       0.0000   UP       BR    5000  0    
2019/11/11  00:33:00  BASE  5.94468  343  6.68556  338  -1.2  100   -1.2  5     0     986.2    NA       0.0000   UP       BR    5000  0    
2019/11/11  00:34:00  BASE  5.733    343  6.59148  340  -1.2  100   -1.2  5     0     986.2    NA       0.0000   UP       BR    5000  0    
2019/11/11  00:35:00  BASE  5.56836  343  6.59148  340  -1.2  100   -1.2  5     0     986.2    NA       0.0000   UP       BR    5000  0    
2019/11/11  00:36:00  BASE  5.72124  344  6.59148  340  -1.2  100   -1.2  4     0     986.2    NA       0.0000   UP       BR    5000  0    
2019/11/11  00:37:00  BASE  6.15048  344  6.71496  341  -1.2  100   -1.2  4     0     986.1    NA       0.0000   UP       BR    5000  0    
2019/11/11  00:38:00  BASE  6.174    343  6.71496  341  -1.2  100   -1.2  4     0     986.1    NA       0.0000   UP       BR    5000  0    
2019/11/11  00:39:00  BASE  5.73888  342  6.71496  341  -1.2  100   -1.2  4     0     986.2    NA       0.0000   UP       BR    5000  0    
2019/11/11  00:40:00  BASE  5.65656  342  6.71496  341  -1.2  100   -1.2  3     0     986.2    NA       0.0000   UP       BR    5000  0    
2019/11/11  00:41:00  BASE  6.01524  341  6.71496  341  -1.2  100   -1.2  3     0     986.1    NA       0.0000   UP       BR    5000  0    
2019/11/11  00:42:00  BASE  6.2034   342  6.71496  341  -1.2  100   -1.2  3     0     986.1    NA       0.0000   UP       BR    6000  0    
2019/11/11  00:43:00  BASE  6.06228  343  6.71496  341  -1.2  100   -1.2  3     0     986.0    NA       0.0000   UP       BR    6000  0    
2019/11/11  00:44:00  BASE  6.05052  343  6.71496  341  -1.2  100   -1.2  3     0     986.0    NA       0.0000   UP       BR    6000  0    
2019/11/11  00:45:00  BASE  6.06816  342  6.71496  341  -1.2  100   -1.2  2     0     986.0    NA       0.0000   UP       BR    8000  0    
2019/11/11  00:46:00  BASE  6.01524  342  6.71496  341  -1.2  100   -1.2  2     0     986.0    NA       0.0000   UP       BR    7000  0    
2019/11/11  00:47:00  BASE  5.98584  343  6.62676  340  -1.2  100   -1.2  2     0     986.0    NA       0.0000   UP       BR    7000  0    
2019/11/11  00:48:00  BASE  5.95644  342  6.62676  340  -1.2  100   -1.2  2     0     986.0    NA       0.0000   UP       BR    7000  0    
2019/11/11  00:49:00  BASE  5.99172  341  6.62676  340  -1.2  100   -1.2  2     0     986.0    NA       0.0000   UP       BR    7000  0    
2019/11/11  00:50:00  BASE  6.1152   341  6.62676  340  -1.2  100   -1.2  2     0     986.0    NA       0.0000   UP       BR    7000  0    
2019/11/11  00:51:00  BASE  6.0564   340  6.59148  341  -1.2  100   -1.2  2     0     986.1    NA       0.0000   UP       BR    7000  0    
2019/11/11  00:52:00  BASE  5.65656  338  6.56208  346  -1.2  100   -1.2  1     0     986.1    NA       0.0000   UP       BR    5000  0    
2019/11/11  00:53:00  BASE  5.45076  339  6.56208  346  -1.2  100   -1.2  1     0     986.0    NA       0.0000   UP       BR    6000  0    
2019/11/11  00:54:00  BASE  5.53308  341  6.56208  346  -1.2  100   -1.2  1     0     986.0    NA       0.0000   UP       BR    5000  0    
2019/11/11  00:55:00  BASE  5.99172  340  6.92664  338  -1.2  100   -1.2  1     0     986.0    NA       0.0000   UP       BR    5000  0    
2019/11/11  00:56:00  BASE  6.2622   341  6.92664  338  -1.2  100   -1.2  1     0     986.0    NA       0.0000   UP       BR    5000  0    
2019/11/11  00:57:00  BASE  5.78004  342  6.92664  338  -1.2  100   -1.2  1     0     986.0    NA       0.0000   UP       BR    5000  0    
2019/11/11  00:58:00  BASE  5.56836  339  6.92664  338  -1.2  100   -1.2  1     0     986.0    NA       0.0000   UP       BR    5000  0    
2019/11/11  00:59:00  BASE  5.89764  338  6.92664  338  -1.2  100   -1.2  1     0     986.0    NA       0.0000   UP       BR    5000  0    
2019/11/11  01:00:00  BASE  5.97996  340  6.92664  338  -1.2  100   -1.2  1     0     986.0    NA       0.0000   UP       BR    7000  0    
2019/11/11  01:01:00  BASE  5.84472  340  6.92664  338  -1.2  100   -1.2  1     0     986.0    NA       0.0000   UP       BR    7000  0    
2019/11/11  01:02:00  BASE  6.30924  338  7.2324   338  -1.2  100   -1.2  1     0     986.0    NA       0.0000   UP       BR    7000  0    
2019/11/11  01:03:00  BASE  6.76788  338  7.2618   337  -1.2  100   -1.2  1     0     986.0    NA       0.0000   UP       BR    7000  0    
2019/11/11  01:04:00  BASE  6.66204  337  7.2618   337  -1.2  100   -1.2  1     0     986.0    NA       0.0000   UP       BR    7000  0    
2019/11/11  01:05:00  BASE  6.52092  337  7.2618   337  -1.2  100   -1.2  1     0     986.0    NA       0.0000   UP       BR    7000  0    
2019/11/11  01:06:00  BASE  6.69732  337  7.2618   337  -1.2  100   -1.2  1     0     986.0    NA       0.0000   BR       7000  0     0    
2019/11/11  01:07:00  BASE  6.56208  339  7.2618   337  -1.2  100   -1.2  1     0     986.0    NA       0.0000   BR       7000  0     0    
2019/11/11  01:08:00  BASE  6.18576  340  7.2618   337  -1.2  100   -1.2  1     0     986.0    NA       0.0000   BR       7000  0     0    
2019/11/11  01:09:00  BASE  6.36216  339  7.2618   337  -1.2  100   -1.2  0     0     986.0    NA       0.0000   UP       BR    7000  0    
2019/11/11  01:10:00  BASE  6.59148  338  7.2618   337  -1.2  100   -1.2  0     0     986.0    NA       0.0000   BR       7000  0     0    
2019/11/11  01:11:00  BASE  6.63264  335  7.56168  336  -1.2  100   -1.2  0     0     986.0    NA       0.0000   BR       7000  0     0    
2019/11/11  01:12:00  BASE  6.28572  336  7.56168  336  -1.2  100   -1.2  0     0     986.0    NA       0.0000   BR       7000  0     0    
2019/11/11  01:13:00  BASE  6.04464  339  7.56168  336  -1.2  100   -1.2  0     0     986.0    NA       0.0000   UP       BR    7000  0    
2019/11/11  01:14:00  BASE  6.12108  339  7.56168  336  -1.2  100   -1.2  0     0     986.0    NA       0.0000   UP       BR    6000  0    
2019/11/11  01:15:00  BASE  5.96232  338  7.56168  336  -1.2  100   -1.2  0     0     986.0    NA       0.0000   UP       BR    6000  0    
2019/11/11  01:16:00  BASE  5.95644  338  7.56168  336  -1.2  100   -1.2  0     0     985.9    NA       0.0000   UP       BR    7000  0    
2019/11/11  01:17:00  BASE  5.96232  339  7.56168  336  -1.2  100   -1.2  0     0     985.9    NA       0.0000   UP       BR    6000  0    
2019/11/11  01:18:00  BASE  6.01524  339  7.56168  336  -1.2  100   -1.2  0     0     985.9    NA       0.0000   UP       BR    6000  0    
2019/11/11  01:19:00  BASE  6.2622   338  7.56168  336  -1.2  100   -1.2  0     0     985.8    NA       0.0000   UP       BR    5000  0    
2019/11/11  01:20:00  BASE  6.13284  338  7.56168  336  -1.2  100   -1.2  0     0     985.8    NA       0.0000   UP       BR    5000  0    
2019/11/11  01:21:00  BASE  6.1446   338  7.19712  336  -1.2  100   -1.2  0     0     985.8    NA       0.0000   UP       BR    6000  0    
2019/11/11  01:22:00  BASE  6.13284  339  7.19712  336  -1.2  100   -1.2  0     0     985.8    NA       0.0000   UP       BR    6000  0    
2019/11/11  01:23:00  BASE  5.85648  339  7.19712  336  -1.2  100   -1.2  0     0     985.8    NA       0.0000   UP       BR    6000  0    
2019/11/11  01:24:00  BASE  5.78592  339  7.19712  336  -1.2  100   -1.2  0     0     985.8    NA       0.0000   UP       BR    6000  0    
2019/11/11  01:25:00  BASE  5.76828  340  7.19712  336  -1.2  100   -1.2  0     0     985.8    NA       0.0000   UP       BR    6000  0    
2019/11/11  01:26:00  BASE  5.84472  338  7.19712  336  -1.2  100   -1.2  0     0     985.8    NA       0.0000   UP       BR    5000  0    
2019/11/11  01:27:00  BASE  5.95056  337  7.19712  336  -1.2  100   -1.2  0     0     985.8    NA       0.0000   UP       BR    5000  0    
2019/11/11  01:28:00  BASE  5.79768  338  7.19712  336  -1.2  100   -1.2  0     0     985.7    NA       0.0000   UP       BR    6000  0    
2019/11/11  01:29:00  BASE  5.6742   337  7.19712  336  -1.2  100   -1.2  0     0     985.7    NA       0.0000   UP       BR    7000  0    
2019/11/11  01:30:00  BASE  5.63892  335  7.19712  336  -1.2  100   -1.2  0     0     985.7    NA       0.0000   UP       BR    7000  0    
2019/11/11  01:31:00  BASE  5.32728  334  6.89724  336  -1.2  100   -1.2  0     0     985.7    NA       0.0000   UP       BR    7000  0    
2019/11/11  01:32:00  BASE  5.27436  334  6.89724  336  -1.2  100   -1.2  0     0     985.7    NA       0.0000   UP       BR    6000  0    
2019/11/11  01:33:00  BASE  5.42136  333  6.89724  336  -1.2  100   -1.2  0     0     985.7    NA       0.0000   UP       BR    5000  0    
2019/11/11  01:34:00  BASE  5.5566   335  6.89724  336  -1.2  100   -1.2  0     0     985.7    NA       0.0000   UP       BR    5000  0    
2019/11/11  01:35:00  BASE  5.39784  334  6.89724  336  -1.2  100   -1.2  0     0     985.7    NA       0.0000   UP       BR    5000  0    
2019/11/11  01:36:00  BASE  5.33316  334  6.89724  336  -1.2  100   -1.2  0     0     985.6    NA       0.0000   UP       BR    4900  0    
2019/11/11  01:37:00  BASE  5.44488  335  6.89724  336  -1.2  100   -1.2  0     0     985.6    NA       0.0000   UP       BR    5000  0    
2019/11/11  01:38:00  BASE  5.66244  334  6.89724  336  -1.2  100   -1.2  0     0     985.6    NA       0.0000   UP       BR    5000  0    
2019/11/11  01:39:00  BASE  5.85648  335  6.44448  332  -1.2  100   -1.2  0     0     985.6    NA       0.0000   UP       BR    6000  0    
2019/11/11  01:40:00  BASE  5.65068  334  6.44448  332  -1.2  100   -1.2  0     0     985.6    NA       0.0000   UP       BR    6000  0    
2019/11/11  01:41:01  BASE  5.7036   334  6.47388  338  -1.2  100   -1.2  0     0     985.6    NA       0.0000   UP       BR    6000  0    
2019/11/11  01:42:01  BASE  5.90352  334  6.47388  332  -1.2  100   -1.2  0     0     985.6    NA       0.0000   UP       BR    6000  0    
2019/11/11  01:43:01  BASE  6.027    334  6.47388  332  -1.2  100   -1.2  0     0     985.5    NA       0.0000   UP       BR    6000  0    
2019/11/11  01:44:01  BASE  5.89764  334  6.47388  332  -1.1  100   -1.1  0     0     985.5    NA       0.0000   UP       BR    6000  0    
2019/11/11  01:45:01  BASE  5.72712  333  6.47388  332  -1.1  100   -1.1  0     0     985.4    NA       0.0000   UP       BR    6000  0    
2019/11/11  01:46:01  BASE  5.77416  334  6.47388  332  -1.1  100   -1.1  0     0     985.4    NA       0.0000   UP       BR    6000  0    
2019/11/11  01:47:01  BASE  5.87412  334  6.80316  334  -1.1  100   -1.1  0     0     985.4    NA       0.0000   UP       BR    6000  0    
2019/11/11  01:48:01  BASE  6.06228  335  6.80316  334  -1.1  100   -1.1  0     0     985.4    NA       0.0000   UP       BR    6000  0    
2019/11/11  01:49:01  BASE  6.10344  334  6.80316  334  -1.1  100   -1.1  0     0     985.4    NA       0.0000   UP       BR    6000  0    
2019/11/11  01:50:01  BASE  5.89764  334  6.80316  334  -1.1  100   -1.1  0     0     985.4    NA       0.0000   UP       BR    6000  0    
2019/11/11  01:51:01  BASE  5.94468  334  6.80316  329  -1.1  100   -1.1  0     0     985.4    NA       0.0000   BR       6000  0     0    
2019/11/11  01:52:01  BASE  6.16812  333  6.80316  329  -1.1  100   -1.1  0     0     985.4    NA       0.0000   BR       6000  0     0    
2019/11/11  01:53:01  BASE  6.10344  334  6.80316  329  -1.1  100   -1.1  0     0     985.4    NA       0.0000   BR       6000  0     0    
2019/11/11  01:54:01  BASE  5.96232  335  6.80316  329  -1.1  100   -1.1  0     0     985.4    NA       0.0000   BR       6000  0     0    
2019/11/11  01:55:01  BASE  5.83884  333  6.80316  329  -1.1  100   -1.1  0     0     985.4    NA       0.0000   BR       6000  0     0    
2019/11/11  01:56:01  BASE  5.77416  333  6.80316  329  -1.1  100   -1.1  0     0     985.4    NA       0.0000   BR       6000  0     0    
2019/11/11  01:57:01  BASE  5.78004  335  6.80316  329  -1.1  100   -1.1  0     0     985.4    NA       0.0000   BR       6000  0     0    
2019/11/11  01:58:01  BASE  5.7918   336  6.80316  329  -1.1  100   -1.1  0     0     985.4    NA       0.0000   BR       6000  0     0    
2019/11/11  01:59:01  BASE  6.06228  334  6.80316  329  -1.1  100   -1.1  0     0     985.4    NA       0.0000   BR       6000  0     0    
2019/11/11  02:00:01  BASE  5.88     332  6.80316  329  -1.1  100   -1.1  0     0     985.4    NA       0.0000   BR       6000  0     0    
2019/11/11  02:01:01  BASE  5.73888  333  6.68556  337  -1.1  100   -1.1  0     0     985.4    NA       0.0000   BR       6000  0     0    
2019/11/11  02:02:01  BASE  6.17988  331  6.86784  332  -1.1  100   -1.1  0     0     985.4    NA       0.0000   BR       6000  0     0    
2019/11/11  02:03:01  BASE  6.33276  331  6.86784  332  -1.1  100   -1.1  0     0     985.4    NA       0.0000   BR       6000  0     0    
2019/11/11  02:04:01  BASE  6.33864  332  6.89724  333  -1.1  100   -1.1  0     0     985.3    NA       0.0000   BR       6000  0     0    
2019/11/11  02:05:01  BASE  6.31512  331  6.89724  333  -1.1  100   -1.1  0     0     985.3    NA       0.0000   BR       6000  0     0    
2019/11/11  02:06:01  BASE  6.28572  330  6.89724  333  -1.1  100   -1.1  0     0     985.3    NA       0.0000   BR       6000  0     0    
2019/11/11  02:07:01  BASE  6.23868  331  6.89724  333  -1.1  100   -1.1  0     0     985.3    NA       0.0000   BR       6000  0     0    
2019/11/11  02:08:01  BASE  6.13284  331  6.89724  333  -1.1  100   -1.1  0     0     985.3    NA       0.0000   BR       6000  0     0    
2019/11/11  02:09:01  BASE  6.05052  332  6.89724  333  -1.1  100   -1.1  0     0     985.3    NA       0.0000   UP       BR    6000  0    
2019/11/11  02:10:01  BASE  6.0564   332  6.89724  333  -1.1  100   -1.1  0     0     985.3    NA       0.0000   UP       BR    6000  0    
2019/11/11  02:11:01  BASE  6.17988  332  6.89724  333  -1.1  100   -1.1  0     0     985.3    NA       0.0000   BR       6000  0     0    
2019/11/11  02:12:01  BASE  6.05052  334  6.89724  333  -1.1  100   -1.1  0     0     985.3    NA       0.0000   BR       6000  0     0    
2019/11/11  02:13:01  BASE  5.82708  335  6.89724  333  -1.1  100   -1.1  0     0     985.3    NA       0.0000   BR       6000  0     0    
2019/11/11  02:14:01  BASE  5.88     335  6.83844  333  -1.1  100   -1.1  0     0     985.3    NA       0.0000   BR       6000  0     0    
2019/11/11  02:15:01  BASE  6.10932  335  6.83844  333  -1.1  100   -1.1  0     0     985.2    NA       0.0000   BR       6000  0     0    
2019/11/11  02:16:01  BASE  6.4974   336  7.2324   332  -1.1  100   -1.1  0     0     985.2    NA       0.0000   UP       BR    6000  0    
2019/11/11  02:17:01  BASE  6.69144  336  7.2324   332  -1.1  100   -1.1  0     0     985.2    NA       0.0000   UP       BR    6000  0    
2019/11/11  02:18:01  BASE  6.63852  336  7.2324   332  -1.1  100   -1.1  0     0     985.1    NA       0.0000   UP       BR    6000  0    
2019/11/11  02:19:01  BASE  6.69732  337  7.3206   337  -1.1  100   -1.1  0     0     985.1    NA       0.0000   BR       6000  0     0    
2019/11/11  02:20:01  BASE  6.81492  338  7.3206   337  -1.1  100   -1.1  0     0     985.1    NA       0.0000   BR       6000  0     0    
2019/11/11  02:21:01  BASE  6.69144  338  7.3206   337  -1.0  100   -1.0  0     0     985.1    NA       0.0000   BR       6000  0     0    
2019/11/11  02:22:01  BASE  6.66204  338  7.3794   337  -1.0  100   -1.0  0     0     985.0    NA       0.0000   UP       BR    6000  0    
2019/11/11  02:23:01  BASE  6.66204  339  7.3794   337  -1.0  100   -1.0  0     0     985.0    NA       0.0000   UP       BR    6000  0    
2019/11/11  02:24:01  BASE  6.60912  338  7.3794   337  -1.0  100   -1.0  0     0     984.9    NA       0.0000   UP       BR    6000  0    
2019/11/11  02:25:01  BASE  6.76788  338  7.3794   334  -1.0  100   -1.0  0     0     984.9    NA       0.0000   UP       BR    6000  0    
2019/11/11  02:26:01  BASE  6.67968  340  7.3794   334  -1.0  100   -1.0  0     0     984.9    NA       0.0000   UP       BR    7000  0    
2019/11/11  02:27:01  BASE  6.5856   340  7.44408  340  -1.0  100   -1.0  0     0     984.9    NA       0.0000   UP       BR    7000  0    
2019/11/11  02:28:01  BASE  6.84432  339  7.44408  340  -1.0  100   -1.0  0     0     984.9    NA       0.0000   UP       BR    7000  0    
2019/11/11  02:29:01  BASE  6.73848  339  7.44408  340  -1.0  100   -1.0  0     0     984.9    NA       0.0000   UP       BR    7000  0    
2019/11/11  02:30:01  BASE  6.26808  340  7.44408  340  -1.0  100   -1.0  0     0     984.9    NA       0.0000   UP       BR    7000  0    
2019/11/11  02:31:01  BASE  6.51504  340  7.59108  341  -1.0  100   -1.0  0     0     984.8    NA       0.0000   UP       BR    7000  0    
2019/11/11  02:32:01  BASE  6.72084  339  7.59108  341  -1.0  100   -1.0  0     0     984.8    NA       0.0000   UP       BR    9000  0    
2019/11/11  02:33:01  BASE  6.52092  338  7.59108  341  -1.0  100   -1.0  0     0     984.8    NA       0.0000   UP       BR    9000  0    
2019/11/11  02:34:01  BASE  6.4386   340  7.59108  348  -1.0  100   -1.0  0     0     984.8    NA       0.0000   UP       BR    9000  0    
2019/11/11  02:35:01  BASE  6.44448  340  7.59108  348  -1.0  100   -1.0  0     0     984.8    NA       0.0000   UP       BR    9000  0    
2019/11/11  02:36:01  BASE  6.48564  339  7.59108  348  -1.0  100   -1.0  0     0     984.8    NA       0.0000   UP       BR    9000  0    
2019/11/11  02:37:01  BASE  6.50328  339  7.59108  348  -1.0  100   -1.0  0     0     984.8    NA       0.0000   UP       BR    9000  0    
2019/11/11  02:38:01  BASE  6.52092  339  7.59108  348  -1.0  100   -1.0  0     0     984.8    NA       0.0000   UP       BR    9000  0    
2019/11/11  02:39:01  BASE  6.36216  339  7.59108  348  -1.0  100   -1.0  0     0     984.8    NA       0.0000   UP       BR    9000  0    
2019/11/11  02:40:01  BASE  6.36216  339  7.59108  348  -1.0  100   -1.0  0     0     984.8    NA       0.0000   UP       BR    9000  0    
2019/11/11  02:41:01  BASE  6.33864  338  7.59108  348  -1.0  100   -1.0  0     0     984.8    NA       0.0000   UP       BR    9000  0    
2019/11/11  02:42:01  BASE  6.42096  339  7.59108  348  -1.0  100   -1.0  0     0     984.7    NA       0.0000   UP       BR    9000  0    
2019/11/11  02:43:01  BASE  6.77376  339  7.59108  348  -1.0  100   -1.0  0     0     984.7    NA       0.0000   UP       BR    9000  0    
2019/11/11  02:44:01  BASE  6.92076  338  7.4088   338  -1.0  100   -1.0  0     0     984.7    NA       0.0000   UP       BR    9000  0    
2019/11/11  02:45:01  BASE  6.74436  337  7.4088   338  -1.0  100   -1.0  0     0     984.6    NA       0.0000   UP       BR    9000  0    
2019/11/11  02:46:01  BASE  6.60324  339  7.4088   338  -1.0  100   -1.0  0     0     984.6    NA       0.0000   UP       BR    9000  0    
2019/11/11  02:47:01  BASE  6.615    339  7.4088   338  -1.0  100   -1.0  0     0     984.6    NA       0.0000   UP       BR    9000  0    
2019/11/11  02:48:01  BASE  6.7914   341  7.53228  339  -1.0  100   -1.0  0     0     984.6    NA       0.0000   UP       BR    9000  0    
2019/11/11  02:49:01  BASE  6.86196  341  7.53228  339  -1.0  100   -1.0  0     0     984.6    NA       0.0000   UP       BR    9000  0    
2019/11/11  02:50:01  BASE  6.95016  341  7.80276  344  -0.9  100   -0.9  0     0     984.5    NA       0.0000   UP       BR    9000  0    
2019/11/11  02:51:01  BASE  6.97368  341  7.80276  344  -0.9  100   -0.9  0     0     984.5    NA       0.0000   UP       BR    9000  0    
2019/11/11  02:52:01  BASE  6.6738   340  7.80276  344  -0.9  100   -0.9  0     0     984.5    NA       0.0000   UP       BR    9000  0    
2019/11/11  02:53:01  BASE  6.38568  340  7.80276  344  -0.9  100   -0.9  0     0     984.5    NA       0.0000   BR       9000  0     0    
2019/11/11  02:54:01  BASE  6.45624  342  7.80276  344  -0.9  100   -0.9  0     0     984.5    NA       0.0000   BR       9000  0     0    
2019/11/11  02:55:01  BASE  6.63264  343  7.80276  344  -0.9  100   -0.9  0     0     984.5    NA       0.0000   BR       9000  0     0    
2019/11/11  02:56:01  BASE  6.53268  344  7.80276  344  -0.9  100   -0.9  0     0     984.5    NA       0.0000   BR       9000  0     0    
2019/11/11  02:57:01  BASE  6.5268   344  7.80276  344  -0.9  100   -0.9  0     0     984.5    NA       0.0000   BR       9000  0     0    
2019/11/11  02:58:01  BASE  6.65028  343  7.92624  345  -0.9  100   -0.9  0     0     984.4    NA       0.0000   BR       9000  0     0    
2019/11/11  02:59:00  BASE  6.65028  343  7.92624  345  -0.9  100   -0.9  0     0     984.3    NA       0.0000   BR       9000  0     0    
2019/11/11  03:00:00  BASE  6.6444   345  7.92624  345  -0.9  100   -0.9  0     0     984.3    NA       0.0000   BR       9000  0     0    
2019/11/11  03:01:00  BASE  6.8502   343  8.4378   345  -0.9  100   -0.9  0     0     984.3    NA       0.0000   BR       9000  0     0    
2019/11/11  03:02:00  BASE  6.91488  339  8.4378   345  -0.9  100   -0.9  0     0     984.3    NA       0.0000   BR       9000  0     0    
2019/11/11  03:03:00  BASE  6.59736  342  8.4378   345  -0.9  100   -0.9  0     0     984.3    NA       0.0000   BR       9000  0     0    
2019/11/11  03:04:00  BASE  6.52092  343  8.4378   345  -0.9  100   -0.9  0     0     984.3    NA       0.0000   BR       9000  0     0    
2019/11/11  03:05:00  BASE  6.51504  342  8.4378   345  -0.9  100   -0.9  0     0     984.3    NA       0.0000   BR       9000  0     0    
2019/11/11  03:06:00  BASE  6.47976  342  8.4378   345  -0.9  100   -0.9  0     0     984.3    NA       0.0000   BR       9000  0     0    
2019/11/11  03:07:00  BASE  7.1736   341  8.4378   341  -0.9  100   -0.9  0     0     984.2    NA       0.0000   BR       9000  0     0    
2019/11/11  03:08:00  BASE  7.57344  340  8.4378   341  -0.9  100   -0.9  0     0     984.2    NA       0.0000   BR       9000  0     0    
2019/11/11  03:09:00  BASE  7.18536  341  8.4378   341  -0.9  100   -0.9  0     0     984.2    NA       0.0000   BR       9000  0     0    
2019/11/11  03:10:00  BASE  7.0854   341  8.4378   341  -0.9  100   -0.9  0     0     984.2    NA       0.0000   BR       9000  0     0    
2019/11/11  03:11:00  BASE  6.79728  340  8.4378   341  -0.9  100   -0.9  0     0     984.2    NA       0.0000   BR       9000  0     0    
2019/11/11  03:12:00  BASE  6.47388  339  8.4378   341  -0.9  100   -0.9  0     0     984.2    NA       0.0000   BR       9000  0     0    
2019/11/11  03:13:00  BASE  6.45036  339  8.4378   341  -0.9  100   -0.9  0     0     984.2    NA       0.0000   BR       9000  0     0    
2019/11/11  03:14:00  BASE  6.2034   339  8.4378   341  -0.9  100   -0.9  0     0     984.2    NA       0.0000   UP       BR    8000  0    
2019/11/11  03:15:00  BASE  6.16224  339  8.4378   341  -0.9  100   -0.9  0     0     984.2    NA       0.0000   UP       BR    9000  0    
2019/11/11  03:16:00  BASE  6.32688  338  8.4378   341  -0.9  100   -0.9  0     0     984.2    NA       0.0000   UP       BR    7000  0    
2019/11/11  03:17:00  BASE  6.56796  337  7.92624  333  -0.9  100   -0.9  0     0     984.2    NA       0.0000   UP       BR    9000  0    
2019/11/11  03:18:00  BASE  6.72084  337  7.92624  333  -0.9  100   -0.9  0     0     984.2    NA       0.0000   UP       BR    9000  0    
2019/11/11  03:19:00  BASE  6.69732  338  7.92624  333  -0.9  100   -0.9  0     0     984.2    NA       0.0000   UP       BR    7000  0    
2019/11/11  03:20:00  BASE  6.5856   342  7.4088   339  -0.9  100   -0.9  0     0     984.2    NA       0.0000   UP       BR    7000  0    
2019/11/11  03:21:00  BASE  6.54444  345  7.4088   339  -0.9  100   -0.9  0     0     984.1    NA       0.0000   UP       BR    7000  0    
2019/11/11  03:22:00  BASE  6.66204  342  7.4088   339  -0.9  100   -0.9  0     0     984.1    NA       0.0000   UP       BR    7000  0    
2019/11/11  03:23:00  BASE  6.76788  340  7.53228  335  -0.9  100   -0.9  0     0     984.1    NA       0.0000   UP       BR    7000  0    
2019/11/11  03:24:00  BASE  7.07952  341  7.92624  343  -0.8  100   -0.8  0     0     984.1    NA       0.0000   UP       BR    7000  0    
2019/11/11  03:25:00  BASE  7.203    342  7.92624  343  -0.8  100   -0.8  0     0     984.1    NA       0.0000   UP       BR    7000  0    
2019/11/11  03:26:00  BASE  6.91488  341  7.92624  343  -0.8  100   -0.8  0     0     984.1    NA       0.0000   UP       BR    7000  0    
2019/11/11  03:27:00  BASE  6.7032   342  7.92624  343  -0.8  100   -0.8  0     0     984.1    NA       0.0000   UP       BR    8000  0    
2019/11/11  03:28:00  BASE  6.83256  342  7.92624  343  -0.8  100   -0.8  0     0     984.1    NA       0.0000   UP       BR    8000  0    
2019/11/11  03:29:00  BASE  7.19712  343  9.01404  352  -0.8  100   -0.8  0     0     984.0    NA       0.0000   UP       BR    8000  0    
2019/11/11  03:30:00  BASE  7.2618   344  9.01404  352  -0.8  100   -0.8  0     0     984.0    NA       0.0000   UP       BR    8000  0    
2019/11/11  03:31:00  BASE  6.8208   344  9.01404  352  -0.8  100   -0.8  0     0     984.0    NA       0.0000   UP       BR    8000  0    
2019/11/11  03:32:00  BASE  6.65616  346  9.01404  352  -0.8  100   -0.8  0     0     984.0    NA       0.0000   UP       BR    8000  0    
2019/11/11  03:33:00  BASE  7.13244  348  9.07284  342  -0.8  100   -0.8  0     0     983.9    NA       0.0000   UP       BR    8000  0    
2019/11/11  03:34:00  BASE  7.19124  346  9.07284  342  -0.8  100   -0.8  0     0     983.9    NA       0.0000   UP       BR    8000  0    
2019/11/11  03:35:00  BASE  7.1148   345  9.07284  342  -0.8  100   -0.8  0     0     983.9    NA       0.0000   UP       BR    8000  0    
2019/11/11  03:36:00  BASE  7.40292  346  9.07284  342  -0.8  100   -0.8  0     0     983.9    NA       0.0000   UP       BR    8000  0    
2019/11/11  03:37:00  BASE  7.4676   345  9.07284  342  -0.8  100   -0.8  0     0     983.9    NA       0.0000   UP       BR    8000  0    
2019/11/11  03:38:00  BASE  7.56168  343  9.07284  342  -0.8  100   -0.8  0     0     983.8    NA       0.0000   UP       BR    7000  0    
2019/11/11  03:39:00  BASE  8.04972  341  9.31392  337  -0.8  100   -0.8  0     0     983.7    NA       0.0000   UP       BR    7000  0    
2019/11/11  03:40:00  BASE  8.1438   341  9.31392  337  -0.8  100   -0.8  0     0     983.7    NA       0.0000   UP       BR    7000  0    
2019/11/11  03:41:00  BASE  7.78512  345  9.31392  337  -0.8  100   -0.8  0     0     983.7    NA       0.0000   UP       BR    6000  0    
2019/11/11  03:42:00  BASE  7.9674   345  9.31392  337  -0.8  100   -0.8  0     0     983.7    NA       0.0000   UP       BR    6000  0    
2019/11/11  03:43:00  BASE  8.03796  345  9.31392  337  -0.8  100   -0.8  0     0     983.7    NA       0.0000   UP       BR    6000  0    
2019/11/11  03:44:00  BASE  7.77336  344  9.31392  337  -0.8  100   -0.8  0     0     983.7    NA       0.0000   UP       BR    6000  0    
2019/11/11  03:45:00  BASE  7.7028   346  9.31392  337  -0.8  100   -0.8  0     0     983.7    NA       0.0000   UP       BR    6000  0    
2019/11/11  03:46:00  BASE  7.47936  351  9.31392  337  -0.8  100   -0.8  0     0     983.7    NA       0.0000   UP       BR    9999  0    
2019/11/11  03:47:00  BASE  7.4676   349  9.31392  337  -0.8  100   -0.8  0     0     983.7    NA       0.0000   UP       BR    9999  0    
2019/11/11  03:48:00  BASE  7.62636  348  9.31392  337  -0.8  100   -0.8  0     0     983.7    NA       0.0000   UP       BR    9999  0    
2019/11/11  03:49:00  BASE  7.41468  348  8.71416  340  -0.8  100   -0.8  0     0     983.7    NA       0.0000   UP       BR    9999  0    
2019/11/11  03:50:00  BASE  7.65576  348  8.71416  345  -0.8  100   -0.8  0     0     983.7    NA       0.0000   UP       BR    9999  0    
2019/11/11  03:51:00  BASE  8.03208  349  9.10224  351  -0.8  100   -0.8  0     0     983.7    NA       0.0000   UP       BR    9999  0    
2019/11/11  03:52:00  BASE  8.0556   350  9.10224  351  -0.8  100   -0.8  0     0     983.7    NA       0.0000   UP       BR    9999  0    
2019/11/11  03:53:00  BASE  7.67928  349  9.10224  351  -0.7  100   -0.7  0     0     983.7    NA       0.0000   UP       BR    9999  0    
2019/11/11  03:54:00  BASE  7.2912   348  9.10224  351  -0.7  100   -0.7  0     0     983.7    NA       0.0000   UP       BR    9999  0    
2019/11/11  03:55:00  BASE  7.36176  349  9.10224  351  -0.7  100   -0.7  0     0     983.7    NA       0.0000   9999     0     0     0    
2019/11/11  03:56:00  BASE  7.46172  350  9.10224  351  -0.7  100   -0.7  0     0     983.6    NA       0.0000   9999     0     0     0    
2019/11/11  03:57:00  BASE  7.93212  348  9.19632  344  -0.7  100   -0.7  0     0     983.5    NA       0.0000   9999     0     0     0    
2019/11/11  03:58:00  BASE  7.9674   347  9.19632  344  -0.7  100   -0.7  0     0     983.5    NA       0.0000   9999     0     0     0    
2019/11/11  03:59:00  BASE  7.36176  348  9.19632  344  -0.7  100   -0.7  0     0     983.6    NA       0.0000   9999     0     0     0    
2019/11/11  04:00:00  BASE  7.54404  350  9.19632  344  -0.7  100   -0.7  0     0     983.5    NA       0.0000   9999     0     0     0    
2019/11/11  04:01:00  BASE  7.84392  349  9.19632  344  -0.7  100   -0.7  0     0     983.5    NA       0.0000   9999     0     0     0    
2019/11/11  04:02:00  BASE  7.33824  346  9.19632  344  -0.7  100   -0.7  0     0     983.5    NA       0.0000   9999     0     0     0    
2019/11/11  04:03:00  BASE  7.3206   344  9.19632  344  -0.7  100   -0.7  0     0     983.5    NA       0.0000   9999     0     0     0    
2019/11/11  04:04:00  BASE  7.80864  344  9.19632  344  -0.7  100   -0.7  0     0     983.5    NA       0.0000   9999     0     0     0    
2019/11/11  04:05:00  BASE  7.97916  344  9.19632  344  -0.7  100   -0.7  0     0     983.5    NA       0.0000   9999     0     0     0    
2019/11/11  04:06:00  BASE  7.8498   340  9.19632  344  -0.7  100   -0.7  0     0     983.5    NA       0.0000   9999     0     0     0    
2019/11/11  04:07:00  BASE  7.46172  339  8.95524  343  -0.7  100   -0.7  0     0     983.5    NA       0.0000   UP       8000  0     0    
2019/11/11  04:08:00  BASE  7.79688  343  9.28452  348  -0.7  100   -0.7  0     0     983.4    NA       0.0000   UP       BR    8000  0    
2019/11/11  04:09:00  BASE  8.4966   344  9.28452  348  -0.7  100   -0.7  0     0     983.4    NA       0.0000   UP       BR    8000  0    
2019/11/11  04:10:00  BASE  8.72592  342  9.4374   343  -0.7  100   -0.7  0     0     983.3    NA       0.0000   UP       BR    7000  0    
2019/11/11  04:11:00  BASE  8.59656  343  9.4374   343  -0.7  100   -0.7  0     0     983.3    NA       0.0000   UP       BR    7000  0    
2019/11/11  04:12:00  BASE  8.60244  343  9.4374   343  -0.6  100   -0.6  0     0     983.3    NA       0.0000   UP       BR    7000  0    
2019/11/11  04:13:00  BASE  8.80824  343  9.80196  343  -0.6  100   -0.6  0     0     983.3    NA       0.0000   UP       BR    7000  0    
2019/11/11  04:14:00  BASE  8.6142   343  9.80196  343  -0.6  100   -0.6  0     0     983.3    NA       0.0000   UP       BR    7000  0    
2019/11/11  04:15:00  BASE  8.27904  343  9.80196  343  -0.6  100   -0.6  0     0     983.3    NA       0.0000   UP       BR    7000  0    
2019/11/11  04:16:00  BASE  8.50836  345  9.80196  343  -0.6  100   -0.6  0     0     983.3    NA       0.0000   UP       BR    7000  0    
2019/11/11  04:17:00  BASE  8.34372  347  9.80196  343  -0.6  100   -0.6  0     0     983.3    NA       0.0000   UP       BR    8000  0    
2019/11/11  04:18:00  BASE  7.54992  346  9.80196  343  -0.6  100   -0.6  0     0     983.3    NA       0.0000   UP       BR    8000  0    
2019/11/11  04:19:00  BASE  7.37352  343  9.80196  343  -0.6  100   -0.6  0     0     983.3    NA       0.0000   UP       BR    8000  0    
2019/11/11  04:20:00  BASE  7.54992  344  9.80196  343  -0.6  100   -0.6  0     0     983.3    NA       0.0000   UP       BR    8000  0    
2019/11/11  04:21:00  BASE  7.56168  345  9.80196  343  -0.6  100   -0.6  0     0     983.3    NA       0.0000   UP       BR    8000  0    
2019/11/11  04:22:00  BASE  7.9086   344  9.80196  343  -0.6  100   -0.6  0     0     983.3    NA       0.0000   UP       BR    8000  0    
2019/11/11  04:23:00  BASE  7.7616   346  9.67848  342  -0.6  100   -0.6  0     0     983.3    NA       0.0000   UP       BR    8000  0    
2019/11/11  04:24:00  BASE  7.5264   344  9.67848  342  -0.6  100   -0.6  0     0     983.3    NA       0.0000   UP       BR    8000  0    
2019/11/11  04:25:00  BASE  7.78512  342  9.67848  342  -0.6  100   -0.6  0     0     983.2    NA       0.0000   UP       BR    8000  0    
2019/11/11  04:26:00  BASE  7.9968   343  8.89056  348  -0.6  100   -0.6  0     0     983.2    NA       0.0000   UP       BR    8000  0    
2019/11/11  04:27:00  BASE  8.63184  342  9.64908  335  -0.6  100   -0.6  0     0     983.1    NA       0.0000   UP       BR    8000  0    
2019/11/11  04:28:00  BASE  8.80824  343  9.64908  335  -0.6  100   -0.6  0     0     983.1    NA       0.0000   UP       BR    7000  0    
2019/11/11  04:29:00  BASE  8.673    344  9.64908  335  -0.6  100   -0.6  0     0     983.1    NA       0.0000   UP       BR    6000  0    
2019/11/11  04:30:00  BASE  8.54952  346  9.64908  335  -0.6  100   -0.6  0     0     983.1    NA       0.0000   UP       BR    6000  0    
2019/11/11  04:31:00  BASE  8.19084  348  9.64908  335  -0.6  100   -0.6  0     0     983.0    NA       0.0000   UP       BR    6000  0    
2019/11/11  04:32:00  BASE  8.34372  346  9.64908  335  -0.6  100   -0.6  0     0     982.9    NA       0.0000   UP       BR    8000  0    
2019/11/11  04:33:00  BASE  8.39076  344  9.64908  335  -0.6  100   -0.6  0     0     982.9    NA       0.0000   UP       BR    9000  0    
2019/11/11  04:34:00  BASE  7.88508  345  9.64908  335  -0.6  100   -0.6  0     0     982.9    NA       0.0000   UP       BR    9000  0    
2019/11/11  04:35:00  BASE  7.60872  346  9.64908  335  -0.6  100   -0.6  0     0     982.9    NA       0.0000   UP       BR    9000  0    
2019/11/11  04:36:00  BASE  7.70868  346  9.64908  335  -0.6  100   -0.6  0     0     982.9    NA       0.0000   UP       BR    9000  0    
2019/11/11  04:37:00  BASE  7.89096  344  9.3786   351  -0.6  100   -0.6  0     0     982.9    NA       0.0000   UP       BR    8000  0    
2019/11/11  04:38:00  BASE  7.39116  342  9.3786   351  -0.6  100   -0.6  0     0     982.9    NA       0.0000   UP       BR    7000  0    
2019/11/11  04:39:00  BASE  7.2618   344  9.25512  341  -0.6  100   -0.6  0     0     982.9    NA       0.0000   UP       BR    7000  0    
2019/11/11  04:40:00  BASE  7.39704  347  9.25512  341  -0.6  100   -0.6  0     0     982.9    NA       0.0000   UP       BR    8000  0    
2019/11/11  04:41:00  BASE  7.28532  347  9.25512  341  -0.6  100   -0.6  0     0     982.9    NA       0.0000   UP       BR    9000  0    
2019/11/11  04:42:00  BASE  7.26768  345  8.77296  346  -0.6  100   -0.6  0     0     982.8    NA       0.0000   UP       BR    9000  0    
2019/11/11  04:43:00  BASE  7.16772  345  8.77296  346  -0.6  100   -0.6  0     0     982.8    NA       0.0000   UP       BR    8000  0    
2019/11/11  04:44:00  BASE  7.26768  347  8.77296  346  -0.6  100   -0.6  0     0     982.8    NA       0.0000   UP       BR    8000  0    
2019/11/11  04:45:00  BASE  7.19124  346  8.77296  346  -0.6  100   -0.6  0     0     982.8    NA       0.0000   UP       BR    8000  0    
2019/11/11  04:46:00  BASE  7.22652  344  8.77296  346  -0.6  100   -0.6  0     0     982.8    NA       0.0000   UP       BR    8000  0    
2019/11/11  04:47:00  BASE  7.56756  344  8.64948  344  -0.6  100   -0.6  0     0     982.8    NA       0.0000   UP       BR    8000  0    
2019/11/11  04:48:00  BASE  7.7616   344  8.64948  344  -0.6  100   -0.6  0     0     982.8    NA       0.0000   UP       BR    8000  0    
2019/11/11  04:49:00  BASE  7.50288  344  8.64948  344  -0.6  100   -0.6  0     0     982.8    NA       0.0000   UP       BR    8000  0    
2019/11/11  04:50:00  BASE  7.42056  345  8.64948  344  -0.6  100   -0.6  0     0     982.8    NA       0.0000   UP       BR    8000  0    
2019/11/11  04:51:00  BASE  7.6146   347  8.64948  344  -0.6  100   -0.6  0     0     982.8    NA       0.0000   UP       BR    8000  0    
2019/11/11  04:52:00  BASE  7.31472  347  8.64948  344  -0.6  100   -0.6  0     0     982.8    NA       0.0000   UP       BR    8000  0    
2019/11/11  04:53:00  BASE  7.03836  346  8.4672   340  -0.6  100   -0.6  0     0     982.7    NA       0.0000   UP       BR    8000  0    
2019/11/11  04:54:00  BASE  6.88548  346  8.4672   340  -0.6  100   -0.6  0     0     982.7    NA       0.0000   UP       BR    8000  0    
2019/11/11  04:55:00  BASE  6.79728  348  8.4672   340  -0.6  100   -0.6  0     0     982.6    NA       0.0000   UP       BR    8000  0    
2019/11/11  04:56:00  BASE  7.09716  351  8.4672   340  -0.6  100   -0.6  0     0     982.6    NA       0.0000   UP       BR    8000  0    
2019/11/11  04:57:00  BASE  7.497    350  8.4672   340  -0.6  100   -0.6  0     0     982.6    NA       0.0000   UP       BR    8000  0    
2019/11/11  04:58:00  BASE  7.42644  346  8.4084   348  -0.6  100   -0.6  0     0     982.6    NA       0.0000   BR       8000  0     0    
2019/11/11  04:59:00  BASE  6.97956  346  8.4084   348  -0.5  100   -0.5  0     0     982.5    NA       0.0000   BR       8000  0     0    
2019/11/11  05:00:00  BASE  7.05012  349  8.4084   348  -0.5  100   -0.5  0     0     982.4    NA       0.0000   BR       8000  0     0    
2019/11/11  05:01:00  BASE  6.99132  349  8.4084   348  -0.5  100   -0.5  0     0     982.4    NA       0.0000   BR       8000  0     0    
2019/11/11  05:02:00  BASE  6.89724  348  8.4084   348  -0.5  100   -0.5  0     0     982.4    NA       0.0000   BR       8000  0     0    
2019/11/11  05:03:00  BASE  7.15008  347  8.4084   348  -0.5  100   -0.5  0     0     982.4    NA       0.0000   BR       8000  0     0    
2019/11/11  05:04:00  BASE  7.15008  348  8.4084   348  -0.5  100   -0.5  0     0     982.3    NA       0.0000   BR       8000  0     0    
2019/11/11  05:05:00  BASE  6.77964  349  8.4084   348  -0.5  100   -0.5  0     0     982.3    NA       0.0000   BR       8000  0     0    
2019/11/11  05:06:00  BASE  6.62088  349  8.13792  348  -0.5  100   -0.5  0     0     982.3    NA       0.0000   BR       8000  0     0    
2019/11/11  05:07:00  BASE  6.35628  351  8.13792  348  -0.5  100   -0.5  0     0     982.3    NA       0.0000   BR       8000  0     0    
2019/11/11  05:08:00  BASE  5.9682   350  8.01444  345  -0.5  100   -0.5  0     0     982.3    NA       0.0000   BR       8000  0     0    
2019/11/11  05:09:00  BASE  6.37392  348  8.01444  345  -0.5  100   -0.5  0     0     982.3    NA       0.0000   UP       BR    8000  0    
2019/11/11  05:10:00  BASE  6.70908  347  7.74396  346  -0.5  100   -0.5  0     0     982.3    NA       0.0000   UP       BR    8000  0    
2019/11/11  05:11:00  BASE  7.12656  350  8.50248  346  -0.5  100   -0.5  0     0     982.2    NA       0.0000   UP       BR    8000  0    
2019/11/11  05:12:00  BASE  7.6146   350  8.50248  346  -0.5  100   -0.5  0     0     982.2    NA       0.0000   UP       BR    8000  0    
2019/11/11  05:13:00  BASE  7.53228  350  8.50248  346  -0.5  100   -0.5  0     0     982.2    NA       0.0000   UP       BR    8000  0    
2019/11/11  05:14:00  BASE  7.34412  352  8.50248  346  -0.5  100   -0.5  0     0     982.2    NA       0.0000   UP       BR    8000  0    
2019/11/11  05:15:00  BASE  7.13832  352  8.50248  346  -0.5  100   -0.5  0     0     982.2    NA       0.0000   UP       BR    8000  0    
2019/11/11  05:16:00  BASE  6.91488  353  8.50248  346  -0.5  100   -0.5  0     0     982.1    NA       0.0000   UP       BR    8000  0    
2019/11/11  05:17:00  BASE  6.81492  354  8.50248  346  -0.5  100   -0.5  0     0     982.1    NA       0.0000   UP       BR    8000  0    
2019/11/11  05:18:01  BASE  6.72672  353  8.50248  346  -0.5  100   -0.5  0     0     982.1    NA       0.0000   UP       BR    8000  0    
2019/11/11  05:19:01  BASE  6.7914   349  8.50248  346  -0.5  100   -0.5  0     0     982.1    NA       0.0000   UP       BR    8000  0    
2019/11/11  05:20:01  BASE  7.22064  349  8.53188  350  -0.5  100   -0.5  0     0     982.0    NA       0.0000   UP       BR    8000  0    
2019/11/11  05:21:01  BASE  7.69104  351  8.53188  350  -0.5  100   -0.5  0     0     982.0    NA       0.0000   BR       8000  0     0    
2019/11/11  05:22:01  BASE  7.67928  352  8.53188  350  -0.5  100   -0.5  0     0     982.0    NA       0.0000   BR       8000  0     0    
2019/11/11  05:23:01  BASE  7.2618   350  8.53188  350  -0.5  100   -0.5  0     0     982.0    NA       0.0000   BR       8000  0     0    
2019/11/11  05:24:01  BASE  7.2618   349  8.53188  344  -0.5  100   -0.5  0     0     982.0    NA       0.0000   BR       8000  0     0    
2019/11/11  05:25:01  BASE  7.2324   350  8.53188  344  -0.5  100   -0.5  0     0     982.0    NA       0.0000   BR       8000  0     0    
2019/11/11  05:26:01  BASE  6.94428  351  8.53188  344  -0.5  100   -0.5  0     0     982.0    NA       0.0000   BR       8000  0     0    
2019/11/11  05:27:01  BASE  7.07952  352  8.53188  344  -0.5  100   -0.5  0     0     982.0    NA       0.0000   BR       8000  0     0    
2019/11/11  05:28:01  BASE  7.25004  348  8.53188  344  -0.5  100   -0.5  0     0     982.0    NA       0.0000   BR       8000  0     0    
2019/11/11  05:29:01  BASE  7.31472  347  8.53188  344  -0.4  100   -0.4  0     0     981.9    NA       0.0000   BR       8000  0     0    
2019/11/11  05:30:01  BASE  7.5558   350  8.53188  344  -0.4  100   -0.4  0     0     981.8    NA       0.0000   BR       8000  0     0    
2019/11/11  05:31:01  BASE  7.5264   349  8.53188  344  -0.4  100   -0.4  0     0     981.8    NA       0.0000   BR       8000  0     0    
2019/11/11  05:32:01  BASE  7.42056  348  8.53188  344  -0.4  100   -0.4  0     0     981.8    NA       0.0000   BR       8000  0     0    
2019/11/11  05:33:01  BASE  8.06148  349  9.13752  349  -0.4  100   -0.4  0     0     981.8    NA       0.0000   BR       8000  0     0    
2019/11/11  05:34:01  BASE  8.13204  348  9.13752  349  -0.4  100   -0.4  0     0     981.8    NA       0.0000   BR       8000  0     0    
2019/11/11  05:35:01  BASE  7.33824  348  9.13752  349  -0.4  100   -0.4  0     0     981.8    NA       0.0000   BR       8000  0     0    
2019/11/11  05:36:01  BASE  7.497    349  9.13752  349  -0.4  100   -0.4  0     0     981.7    NA       0.0000   BR       8000  0     0    
2019/11/11  05:37:01  BASE  8.13204  351  9.13752  349  -0.4  100   -0.4  0     0     981.7    NA       0.0000   BR       8000  0     0    
2019/11/11  05:38:01  BASE  8.36724  352  9.4668   350  -0.4  100   -0.4  0     0     981.7    NA       0.0000   BR       8000  0     0    
2019/11/11  05:39:01  BASE  8.30256  350  9.4668   350  -0.4  100   -0.4  0     0     981.7    NA       0.0000   BR       8000  0     0    
2019/11/11  05:40:01  BASE  8.03208  348  9.4668   350  -0.4  100   -0.4  0     0     981.6    NA       0.0000   UP       BR    9999  0    
2019/11/11  05:41:01  BASE  7.76748  350  9.4668   350  -0.4  100   -0.4  0     0     981.6    NA       0.0000   UP       BR    9999  0    
2019/11/11  05:42:01  BASE  7.77336  351  9.4668   350  -0.4  100   -0.4  0     0     981.6    NA       0.0000   UP       BR    9999  0    
2019/11/11  05:43:01  BASE  7.88508  347  9.4668   350  -0.4  100   -0.4  0     0     981.6    NA       0.0000   UP       BR    9999  0    
2019/11/11  05:44:01  BASE  7.92036  348  9.4668   350  -0.4  100   -0.4  0     0     981.6    NA       0.0000   UP       BR    9999  0    
2019/11/11  05:45:01  BASE  7.6734   349  9.4668   350  -0.4  100   -0.4  0     0     981.6    NA       0.0000   UP       BR    9999  0    
2019/11/11  05:46:01  BASE  7.60284  346  9.4668   350  -0.4  100   -0.4  0     0     981.6    NA       0.0000   UP       BR    9999  0    
2019/11/11  05:47:02  BASE  7.6734   345  9.4668   350  -0.4  100   -0.4  0     0     M        NA       0.0000   UP       BR    9999  0    
2019/11/11  05:48:02  BASE  7.9674   346  9.4668   350  -0.4  100   -0.4  0     0     981.6    NA       0.0000   UP       BR    9999  0    
2019/11/11  05:49:01  BASE  7.9968   345  9.19632  347  -0.4  100   -0.4  0     0     981.6    NA       0.0000   UP       BR    9999  0    
2019/11/11  05:50:01  BASE  8.19672  347  9.19632  347  -0.4  100   -0.4  0     0     981.5    NA       0.0000   UP       BR    9999  0    
2019/11/11  05:51:01  BASE  8.39076  347  9.19632  347  -0.4  100   -0.4  0     0     981.5    NA       0.0000   UP       BR    9999  0    
2019/11/11  05:52:01  BASE  8.24964  348  9.19632  347  -0.4  100   -0.4  0     0     981.5    NA       0.0000   UP       BR    9999  0    
2019/11/11  05:53:01  BASE  8.21436  349  9.5256   350  -0.4  100   -0.4  0     0     981.5    NA       0.0000   UP       BR    9999  0    
2019/11/11  05:54:01  BASE  8.28492  349  9.5256   350  -0.4  100   -0.4  0     0     981.5    NA       0.0000   UP       BR    9999  0    
2019/11/11  05:55:01  BASE  8.02032  349  9.5256   350  -0.4  100   -0.4  0     0     981.5    NA       0.0000   UP       BR    9999  0    
2019/11/11  05:56:01  BASE  8.07912  348  9.5256   350  -0.4  100   -0.4  0     0     981.5    NA       0.0000   UP       BR    9999  0    
2019/11/11  05:57:02  BASE  8.82588  349  10.0136  352  -0.4  100   -0.4  0     0     981.4    NA       0.0000   UP       BR    9999  0    
2019/11/11  05:58:01  BASE  8.9964   349  10.0136  352  -0.4  100   -0.4  0     0     981.5    NA       0.0000   UP       BR    9999  0    
2019/11/11  05:59:01  BASE  8.36724  347  10.0136  352  -0.4  100   -0.4  0     0     981.5    NA       0.0000   UP       BR    9999  0    
2019/11/11  06:00:02  BASE  7.60284  347  10.0136  352  -0.4  100   -0.4  0     0     981.5    NA       0.0000   UP       BR    8000  0    
2019/11/11  06:01:02  BASE  7.44408  348  10.0136  352  -0.4  100   -0.4  0     0     981.5    NA       0.0000   UP       BR    7000  0    
2019/11/11  06:02:01  BASE  7.8204   348  10.0136  352  -0.4  100   -0.4  0     0     981.4    NA       0.0000   UP       BR    7000  0    
2019/11/11  06:03:01  BASE  8.13792  349  10.0136  352  -0.4  100   -0.4  0     0     981.4    NA       0.0000   UP       BR    8000  0    
2019/11/11  06:04:01  BASE  7.96152  349  10.0136  352  -0.4  100   -0.4  0     0     981.4    NA       0.0000   UP       BR    8000  0    
2019/11/11  06:05:02  BASE  7.97916  349  10.0136  352  -0.4  100   -0.4  0     0     981.4    NA       0.0000   UP       BR    8000  0    
2019/11/11  06:06:02  BASE  8.20848  352  10.0136  352  -0.4  100   -0.4  0     0     981.4    NA       0.0000   UP       BR    9999  0    
2019/11/11  06:07:00  BASE  8.07324  351  9.4374   349  -0.4  100   -0.4  0     0     981.4    NA       0.0000   UP       BR    9999  0    
2019/11/11  06:08:01  BASE  8.2614   349  9.4374   349  -0.3  100   -0.3  0     0     981.4    NA       0.0000   UP       BR    9999  0    
2019/11/11  06:09:01  BASE  8.54952  349  9.408    355  -0.3  100   -0.3  0     0     981.4    NA       0.0000   UP       BR    9999  0    
2019/11/11  06:10:01  BASE  8.085    350  9.408    355  -0.3  100   -0.3  0     0     981.4    NA       0.0000   UP       BR    9999  0    
2019/11/11  06:11:00  BASE  7.99092  349  9.408    355  -0.3  100   -0.3  0     0     981.3    NA       0.0000   UP       BR    9999  0    
2019/11/11  06:12:01  BASE  8.50248  348  9.408    355  -0.3  100   -0.3  0     0     981.2    NA       0.0000   UP       BR    9999  0    
2019/11/11  06:13:02  BASE  8.12616  349  9.408    355  -0.3  100   -0.3  0     0     981.3    NA       0.0000   UP       BR    9000  0    
2019/11/11  06:14:00  BASE  8.13204  350  9.408    355  -0.3  100   -0.3  0     0     981.2    NA       0.0000   UP       BR    8000  0    
2019/11/11  06:15:01  BASE  8.66712  353  9.408    355  -0.3  100   -0.3  0     0     981.2    NA       0.0000   UP       BR    8000  0    
2019/11/11  06:16:01  BASE  8.60832  354  9.408    355  -0.3  100   -0.3  0     0     981.2    NA       0.0000   UP       BR    8000  0    
2019/11/11  06:17:01  BASE  8.39076  349  9.64908  350  -0.3  100   -0.3  0     0     981.2    NA       0.0000   UP       BR    8000  0    
2019/11/11  06:18:02  BASE  7.88508  347  9.64908  350  -0.3  100   -0.3  0     0     981.2    NA       0.0000   UP       BR    8000  0    
2019/11/11  06:19:02  BASE  7.31472  347  9.64908  350  -0.3  100   -0.3  0     0     981.2    NA       0.0000   UP       BR    8000  0    
2019/11/11  06:20:01  BASE  7.05012  350  9.64908  350  -0.3  100   -0.3  0     0     981.2    NA       0.0000   UP       BR    8000  0    
2019/11/11  06:21:01  BASE  7.99092  350  10.0136  348  -0.3  100   -0.3  0     0     981.0    NA       0.0000   UP       BR    8000  0    
2019/11/11  06:22:01  BASE  8.86704  350  10.0136  348  -0.3  100   -0.3  0     0     981.0    NA       0.0000   UP       BR    9999  0    
2019/11/11  06:23:02  BASE  8.34372  351  10.0136  348  -0.3  100   -0.3  0     0     981.0    NA       0.0000   UP       BR    9999  0    
2019/11/11  06:24:01  BASE  7.8204   350  10.0136  348  -0.3  100   -0.3  0     0     981.0    NA       0.0000   UP       BR    9999  0    
2019/11/11  06:25:01  BASE  7.85568  346  10.0136  348  -0.3  100   -0.3  0     0     981.0    NA       0.0000   UP       BR    9999  0    
2019/11/11  06:26:01  BASE  7.92036  348  10.0136  348  -0.3  100   -0.3  0     0     981.0    NA       0.0000   UP       BR    9999  0    
2019/11/11  06:27:01  BASE  7.46172  350  10.0136  348  -0.3  100   -0.3  0     0     981.0    NA       0.0000   UP       BR    9999  0    
2019/11/11  06:28:01  BASE  7.63812  348  10.0136  348  -0.3  100   -0.3  0     0     980.9    NA       0.0000   UP       9999  0     0    
2019/11/11  06:29:01  BASE  8.01444  350  10.0136  348  -0.3  100   -0.3  0     0     980.9    NA       0.0000   UP       9999  0     0    
2019/11/11  06:30:01  BASE  7.74396  350  10.0136  348  -0.3  100   -0.3  0     0     980.9    NA       0.0000   UP       9999  0     0    
2019/11/11  06:31:02  BASE  7.63224  354  9.31392  347  -0.3  100   -0.3  0     0     980.9    NA       0.0000   UP       9999  0     0    
2019/11/11  06:32:00  BASE  7.94388  357  9.13752  346  -0.3  100   -0.3  0     0     980.8    NA       0.0000   UP       9999  0     0    
2019/11/11  06:33:01  BASE  8.39664  351  9.80196  348  -0.3  100   -0.3  0     0     980.8    NA       0.0000   9999     0     0     0    
2019/11/11  06:34:01  BASE  8.47308  350  9.80196  348  -0.2  100   -0.2  0     0     980.7    NA       0.0000   9999     0     0     0    
2019/11/11  06:35:03  BASE  8.37312  354  9.80196  348  -0.2  100   -0.2  0     0     980.7    NA       0.0000   9999     0     0     0    
2019/11/11  06:36:01  BASE  8.6142   353  10.1312  343  -0.2  100   -0.2  0     0     980.7    NA       0.0000   9999     0     0     0    
2019/11/11  06:37:01  BASE  8.70828  352  10.1312  343  -0.2  100   -0.2  0     0     980.7    NA       0.0000   9999     0     0     0    
2019/11/11  06:38:01  BASE  8.70828  354  10.1312  343  -0.2  100   -0.2  0     0     980.6    NA       0.0000   9999     0     0     0    
2019/11/11  06:39:01  BASE  8.98464  352  10.2841  352  -0.2  100   -0.2  0     0     980.6    NA       0.0000   9999     0     0     0    
2019/11/11  06:40:01  BASE  8.41428  351  10.2841  352  -0.2  100   -0.2  0     0     980.7    NA       0.0000   9999     0     0     0    
2019/11/11  06:41:01  BASE  8.07912  354  10.2841  352  -0.2  100   -0.2  0     0     980.6    NA       0.0000   9999     0     0     0    
2019/11/11  06:42:01  BASE  8.3496   355  10.2841  352  -0.2  100   -0.2  0     0     980.6    NA       0.0000   9999     0     0     0    
2019/11/11  06:43:01  BASE  8.36724  357  10.2841  352  -0.2  100   -0.2  0     0     980.6    NA       0.0000   9999     0     0     0    
2019/11/11  06:44:01  BASE  8.62008  357  10.2841  352  -0.2  100   -0.2  0     0     980.6    NA       0.0000   9999     0     0     0    
2019/11/11  06:45:01  BASE  8.7024   358  10.2841  352  -0.2  100   -0.2  0     0     980.6    NA       0.0000   9999     0     0     0    
2019/11/11  06:46:01  BASE  8.27316  354  10.2841  352  -0.2  100   -0.2  0     0     980.5    NA       0.0000   9999     0     0     0    
2019/11/11  06:47:01  BASE  8.29668  349  10.2841  352  -0.2  100   -0.2  0     0     980.4    NA       0.0000   9999     0     0     0    
2019/11/11  06:48:01  BASE  8.17908  353  10.2841  352  -0.1  100   -0.1  0     0     980.4    NA       0.0000   9999     0     0     0    
2019/11/11  06:49:01  BASE  7.98504  354  10.2547  354  -0.1  100   -0.1  1     0     980.4    NA       0.0000   9999     0     0     0    
2019/11/11  06:50:01  BASE  7.938    351  10.2547  354  -0.1  100   -0.1  1     0     980.4    NA       0.0000   9999     0     0     0    
2019/11/11  06:51:01  BASE  7.57932  353  9.91956  135  -0.1  100   -0.1  1     0     980.4    NA       0.0000   9999     0     0     0    
2019/11/11  06:52:01  BASE  7.69104  351  9.91956  135  -0.2  100   -0.2  1     0     980.4    NA       0.0000   9999     0     0     0    
2019/11/11  06:53:01  BASE  7.80864  352  9.91956  135  -0.2  100   -0.2  1     0     980.4    NA       0.0000   9999     0     0     0    
2019/11/11  06:54:01  BASE  7.89096  353  9.91956  135  -0.1  100   -0.1  1     0     980.4    NA       0.0000   9999     0     0     0    
2019/11/11  06:55:01  BASE  7.66164  354  9.3786   350  -0.1  100   -0.1  1     0     980.4    NA       0.0000   9999     0     0     0    
2019/11/11  06:56:01  BASE  7.60872  357  9.3786   350  -0.1  100   -0.1  1     0     980.3    NA       0.0000   9999     0     0     0    
2019/11/11  06:57:02  BASE  7.92036  353  9.31392  354  -0.1  100   -0.1  1     0     980.3    NA       0.0000   9999     0     0     0    
2019/11/11  06:58:01  BASE  7.96152  347  9.31392  354  -0.1  100   -0.1  1     0     980.3    NA       0.0000   9999     0     0     0    
2019/11/11  06:59:01  BASE  7.62636  348  9.31392  354  -0.1  100   -0.1  1     0     980.3    NA       0.0000   9999     0     0     0    
2019/11/11  07:00:01  BASE  7.15596  352  9.31392  354  -0.1  100   -0.1  1     0     980.3    NA       0.0000   9999     0     0     0    
2019/11/11  07:01:02  BASE  6.81492  355  9.31392  354  -0.1  100   -0.1  1     0     980.3    NA       0.0000   UP       9999  0     0    
2019/11/11  07:02:01  BASE  7.03836  356  9.31392  354  -0.2  100   -0.2  1     0     980.3    NA       0.0000   UP       9999  0     0    
2019/11/11  07:03:01  BASE  7.54992  355  8.95524  360  -0.2  100   -0.2  1     0     980.2    NA       0.0000   UP       9999  0     0    
2019/11/11  07:04:01  BASE  7.54992  357  8.89056  360  -0.2  100   -0.2  1     0     980.2    NA       0.0000   UP       9999  0     0    
2019/11/11  07:05:01  BASE  7.59108  358  8.89056  360  -0.2  100   -0.2  1     0     980.2    NA       0.0000   UP       9999  0     0    
2019/11/11  07:06:01  BASE  7.44408  350  8.80236  316  -0.2  100   -0.2  1     0     980.2    NA       0.0000   UP       9999  0     0    
2019/11/11  07:07:02  BASE  7.13244  349  8.56128  360  -0.2  100   -0.2  1     0     980.1    NA       0.0000   UP       9999  0     0    
2019/11/11  07:08:00  BASE  7.57932  357  8.86116  2    -0.2  100   -0.2  1     0     980.1    NA       0.0000   UP       9999  0     0    
2019/11/11  07:09:01  BASE  7.94976  352  8.86116  2    -0.2  100   -0.2  1     0     980.1    NA       0.0000   UP       9999  0     0    
2019/11/11  07:10:01  BASE  8.21436  354  9.16692  3    -0.2  100   -0.2  1     0     980.0    NA       0.0000   UP       9999  0     0    
2019/11/11  07:11:01  BASE  8.39076  1    9.3492   5    -0.2  100   -0.2  1     0     980.0    NA       0.0000   UP       9999  0     0    
2019/11/11  07:12:01  BASE  8.3496   2    9.3492   5    -0.2  100   -0.2  1     0     979.9    NA       0.0000   UP       9999  0     0    
2019/11/11  07:13:01  BASE  8.54952  4    9.3492   5    -0.2  100   -0.2  2     0     979.9    NA       0.0000   UP       9999  0     0    
2019/11/11  07:14:01  BASE  8.35548  2    9.3492   5    -0.2  100   -0.2  2     0     979.9    NA       0.0000   UP       9999  0     0    
2019/11/11  07:15:01  BASE  8.17908  1    9.3492   5    -0.2  100   -0.2  2     0     979.8    NA       0.0000   UP       9999  0     0    
2019/11/11  07:16:01  BASE  8.53776  4    9.77256  360  -0.2  100   -0.2  2     0     979.8    NA       0.0000   UP       9999  0     0    
2019/11/11  07:17:01  BASE  8.88468  5    9.77256  360  -0.2  100   -0.2  2     0     979.8    NA       0.0000   UP       9999  0     0    
2019/11/11  07:18:00  BASE  8.49072  6    9.77256  360  -0.3  100   -0.3  2     0     979.8    NA       0.0000   UP       9999  0     0    
2019/11/11  07:19:01  BASE  8.13204  6    9.77256  360  -0.3  100   -0.3  2     0     979.8    NA       0.0000   UP       9999  0     0    
2019/11/11  07:20:00  BASE  8.35548  6    9.77256  360  -0.3  100   -0.3  2     0     979.8    NA       0.0000   UP       9999  0     0    
2019/11/11  07:21:01  BASE  8.80824  7    9.77256  360  -0.3  100   -0.3  2     0     979.7    NA       0.2540   UP       9999  0     0    
2019/11/11  07:22:01  BASE  8.92584  6    9.77256  360  -0.2  100   -0.2  2     0     979.8    NA       0.0000   UP       9999  0     0    
2019/11/11  07:23:01  BASE  8.66124  5    9.77256  360  -0.2  100   -0.2  2     0     979.7    NA       0.0000   UP       9999  0     0    
2019/11/11  07:24:01  BASE  8.967    6    10.1018  4    -0.2  100   -0.2  2     0     979.7    NA       0.0000   UP       9999  0     0    
2019/11/11  07:25:01  BASE  9.2904   7    10.2547  5    -0.2  100   -0.2  2     0     979.6    NA       0.0000   UP       9999  0     0    
2019/11/11  07:26:01  BASE  9.06108  8    10.2547  5    -0.2  100   -0.2  2     0     979.6    NA       0.0000   UP       9999  0     0    
2019/11/11  07:27:01  BASE  8.7318   8    10.2547  5    -0.2  100   -0.2  2     0     979.6    NA       0.0000   UP       9999  0     0    
2019/11/11  07:28:01  BASE  8.57304  10   10.2547  5    -0.2  100   -0.2  2     0     979.6    NA       0.0000   UP       9999  0     0    
2019/11/11  07:29:01  BASE  8.40252  10   10.2547  5    -0.2  100   -0.2  2     0     979.6    NA       0.0000   UP       9999  0     0    
2019/11/11  07:30:01  BASE  8.1732   8    10.2547  5    -0.2  100   -0.2  2     0     979.5    NA       0.0000   UP       9999  0     0    
2019/11/11  07:31:02  BASE  8.37312  8    10.2547  5    -0.2  100   -0.2  3     0     979.5    NA       0.0000   UP       9999  0     0    
2019/11/11  07:32:01  BASE  8.42604  10   10.2547  5    -0.2  100   -0.2  3     0     979.5    NA       0.0000   UP       9999  0     0    
2019/11/11  07:33:02  BASE  8.16144  10   10.2547  5    -0.2  100   -0.2  3     0     979.4    NA       0.0000   UP       9999  0     0    
2019/11/11  07:34:00  BASE  8.37312  12   10.2547  5    -0.2  100   -0.2  3     0     979.3    NA       0.0000   UP       9000  0     0    
2019/11/11  07:35:01  BASE  8.59656  12   9.83136  4    -0.2  100   -0.2  3     0     979.3    NA       0.0000   -SN      9999  0     0    
2019/11/11  07:36:01  BASE  8.18496  10   9.83136  4    -0.1  100   -0.1  3     0     979.2    NA       0.0000   -SN      9999  0     0    
2019/11/11  07:37:00  BASE  7.88508  10   9.83136  4    -0.1  100   -0.1  3     0     979.2    NA       0.0000   -SN      9999  0     0    
2019/11/11  07:38:01  BASE  8.25552  11   9.83136  4    -0.1  100   -0.1  3     0     979.2    NA       0.0000   -SN      7000  0     0    
2019/11/11  07:39:01  BASE  8.68476  15   9.83136  4    -0.1  100   -0.1  4     0     979.1    NA       0.0000   -SN      BR    3800  0    
2019/11/11  07:40:01  BASE  8.62596  19   9.83136  4    -0.1  100   -0.1  4     0     979.1    NA       0.0000   -SN      BR    3200  0    
2019/11/11  07:41:01  BASE  8.57892  19   9.83136  4    -0.1  100   -0.1  4     0     979.1    NA       0.0000   -SN      BR    2600  0    
2019/11/11  07:42:01  BASE  8.89056  19   10.1959  15   -0.2  100   -0.2  5     0     979.0    NA       0.0000   -SN      BR    2500  0    
2019/11/11  07:43:01  BASE  9.13164  19   10.1959  15   -0.2  100   -0.2  5     0     979.0    NA       0.0000   -SN      BR    2000  0    
2019/11/11  07:44:01  BASE  9.22572  20   10.1959  15   -0.2  100   -0.2  6     0     978.9    NA       0.0000   -SN      BR    1500  0    
2019/11/11  07:45:00  BASE  9.59028  22   10.437   21   -0.1  100   -0.1  7     0     978.9    NA       0.0000   -SN      BR    1600  0    
2019/11/11  07:46:01  BASE  9.60204  22   10.5252  21   -0.1  100   -0.1  8     0     978.9    NA       0.0000   -SN      BR    1600  0    
2019/11/11  07:47:01  BASE  9.12576  22   10.5252  21   -0.1  100   -0.1  8     0     978.9    NA       0.0000   -SN      BR    1800  0    
2019/11/11  07:48:01  BASE  8.86116  22   10.5252  21   -0.1  100   -0.1  9     0     978.8    NA       0.0000   -SN      BR    1600  0    
2019/11/11  07:49:01  BASE  8.81412  22   10.5252  21   -0.1  100   -0.1  10    0     978.7    NA       0.0000   -SN      BR    1800  0    
2019/11/11  07:50:01  BASE  8.14968  23   10.5252  21   -0.0  100   -0.0  10    0     978.7    NA       0.0000   -SN      BR    1900  0    
2019/11/11  07:51:02  BASE  8.03208  22   10.5252  21   -0.0  100   -0.0  11    0     978.7    NA       0.0000   -SN      BR    1500  0    
2019/11/11  07:52:02  BASE  8.57892  23   10.5252  21   0.0   100   0.0   11    0     978.6    NA       0.0000   -SN      BR    1500  0    
2019/11/11  07:53:01  BASE  8.63184  24   10.5252  21   0.0   100   0.0   12    0     978.6    NA       0.0000   -SN      BR    1400  0    
2019/11/11  07:54:01  BASE  8.46132  25   10.5252  21   0.0   100   0.0   12    0     978.5    NA       0.0000   -SN      BR    0900  0    
2019/11/11  07:55:00  BASE  7.8498   24   10.5252  21   0.1   100   0.1   12    0     978.5    NA       0.0000   -SN      BR    1600  0    
2019/11/11  07:56:01  BASE  7.47936  23   9.70788  22   0.1   100   0.1   13    0     978.5    NA       0.0000   -SN      BR    1500  0    
2019/11/11  07:57:01  BASE  7.90272  24   9.70788  22   0.1   100   0.1   13    0     978.5    NA       0.0000   -SN      BR    1900  0    
2019/11/11  07:58:01  BASE  8.085    24   9.70788  22   0.1   100   0.1   13    0     978.5    NA       0.0000   -SN      BR    2100  0    
2019/11/11  07:59:02  BASE  7.36176  25   9.4668   16   0.1   100   0.1   14    0     978.5    NA       0.0000   -SN      BR    2100  0    
2019/11/11  08:00:01  BASE  7.4382   25   9.4668   16   0.2   100   0.2   16    0     978.4    NA       0.0000   -SN      BR    2300  260  
2019/11/11  08:01:01  BASE  8.10264  25   9.31392  25   0.2   100   0.2   17    0     978.4    NA       0.0000   -SN      BR    2200  230  
2019/11/11  08:02:01  BASE  8.26728  23   9.31392  25   0.2   100   0.2   19    0     978.4    NA       0.0000   -SN      BR    2200  260  
2019/11/11  08:03:01  BASE  7.98504  21   9.31392  25   0.3   100   0.3   20    0     978.4    NA       0.0000   -SN      BR    3800  330  
2019/11/11  08:04:01  BASE  7.80864  20   9.31392  25   0.3   100   0.3   22    0     978.4    NA       0.0000   -SN      BR    4900  330  
2019/11/11  08:05:01  BASE  7.86744  19   9.31392  25   0.3   100   0.3   23    0     978.3    NA       0.0000   -SN      BR    4900  300  
2019/11/11  08:06:01  BASE  7.66752  19   9.31392  25   0.4   100   0.4   23    0     978.3    NA       0.0000   -SN      BR    7000  300  
2019/11/11  08:07:01  BASE  7.54992  18   9.31392  25   0.4   100   0.4   24    0     978.3    NA       0.0000   -SN      BR    5000  300  
2019/11/11  08:08:00  BASE  7.57344  19   9.31392  25   0.4   100   0.4   24    0     978.3    NA       0.0000   -SN      BR    5000  260  
2019/11/11  08:09:01  BASE  8.03796  21   9.77256  22   0.5   100   0.5   24    0     978.2    NA       0.0000   -SN      BR    3300  260  
2019/11/11  08:10:01  BASE  8.27904  21   9.77256  22   0.5   100   0.5   24    0     978.3    NA       0.0000   -SN      BR    3200  300  
2019/11/11  08:11:02  BASE  7.70868  17   9.77256  22   0.5   100   0.5   24    0     978.3    NA       0.0000   -SN      BR    4100  300  
2019/11/11  08:12:01  BASE  7.33824  15   9.77256  22   0.5   100   0.5   24    0     978.3    NA       0.0000   -SN      BR    9999  0    
2019/11/11  08:13:02  BASE  7.3794   17   9.77256  22   0.5   100   0.5   24    0     978.3    NA       0.0000   -SN      BR    6000  260  
2019/11/11  08:14:02  BASE  7.54992  17   9.77256  22   0.5   100   0.5   23    0     978.2    NA       0.0000   -SN      BR    5000  260  
2019/11/11  08:15:02  BASE  7.9674   17   9.77256  22   0.4   100   0.4   23    0     978.2    NA       0.0000   -SN      BR    3400  300  
2019/11/11  08:16:02  BASE  8.25552  19   9.77256  22   0.4   100   0.4   23    0     978.2    NA       0.0000   -SN      BR    2500  300  
2019/11/11  08:17:01  BASE  7.86156  17   9.77256  22   0.4   100   0.4   23    0     978.2    NA       0.0000   -SN      BR    3300  300  
2019/11/11  08:18:01  BASE  7.59108  16   9.77256  22   0.4   100   0.4   23    0     978.2    NA       0.0000   -SN      BR    3400  260  
2019/11/11  08:19:01  BASE  7.50288  15   9.13752  14   0.4   100   0.4   24    0     978.2    NA       0.0000   -SN      BR    8000  260  
2019/11/11  08:20:02  BASE  7.13244  14   9.13752  14   0.4   100   0.4   25    0     978.2    NA       0.0000   -SN      BR    6000  230  
2019/11/11  08:21:02  BASE  6.96192  15   9.13752  14   0.4   100   0.4   27    0     978.2    NA       0.0000   -SN      BR    3200  230  
2019/11/11  08:22:02  BASE  6.75024  15   9.01404  19   0.4   100   0.4   27    0     978.2    NA       0.0000   -SN      BR    3200  230  
2019/11/11  08:23:02  BASE  6.57972  15   9.01404  19   0.4   100   0.4   28    0     978.1    NA       0.0000   -SN      BR    3100  230  
2019/11/11  08:24:02  BASE  6.71496  15   9.01404  19   0.4   100   0.4   29    0     978.1    NA       0.0000   -SN      BR    6000  230  
2019/11/11  08:25:02  BASE  6.52092  14   8.67888  18   0.4   100   0.4   30    0     978.1    NA       0.0000   -SN      BR    5000  0    
2019/11/11  08:26:02  BASE  6.69144  19   8.2908   14   0.4   100   0.4   32    0     978.0    NA       0.0000   -SN      BR    3100  0    
2019/11/11  08:27:01  BASE  7.1442   22   8.2908   14   0.4   100   0.4   34    0     977.9    NA       0.0000   -SN      BR    2200  0    
2019/11/11  08:28:01  BASE  6.99132  21   8.22612  6    0.5   100   0.5   35    0     977.9    NA       0.0000   -SN      BR    2200  0    
2019/11/11  08:29:02  BASE  6.5856   20   8.04384  24   0.5   100   0.5   37    0     977.9    NA       0.0000   -SN      BR    2200  0    
2019/11/11  08:30:02  BASE  6.7032   19   8.04384  24   0.5   100   0.5   38    0     977.9    NA       0.0000   -SN      BR    2200  0    
2019/11/11  08:31:02  BASE  7.16184  18   8.04384  24   0.5   100   0.5   39    0     977.8    NA       0.0000   -SN      BR    2100  0    
2019/11/11  08:32:02  BASE  6.9972   18   8.04384  24   0.5   100   0.5   39    0     977.8    NA       0.0000   -SN      BR    2300  0    
2019/11/11  08:33:02  BASE  7.2912   20   9.13752  23   0.4   100   0.4   40    0     977.8    NA       0.0000   -SN      BR    2500  0    
2019/11/11  08:34:02  BASE  8.1144   23   9.13752  23   0.4   100   0.4   40    0     977.7    NA       0.0000   -SN      BR    2200  0    
2019/11/11  08:35:02  BASE  7.87332  23   9.13752  23   0.4   100   0.4   41    0     977.7    NA       0.0000   -SN      BR    2000  0    
2019/11/11  08:36:02  BASE  7.4382   22   9.13752  23   0.4   100   0.4   42    0     977.7    NA       0.0000   -SN      BR    2200  0    
2019/11/11  08:37:02  BASE  7.92036  23   9.13752  23   0.4   100   0.4   43    0     977.6    NA       0.0000   -SN      BR    2100  0    
2019/11/11  08:38:02  BASE  8.24376  23   9.13752  23   0.4   100   0.4   45    0     977.6    NA       0.0000   -SN      BR    1900  0    
2019/11/11  08:39:01  BASE  7.98504  22   9.13752  23   0.4   100   0.4   47    0     977.6    NA       0.0000   -SN      BR    2000  0    
2019/11/11  08:40:02  BASE  7.92036  23   9.13752  23   0.4   100   0.4   50    0     977.6    NA       0.0000   -SN      BR    1800  0    
2019/11/11  08:41:02  BASE  8.12028  23   9.13752  23   0.4   100   0.4   52    0     977.5    NA       0.0000   -SN      BR    2200  0    
2019/11/11  08:42:02  BASE  8.86704  23   10.2841  23   0.4   100   0.4   54    0     977.4    NA       0.0000   -SN      BR    2000  0    
2019/11/11  08:43:02  BASE  9.56676  23   10.5252  23   0.4   100   0.4   56    0     977.4    NA       0.0000   -SN      BR    2000  0    
2019/11/11  08:44:01  BASE  9.81372  23   10.5252  23   0.4   100   0.4   57    0     977.3    NA       0.0000   -SN      BR    1800  0    
2019/11/11  08:45:02  BASE  9.49032  22   10.5252  23   0.4   100   0.4   59    0     977.4    NA       0.0000   -SN      BR    1700  0    
2019/11/11  08:46:01  BASE  9.29628  23   10.5252  23   0.4   100   0.4   61    0     977.3    NA       0.0000   -SN      BR    1500  0    
2019/11/11  08:47:02  BASE  9.7314   23   10.5252  23   0.4   100   0.4   64    0     977.3    NA       0.0000   -SN      BR    1300  0    
2019/11/11  08:48:01  BASE  9.63732  22   10.5252  23   0.4   100   0.4   68    0     977.3    NA       0.0000   -SN      BR    2000  0    
2019/11/11  08:49:01  BASE  9.83136  21   10.6781  20   0.4   100   0.4   72    0     977.3    NA       0.0000   -SN      BR    2200  0    
2019/11/11  08:50:01  BASE  9.9078   23   10.6781  20   0.4   100   0.4   75    0     977.2    NA       0.0000   -SN      BR    2200  0    
2019/11/11  08:51:01  BASE  9.3492   23   10.6781  20   0.4   100   0.4   75    0     977.2    NA       0.0000   -SN      BR    2200  0    
2019/11/11  08:52:01  BASE  9.36684  22   10.6781  20   0.4   100   0.4   73    0     977.2    NA       0.0000   -SN      BR    2100  0    
2019/11/11  08:53:01  BASE  9.72552  21   10.6781  20   0.4   100   0.4   71    0     977.2    NA       0.0000   -SN      BR    2300  0    
2019/11/11  08:54:02  BASE  9.47268  22   10.6781  20   0.4   100   0.4   69    0     977.2    NA       0.0000   -SN      BR    2300  0    
2019/11/11  08:55:01  BASE  8.93172  23   10.6781  20   0.4   100   0.4   67    0     977.1    NA       0.0000   -SN      BR    2100  0    
2019/11/11  08:56:01  BASE  8.80236  21   10.6781  20   0.4   100   0.4   67    0     977.1    NA       0.0000   -SN      BR    2500  0    
2019/11/11  08:57:02  BASE  8.96112  22   10.6781  20   0.4   100   0.4   67    0     977.1    NA       0.0000   -SN      BR    3300  0    
2019/11/11  08:58:01  BASE  9.30216  22   10.6781  20   0.4   100   0.4   67    0     977.1    NA       0.0000   -SN      BR    3700  0    
2019/11/11  08:59:01  BASE  9.23748  20   10.4076  22   0.5   100   0.5   68    0     977.1    NA       0.0000   -SN      BR    5000  330  
2019/11/11  09:00:02  BASE  9.20808  20   10.4076  22   0.5   100   0.5   71    0     977.0    NA       0.0000   -SN      BR    5000  330  
2019/11/11  09:01:01  BASE  9.17868  20   10.4076  22   0.5   100   0.5   75    0     977.0    NA       0.0000   -SN      BR    6000  0    
2019/11/11  09:02:01  BASE  9.27864  19   10.3135  19   0.6   100   0.6   78    0     977.0    NA       0.0000   -SN      BR    3000  300  
2019/11/11  09:03:02  BASE  9.79608  19   10.3429  22   0.6   100   0.6   80    0     976.9    NA       0.0000   -SN      BR    4600  330  
2019/11/11  09:04:01  BASE  9.69612  19   10.3429  22   0.6   100   0.6   80    0     976.9    NA       0.0000   -SN      BR    5000  330  
2019/11/11  09:05:02  BASE  9.42564  19   10.3429  22   0.7   100   0.7   79    0     976.8    NA       0.0000   -SN      BR    6000  360  
2019/11/11  09:06:01  BASE  9.43152  20   10.6193  24   0.7   100   0.7   77    0     976.8    NA       0.0000   -SN      BR    5000  330  
2019/11/11  09:07:01  BASE  9.86076  22   10.7369  27   0.7   100   0.7   76    0     976.7    NA       0.0000   -SN      BR    4500  300  
2019/11/11  09:08:01  BASE  9.996    22   10.7369  27   0.8   100   0.8   75    0     976.7    NA       0.0000   -SN      BR    4600  260  
2019/11/11  09:09:01  BASE  9.61968  19   10.7369  27   0.8   100   0.8   74    0     976.7    NA       0.0000   -SN      BR    3500  300  
2019/11/11  09:10:01  BASE  9.39624  17   10.7369  27   0.8   100   0.8   74    0     976.7    NA       0.0000   -SN      BR    4200  260  
2019/11/11  09:11:01  BASE  9.261    17   10.7369  27   0.8   100   0.8   73    0     976.7    NA       0.0000   -SN      BR    4300  260  
2019/11/11  09:12:01  BASE  8.97876  17   10.7369  27   0.8   100   0.8   72    0     976.7    NA       0.0000   -SN      BR    4400  0    
2019/11/11  09:13:01  BASE  8.93172  17   10.7369  27   0.8   100   0.8   70    0     976.6    NA       0.0000   -SN      BR    5000  300  
2019/11/11  09:14:01  BASE  8.84352  15   10.7369  27   0.7   100   0.7   68    0     976.6    NA       0.0000   -SN      BR    4400  300  
2019/11/11  09:15:01  BASE  8.87292  14   10.7369  27   0.7   100   0.7   67    0     976.6    NA       0.0000   -SN      BR    3600  260  
2019/11/11  09:16:01  BASE  9.13752  15   10.7369  27   0.7   100   0.7   67    0     976.6    NA       0.0000   -SN      BR    3400  260  
2019/11/11  09:17:01  BASE  8.6142   16   10.5252  21   0.7   100   0.7   66    0     976.6    NA       0.0000   -SN      BR    3800  300  
2019/11/11  09:18:01  BASE  8.83176  16   10.5546  15   0.7   100   0.7   66    0     976.5    NA       0.0000   -SN      BR    6000  260  
2019/11/11  09:19:01  BASE  9.4374   15   10.5546  15   0.7   100   0.7   65    0     976.5    NA       0.0000   -SN      BR    4400  260  
2019/11/11  09:20:02  BASE  9.22572  14   10.5546  15   0.6   100   0.6   65    0     976.5    NA       0.0000   -SN      BR    5000  0    
2019/11/11  09:21:01  BASE  8.97876  14   10.5546  15   0.6   100   0.6   65    0     976.5    NA       0.0000   -SN      BR    7000  260  
2019/11/11  09:22:01  BASE  8.9082   14   10.5546  15   0.6   100   0.6   66    0     976.5    NA       0.0000   -SN      BR    6000  260  
2019/11/11  09:23:01  BASE  9.16692  15   10.5546  15   0.6   100   0.6   66    0     976.4    NA       0.0000   -SN      BR    5000  230  
2019/11/11  09:24:01  BASE  9.2316   16   10.5546  15   0.6   100   0.6   66    0     976.4    NA       0.0000   -SN      BR    4200  230  
2019/11/11  09:25:01  BASE  9.34332  14   10.5546  15   0.6   100   0.6   66    0     976.4    NA       0.0000   -SN      BR    3200  230  
2019/11/11  09:26:01  BASE  9.41388  14   10.5546  15   0.6   100   0.6   65    0     976.4    NA       0.0000   -SN      BR    5000  0    
2019/11/11  09:27:01  BASE  8.967    14   10.5546  15   0.6   100   0.6   64    0     976.4    NA       0.0000   -SN      BR    7000  230  
2019/11/11  09:28:01  BASE  9.04932  15   10.3135  13   0.6   100   0.6   63    0     976.3    NA       0.0000   -SN      BR    9999  260  
2019/11/11  09:29:01  BASE  9.01404  15   10.1018  16   0.6   100   0.6   63    0     976.3    NA       0.0000   -SN      BR    5000  230  
2019/11/11  09:30:01  BASE  8.49072  9    10.1018  16   0.6   100   0.6   63    0     976.3    NA       0.0000   -SN      BR    9000  260  
2019/11/11  09:31:02  BASE  8.20848  7    10.1018  16   0.6   100   0.6   64    0     976.2    NA       0.0000   -SN      BR    9999  0    
2019/11/11  09:32:01  BASE  8.085    10   10.1018  16   0.6   100   0.6   64    0     976.2    NA       0.0000   -SN      BR    9999  0    
2019/11/11  09:33:01  BASE  8.085    12   10.1018  16   0.6   100   0.6   65    0     976.2    NA       0.0000   -SN      BR    9999  300  
2019/11/11  09:34:01  BASE  8.2026   11   10.1018  16   0.6   100   0.6   65    0     976.2    NA       0.0000   -SN      BR    9999  0    
2019/11/11  09:35:01  BASE  8.25552  11   10.1018  16   0.6   100   0.6   65    0     976.2    NA       0.0000   -SN      BR    9999  300  
2019/11/11  09:36:01  BASE  7.8204   13   9.83136  17   0.6   100   0.6   66    0     976.2    NA       0.0000   -SN      9999  260   0    
2019/11/11  09:37:02  BASE  7.87332  13   9.83136  17   0.6   100   0.6   66    0     976.2    NA       0.0000   -SN      9999  300   0    
2019/11/11  09:38:01  BASE  8.24376  11   9.4668   10   0.6   100   0.6   66    0     976.2    NA       0.0000   -SN      9000  0     0    
2019/11/11  09:39:01  BASE  8.40252  11   9.31392  8    0.6   100   0.6   66    0     976.1    NA       0.0000   -SN      9999  260   0    
2019/11/11  09:40:01  BASE  8.31432  12   9.31392  8    0.6   100   0.6   66    0     976.1    NA       0.0000   -SN      9999  260   0    
2019/11/11  09:41:01  BASE  8.14968  12   9.31392  8    0.6   100   0.6   66    0     976.0    NA       0.0000   -SN      9000  300   0    
2019/11/11  09:42:01  BASE  8.22612  13   9.31392  18   0.6   100   0.6   67    0     976.0    NA       0.0000   -SN      7000  230   0    
2019/11/11  09:43:01  BASE  7.96152  11   9.31392  18   0.6   100   0.6   67    0     976.0    NA       0.0000   -SN      BR    3800  230  
2019/11/11  09:44:01  BASE  7.91448  10   9.31392  18   0.6   100   0.6   68    0     976.0    NA       0.0000   -SN      BR    4700  0    
2019/11/11  09:45:01  BASE  8.04972  13   9.31392  18   0.6   100   0.6   69    0     976.0    NA       0.0000   -SN      BR    5000  0    
2019/11/11  09:46:01  BASE  7.92624  13   9.31392  18   0.6   100   0.6   71    0     976.0    NA       0.0000   -SN      BR    5000  0    
2019/11/11  09:47:01  BASE  8.32608  12   9.3492   14   0.6   100   0.6   72    0     976.0    NA       0.0000   -SN      BR    5000  230  
2019/11/11  09:48:01  BASE  8.51424  12   9.3492   14   0.6   100   0.6   74    0     976.0    NA       0.0000   -SN      BR    5000  0    
2019/11/11  09:49:01  BASE  8.41428  11   9.3492   14   0.6   100   0.6   76    0     976.0    NA       0.0000   -SN      BR    9999  0    
2019/11/11  09:50:01  BASE  8.37312  11   9.3492   14   0.6   100   0.6   78    0     976.0    NA       0.0000   -SN      BR    9999  300  
2019/11/11  09:51:02  BASE  8.14968  12   9.3492   14   0.6   100   0.6   80    0     976.0    NA       0.0000   -SN      BR    9999  260  
2019/11/11  09:52:01  BASE  8.17908  12   9.3492   14   0.7   100   0.7   82    0     975.9    NA       0.0000   -SN      BR    9999  260  
2019/11/11  09:53:01  BASE  8.22024  12   9.3492   14   0.7   100   0.7   84    0     975.9    NA       0.0000   -SN      BR    9000  300  
2019/11/11  09:54:02  BASE  8.1144   11   9.3492   14   0.7   100   0.7   87    0     975.9    NA       0.0000   -SN      BR    9999  0    
2019/11/11  09:55:01  BASE  8.00268  10   9.3492   14   0.7   100   0.7   90    0     975.9    NA       0.0000   -SN      BR    9999  0    
2019/11/11  09:56:01  BASE  7.72632  7    9.3492   14   0.7   100   0.7   93    0     975.9    NA       0.0000   -SN      BR    9999  920  
2019/11/11  09:57:01  BASE  7.45584  5    9.10224  17   0.8   100   0.8   95    0     975.9    NA       0.0000   -SN      9999  330   0    
2019/11/11  09:58:01  BASE  7.92624  8    9.3492   12   0.8   100   0.8   95    0     975.9    NA       0.0000   -SN      9999  0     0    
2019/11/11  09:59:01  BASE  8.38488  8    9.3492   12   0.8   100   0.8   95    0     975.9    NA       0.0000   -SN      9999  330   0    
2019/11/11  10:00:01  BASE  8.45544  9    9.56088  13   0.8   100   0.8   94    0     975.9    NA       0.0000   -SN      9999  330   0    
2019/11/11  10:01:01  BASE  8.42016  10   9.56088  13   0.8   100   0.8   92    0     975.9    NA       0.0000   -SN      8000  300   21420
2019/11/11  10:02:01  BASE  8.01444  9    9.56088  13   0.8   100   0.8   91    0     975.9    NA       0.0000   -SN      9999  300   0    
2019/11/11  10:03:01  BASE  7.74396  9    9.56088  13   0.8   100   0.8   89    0     975.9    NA       0.0000   -SN      9999  230   0    
2019/11/11  10:04:01  BASE  7.63224  7    9.56088  13   0.7   100   0.7   88    0     975.9    NA       0.0000   -SN      8000  230   0    
2019/11/11  10:05:01  BASE  7.80864  6    9.56088  13   0.7   100   0.7   89    0     975.9    NA       0.0000   -SN      7000  230   0    
2019/11/11  10:06:01  BASE  8.06148  6    9.56088  13   0.7   100   0.7   90    0     975.9    NA       0.0000   -SN      9999  230   0    
2019/11/11  10:07:01  BASE  8.232    7    9.56088  13   0.7   100   0.7   93    0     976.0    NA       0.0000   -SN      9999  230   0    
2019/11/11  10:08:01  BASE  8.41428  6    9.56088  13   0.7   100   0.7   96    0     976.0    NA       0.0000   -SN      9999  260   0    
2019/11/11  10:09:01  BASE  8.91996  5    9.91956  4    0.7   100   0.7   96    0     975.9    NA       0.0000   -SN      9999  260   0    
2019/11/11  10:10:01  BASE  9.261    4    9.91956  4    0.7   100   0.7   98    0     976.0    NA       0.0000   -SN      9999  0     0    
2019/11/11  10:11:01  BASE  8.85528  2    9.91956  4    0.7   100   0.7   98    0     976.0    NA       0.0000   -SN      9999  0     0    
2019/11/11  10:12:01  BASE  8.56716  2    9.91956  4    0.6   100   0.6   99    0     976.0    NA       0.0000   -SN      9999  0     0    
2019/11/11  10:13:01  BASE  8.47308  359  9.91956  4    0.6   100   0.6   101   0     976.0    NA       0.0000   -SN      9999  0     0    
2019/11/11  10:14:01  BASE  8.53776  352  9.98424  308  0.6   100   0.6   103   0     976.0    NA       0.0000   -SN      9999  0     0    
2019/11/11  10:15:01  BASE  8.48484  355  9.98424  308  0.5   100   0.5   105   0     975.9    NA       0.0000   9999     0     0     0    
2019/11/11  10:16:00  BASE  8.46132  359  9.98424  308  0.5   100   0.5   106   0     975.9    NA       0.0000   9999     0     0     0    
2019/11/11  10:17:01  BASE  8.86116  355  9.98424  308  0.5   100   0.5   106   0     975.9    NA       0.0000   9999     0     0     0    
2019/11/11  10:18:01  BASE  9.01404  356  9.98424  308  0.5   100   0.5   104   0     975.9    NA       0.0000   9999     0     0     0    
2019/11/11  10:19:00  BASE  8.81412  1    9.98424  308  0.5   100   0.5   102   0     975.9    NA       0.0000   9999     0     0     0    
2019/11/11  10:20:01  BASE  8.87292  9    9.98424  308  0.4   100   0.4   100   0     975.9    NA       0.0000   9999     0     0     0    
2019/11/11  10:21:00  BASE  9.19044  4    10.4664  4    0.4   100   0.4   99    0     975.8    NA       0.0000   9999     0     0     0    
2019/11/11  10:22:01  BASE  9.5844   357  10.7075  1    0.4   100   0.4   99    0     975.8    NA       0.0000   9999     0     0     0    
2019/11/11  10:23:01  BASE  10.1842  3    10.8604  360  0.4   100   0.4   99    0     975.8    NA       0.0000   9999     0     0     0    
2019/11/11  10:24:01  BASE  10.0607  360  10.8604  360  0.4   100   0.4   99    0     975.8    NA       0.0000   9999     0     0     0    
2019/11/11  10:25:01  BASE  9.8784   1    10.8604  360  0.4   100   0.4   100   0     975.8    NA       0.0000   9999     0     0     0    
2019/11/11  10:26:01  BASE  9.9078   4    10.8604  360  0.4   100   0.4   100   0     975.8    NA       0.0000   5000     0     0     0    
2019/11/11  10:27:01  BASE  9.57264  3    10.8604  360  0.4   100   0.4   100   0     975.8    NA       0.0000   -SN      9999  0     0    
2019/11/11  10:28:01  BASE  9.56088  3    10.8604  360  0.4   100   0.4   99    0     975.8    NA       0.0000   -SN      8000  0     0    
2019/11/11  10:29:01  BASE  9.81372  2    10.8604  360  0.3   100   0.3   97    0     975.8    NA       0.0000   -SN      9999  0     0    
2019/11/11  10:30:01  BASE  9.9078   3    10.8604  360  0.3   100   0.3   96    0     975.8    NA       0.0000   -SN      9999  0     0    
2019/11/11  10:31:02  BASE  9.86664  3    10.8604  360  0.3   100   0.3   97    0     975.8    NA       0.0000   -SN      9000  0     0    
2019/11/11  10:32:02  BASE  9.93132  4    10.8604  360  0.3   100   0.3   98    0     975.7    NA       0.0000   -SN      9999  0     0    
2019/11/11  10:33:01  BASE  9.88428  6    10.6487  354  0.3   100   0.3   101   0     975.6    NA       0.0000   -SN      BR    3600  0    
2019/11/11  10:34:01  BASE  9.74316  5    10.6487  354  0.3   100   0.3   105   0     975.7    NA       0.0000   -SN      BR    3000  0    
2019/11/11  10:35:01  BASE  9.6432   5    10.6487  4    0.3   100   0.3   108   0     975.6    NA       0.0000   -SN      BR    4300  0    
2019/11/11  10:36:01  BASE  9.64908  6    10.6487  4    0.2   100   0.2   113   0     975.6    NA       0.0000   -SN      BR    9000  0    
2019/11/11  10:37:01  BASE  9.83724  7    10.8604  8    0.2   100   0.2   117   0     975.6    NA       0.0000   -SN      BR    9000  0    
2019/11/11  10:38:01  BASE  9.7608   7    10.8604  8    0.2   100   0.2   121   0     975.6    NA       0.2540   -SN      BR    3800  0    
2019/11/11  10:39:01  BASE  10.0666  7    11.6483  9    0.3   100   0.3   122   0     975.6    NA       0.0000   -SN      BR    9999  0    
2019/11/11  10:40:01  BASE  10.878   6    11.6483  9    0.3   100   0.3   121   0     975.5    NA       0.0000   -SN      BR    9000  0    
2019/11/11  10:41:01  BASE  11.1132  5    11.6483  9    0.3   100   0.3   120   0     975.5    NA       0.0000   -SN      BR    3400  0    
2019/11/11  10:42:00  BASE  10.9662  5    11.6483  9    0.3   100   0.3   117   0     975.5    NA       0.0000   -SN      BR    8000  0    
2019/11/11  10:43:02  BASE  10.6781  6    11.6483  9    0.3   100   0.3   111   0     975.5    NA       0.0000   -SN      BR    9000  0    
2019/11/11  10:44:01  BASE  10.5899  5    11.6483  9    0.3   100   0.3   103   0     975.5    NA       0.0000   -SN      BR    4000  0    
2019/11/11  10:45:01  BASE  10.3547  4    11.6483  9    0.2   100   0.2   98    0     975.5    NA       0.0000   -SN      BR    6000  0    
2019/11/11  10:46:01  BASE  10.0724  4    11.6483  9    0.2   100   0.2   95    0     975.6    NA       0.0000   -SN      BR    3600  0    
2019/11/11  10:47:01  BASE  10.1665  3    11.6483  9    0.2   100   0.2   94    0     975.6    NA       0.0000   -SN      BR    8000  0    
2019/11/11  10:48:02  BASE  10.337   4    11.6483  9    0.2   100   0.2   95    0     975.5    NA       0.0000   -SN      BR    7000  0    
2019/11/11  10:49:01  BASE  9.74316  5    11.5836  360  0.2   100   0.2   98    0     975.6    NA       0.0000   -SN      BR    9000  0    
2019/11/11  10:50:01  BASE  9.40212  5    11.5836  360  0.1   100   0.1   98    0     975.5    NA       0.0000   -SN      BR    9999  0    
2019/11/11  10:51:02  BASE  9.83724  4    11.5836  360  0.1   100   0.1   95    0     975.5    NA       0.0000   -SN      BR    9000  0    
2019/11/11  10:52:01  BASE  10.4664  6    11.7071  8    0.1   100   0.1   93    0     975.4    NA       0.0000   -SN      BR    9000  0    
2019/11/11  10:53:01  BASE  10.7898  7    11.7071  8    0.1   100   0.1   94    0     975.4    NA       0.0000   -SN      BR    3800  0    
2019/11/11  10:54:01  BASE  9.7608   6    11.7071  8    0.1   100   0.1   98    0     975.5    NA       0.0000   -SN      BR    4200  0    
2019/11/11  10:55:01  BASE  9.3786   4    11.7071  8    0.2   100   0.2   105   0     975.4    NA       0.0000   -SN      BR    9999  0    
2019/11/11  10:56:01  BASE  9.72552  4    11.7071  8    0.2   100   0.2   112   0     975.4    NA       0.0000   -SN      BR    9999  0    
2019/11/11  10:57:01  BASE  9.5256   5    11.7071  8    0.2   100   0.2   118   0     975.4    NA       0.0000   -SN      BR    9999  0    
2019/11/11  10:58:01  BASE  9.35508  3    11.7071  8    0.2   100   0.2   124   0     975.4    NA       0.0000   -SN      BR    9999  0    
2019/11/11  10:59:02  BASE  9.2904   2    11.7071  8    0.2   100   0.2   128   0     975.4    NA       0.0000   -SN      BR    9999  0    
2019/11/11  11:00:02  BASE  9.60792  358  11.7071  8    0.2   100   0.2   130   0     975.4    NA       0.0000   -SN      BR    9999  0    
2019/11/11  11:01:01  BASE  10.0195  353  11.7071  8    0.3   100   0.3   131   0     975.4    NA       0.0000   -SN      BR    9999  230  
2019/11/11  11:02:01  BASE  9.56088  358  11.5836  10   0.3   100   0.3   132   0     975.4    NA       0.0000   -SN      BR    9999  300  
2019/11/11  11:03:01  BASE  8.57304  1    10.7663  3    0.3   100   0.3   134   0     975.4    NA       0.0000   -SN      9999  260   0    
2019/11/11  11:04:02  BASE  8.14968  351  10.7663  3    0.4   100   0.4   137   0     975.4    NA       0.0000   -SN      9999  330   0    
2019/11/11  11:05:01  BASE  7.98504  350  10.7663  3    0.4   100   0.4   140   0     975.4    NA       0.0000   -SN      9999  260   0    
2019/11/11  11:06:01  BASE  8.2908   356  10.7663  3    0.4   100   0.4   143   0     975.4    NA       0.0000   9999     260   0     0    
2019/11/11  11:07:01  BASE  9.114    351  10.7663  3    0.4   100   0.4   147   0     975.4    NA       0.0000   9999     0     0     0    
2019/11/11  11:08:01  BASE  9.5844   349  10.7663  3    0.4   100   0.4   149   0     975.4    NA       0.0000   9999     230   0     0    
2019/11/11  11:09:01  BASE  10.0078  358  11.0132  354  0.4   100   0.4   153   0     975.3    NA       0.0000   9999     0     0     0    
2019/11/11  11:10:01  BASE  9.8784   0    11.0132  354  0.4   100   0.4   153   0     975.4    NA       0.0000   9999     22770 0     0    
2019/11/11  11:11:01  BASE  9.4374   360  11.0132  354  0.4   100   0.4   154   0     975.4    NA       0.0000   9999     230   0     0    
2019/11/11  11:12:01  BASE  9.41388  360  11.0132  354  0.4   100   0.4   158   0     975.4    NA       0.0000   9999     0     0     0    
2019/11/11  11:13:01  BASE  9.17868  357  11.0132  354  0.4   100   0.4   166   0     975.4    NA       0.0000   9999     0     0     0    
2019/11/11  11:14:01  BASE  8.52012  356  11.0132  354  0.4   100   0.4   173   0     975.4    NA       0.0000   9999     0     0     0    
2019/11/11  11:15:01  BASE  8.085    356  11.0132  354  0.4   100   0.4   181   0     975.4    NA       0.0000   9999     0     0     0    
2019/11/11  11:16:01  BASE  8.37312  354  11.0132  354  0.4   100   0.4   187   0     975.4    NA       0.0000   9999     0     0     0    
2019/11/11  11:17:01  BASE  8.68476  355  11.0132  354  0.4   100   0.4   192   0     975.4    NA       0.0000   9999     0     0     0    
2019/11/11  11:18:01  BASE  8.99052  351  11.0132  354  0.4   100   0.4   193   0     975.4    NA       0.0000   9999     0     0     0    
2019/11/11  11:19:01  BASE  8.967    350  10.4958  350  0.4   100   0.4   196   0     975.4    NA       0.0000   9999     0     0     0    
2019/11/11  11:20:02  BASE  9.09636  353  11.2543  353  0.4   100   0.4   198   0     975.4    NA       0.0000   9999     0     0     0    
2019/11/11  11:21:01  BASE  9.33744  350  11.2543  353  0.4   100   0.4   198   0     975.4    NA       0.0000   9999     0     0     0    
2019/11/11  11:22:01  BASE  8.8788   350  11.2543  353  0.4   100   0.4   198   0     975.4    NA       0.0000   9999     0     0     0    
2019/11/11  11:23:02  BASE  9.0552   350  11.2543  353  0.4   100   0.4   199   0     975.4    NA       0.0000   9999     0     0     0    
2019/11/11  11:24:01  BASE  9.44916  349  11.2543  353  0.4   100   0.4   200   0     975.4    NA       0.0000   9999     0     0     0    
2019/11/11  11:25:01  BASE  9.29628  348  11.2543  353  0.4   100   0.4   202   0     975.4    NA       0.0000   9999     0     0     0    
2019/11/11  11:26:02  BASE  9.06108  349  11.2543  353  0.4   100   0.4   209   0     975.4    NA       0.0000   9999     0     0     0    
2019/11/11  11:27:02  BASE  8.85528  347  11.2543  353  0.3   100   0.3   217   0     975.4    NA       0.0000   9999     0     0     0    
2019/11/11  11:28:01  BASE  8.4966   345  11.2543  353  0.3   100   0.3   220   0     975.4    NA       0.0000   9999     0     0     0    
2019/11/11  11:29:02  BASE  7.84392  347  11.2543  353  0.3   100   0.3   219   0     975.4    NA       0.0000   9999     0     0     0    
2019/11/11  11:30:01  BASE  7.94388  351  10.7663  349  0.3   100   0.3   219   0     975.4    NA       0.0000   9999     300   0     0    
2019/11/11  11:31:02  BASE  8.64948  351  10.7663  349  0.3   100   0.3   220   0     975.4    NA       0.0000   9999     300   0     0    
2019/11/11  11:32:01  BASE  9.01992  350  10.7663  349  0.3   100   0.3   222   0     975.4    NA       0.0000   9999     300   0     0    
2019/11/11  11:33:01  BASE  9.10224  354  10.2253  343  0.3   100   0.3   226   0     975.3    NA       0.0000   9999     330   0     0    
2019/11/11  11:34:01  BASE  8.96112  353  10.1959  347  0.3   100   0.3   230   0     975.4    NA       0.0000   9999     330   0     0    
2019/11/11  11:35:01  BASE  9.98424  351  11.8247  352  0.3   100   0.3   234   0     975.3    NA       0.0000   9999     330   0     0    
2019/11/11  11:36:01  BASE  10.684   346  11.8894  349  0.4   100   0.4   238   0     975.3    NA       0.0000   9999     330   0     0    
2019/11/11  11:37:02  BASE  9.64908  344  11.8894  349  0.4   100   0.4   243   0     975.4    NA       0.0000   9999     330   0     0    
2019/11/11  11:38:01  BASE  9.68436  346  11.8894  349  0.4   100   0.4   247   0     975.3    NA       0.0000   9999     360   15910 0    
2019/11/11  11:39:01  BASE  9.7608   346  11.8894  349  0.4   100   0.4   250   0     975.4    NA       0.0000   9999     330   0     0    
2019/11/11  11:40:00  BASE  8.73768  349  11.8894  349  0.4   100   0.4   255   0     975.4    NA       0.0000   9999     330   0     0    
2019/11/11  11:41:01  BASE  8.56716  349  11.8894  349  0.4   100   0.4   263   0     975.4    NA       0.0000   9999     300   0     0    
2019/11/11  11:42:00  BASE  8.51424  349  11.8894  349  0.4   100   0.4   271   0     975.4    NA       0.0000   9999     330   0     0    
2019/11/11  11:43:01  BASE  8.39664  347  11.8894  349  0.4   100   0.4   275   0     975.4    NA       0.0000   9999     330   0     0    
2019/11/11  11:44:01  BASE  8.60832  346  11.8894  349  0.4   100   0.4   273   0     975.4    NA       0.0000   9999     330   0     0    
2019/11/11  11:45:01  BASE  9.00816  345  11.8894  349  0.3   100   0.3   268   0     975.4    NA       0.0000   9999     330   0     0    
2019/11/11  11:46:01  BASE  9.29628  342  11.86    339  0.3   100   0.3   259   0     975.4    NA       0.0000   9999     330   0     0    
2019/11/11  11:47:01  BASE  9.408    342  11.86    339  0.3   100   0.3   252   0     975.4    NA       0.0000   9999     300   0     0    
2019/11/11  11:48:02  BASE  9.79608  339  10.7663  340  0.3   100   0.3   244   0     975.4    NA       0.0000   9999     300   22770 0    
2019/11/11  11:49:01  BASE  9.65496  337  10.7663  340  0.3   100   0.3   237   0     975.4    NA       0.0000   9999     300   0     0    
2019/11/11  11:50:00  BASE  8.97876  337  10.7663  340  0.2   100   0.2   229   0     975.4    NA       0.0000   9999     260   0     0    
2019/11/11  11:51:01  BASE  9.24924  339  10.9192  338  0.2   100   0.2   223   0     975.4    NA       0.0000   9999     300   0     0    
2019/11/11  11:52:01  BASE  9.44916  338  10.9192  338  0.2   100   0.2   217   0     975.4    NA       0.0000   -SN      9999  260   0    
2019/11/11  11:53:01  BASE  9.17868  335  10.9192  338  0.2   100   0.2   215   0     975.4    NA       0.0000   -SN      9999  260   0    
2019/11/11  11:54:01  BASE  9.31392  331  10.9192  338  0.1   100   0.1   214   0     975.4    NA       0.0000   -SN      9999  260   0    
2019/11/11  11:55:01  BASE  9.1728   333  10.9192  338  0.1   100   0.1   214   0     975.4    NA       0.0000   -SN      9999  260   0    
2019/11/11  11:56:02  BASE  9.26688  337  10.9192  338  0.1   100   0.1   213   0     975.4    NA       0.0000   -SN      9999  300   0    
2019/11/11  11:57:01  BASE  9.33156  338  10.9192  338  0.1   100   0.1   214   0     975.4    NA       0.0000   -SN      9999  300   0    
2019/11/11  11:58:01  BASE  8.57304  338  10.9192  338  0.1   100   0.1   214   0     975.4    NA       0.0000   -SN      9999  300   0    
2019/11/11  11:59:01  BASE  8.4672   335  10.9192  338  0.1   100   0.1   214   0     975.4    NA       0.0000   -SN      9999  260   0    
2019/11/11  12:00:02  BASE  9.19044  335  10.9192  338  0.1   100   0.1   213   0     975.4    NA       0.0000   -SN      9999  260   0    
2019/11/11  12:01:02  BASE  8.97876  337  10.437   330  0.0   100   0.0   212   0     975.4    NA       0.0000   -SN      9999  230   0    
2019/11/11  12:02:01  BASE  8.49072  335  10.437   330  0.0   100   0.0   212   0     975.4    NA       0.0000   -SN      9999  230   0    
2019/11/11  12:03:01  BASE  9.24336  332  11.5248  330  -0.0  100   -0.0  212   0     975.4    NA       0.0000   -SN      9999  0     0    
2019/11/11  12:04:02  BASE  9.6726   334  11.5248  330  -0.0  100   -0.0  212   0     975.4    NA       0.0000   -SN      9999  0     0    
2019/11/11  12:05:01  BASE  8.79648  335  11.5248  330  -0.1  100   -0.1  211   0     975.4    NA       0.0000   -SN      9999  0     0    
2019/11/11  12:06:01  BASE  8.49072  337  11.5248  330  -0.1  100   -0.1  210   0     975.4    NA       0.0000   -SN      9999  0     0    
2019/11/11  12:07:01  BASE  9.06696  339  11.5248  330  -0.1  100   -0.1  207   0     975.4    NA       0.0000   -SN      9999  0     0    
2019/11/11  12:08:01  BASE  9.12576  336  11.5248  330  -0.1  100   -0.1  202   0     975.4    NA       0.0000   -SN      9999  0     0    
2019/11/11  12:09:01  BASE  9.06696  336  11.5248  330  -0.1  100   -0.1  195   0     975.4    NA       0.0000   9999     0     0     0    
2019/11/11  12:10:01  BASE  9.54324  338  11.5248  330  -0.1  100   -0.1  188   0     975.4    NA       0.0000   9999     0     0     0    
2019/11/11  12:11:02  BASE  9.73728  338  11.5248  330  -0.1  100   -0.1  181   0     975.4    NA       0.0000   9999     0     0     0    
2019/11/11  12:12:01  BASE  9.54324  339  11.5248  330  -0.2  100   -0.2  170   0     975.4    NA       0.0000   9999     0     0     0    
2019/11/11  12:13:01  BASE  9.44328  339  10.5252  343  -0.2  100   -0.2  163   0     975.4    NA       0.0000   9999     0     0     0    
2019/11/11  12:14:01  BASE  9.20808  338  10.5252  343  -0.2  100   -0.2  153   0     975.4    NA       0.0000   -SN      8000  0     0    
2019/11/11  12:15:02  BASE  8.78472  337  10.5252  343  -0.2  100   -0.2  146   0     975.4    NA       0.0000   -SN      8000  0     0    
2019/11/11  12:16:01  BASE  8.57892  336  10.5252  343  -0.2  100   -0.2  140   0     975.4    NA       0.0000   -SN      8000  0     0    
2019/11/11  12:17:01  BASE  8.59068  335  10.5252  343  -0.2  100   -0.2  138   0     975.4    NA       0.0000   -SN      BR    9000  0    
2019/11/11  12:18:01  BASE  8.48484  335  10.5252  343  -0.3  100   -0.3  138   0     975.4    NA       0.0000   -SN      BR    8000  0    
2019/11/11  12:19:01  BASE  8.50248  335  10.5252  343  -0.3  100   -0.3  140   0     975.4    NA       0.0000   -SN      BR    7000  0    
2019/11/11  12:20:01  BASE  8.87292  334  10.5252  343  -0.3  100   -0.3  143   0     975.4    NA       0.0000   -SN      BR    8000  0    
2019/11/11  12:21:01  BASE  9.01992  333  10.5252  343  -0.3  100   -0.3  145   0     975.4    NA       0.0000   -SN      BR    6000  0    
2019/11/11  12:22:01  BASE  8.62596  334  10.1018  333  -0.3  100   -0.3  147   0     975.4    NA       0.0000   -SN      BR    5000  0    
2019/11/11  12:23:01  BASE  8.232    335  10.1018  333  -0.3  100   -0.3  150   0     975.4    NA       0.0000   -SN      BR    7000  0    
2019/11/11  12:24:01  BASE  8.48484  336  10.1018  333  -0.3  100   -0.3  158   0     975.4    NA       0.0000   -SN      BR    8000  22180
2019/11/11  12:25:01  BASE  8.77884  337  10.1018  333  -0.3  100   -0.3  168   0     975.4    NA       0.0000   -SN      BR    8000  0    
2019/11/11  12:26:01  BASE  8.56716  336  10.1018  333  -0.4  100   -0.4  179   0     975.4    NA       0.0000   -SN      BR    6000  0    
2019/11/11  12:27:01  BASE  8.56716  337  10.1018  333  -0.4  100   -0.4  191   0     975.4    NA       0.0000   -SN      BR    6000  0    
2019/11/11  12:28:01  BASE  8.48484  336  10.1018  333  -0.4  100   -0.4  201   0     975.4    NA       0.0000   -SN      BR    6000  0    
2019/11/11  12:29:01  BASE  8.1732   334  10.1018  333  -0.4  100   -0.4  206   0     975.4    NA       0.0000   -SN      BR    4300  0    
2019/11/11  12:30:01  BASE  8.30256  335  10.1018  333  -0.4  100   -0.4  208   0     975.4    NA       0.0000   -SN      BR    7000  23690
2019/11/11  12:31:02  BASE  8.49072  335  9.5256   336  -0.4  100   -0.4  206   0     975.4    NA       0.0000   -SN      BR    7000  0    
2019/11/11  12:32:01  BASE  8.59068  335  9.5256   336  -0.4  100   -0.4  202   0     975.4    NA       0.0000   -SN      BR    9000  0    
2019/11/11  12:33:01  BASE  8.56128  336  9.5256   336  -0.4  100   -0.4  197   0     975.4    NA       0.0000   -SN      BR    9000  0    
2019/11/11  12:34:01  BASE  8.72004  337  9.80196  335  -0.4  100   -0.4  192   0     975.4    NA       0.0000   -SN      BR    9000  0    
2019/11/11  12:35:01  BASE  8.96112  338  9.80196  335  -0.4  100   -0.4  189   0     975.4    NA       0.2540   -SN      BR    9999  0    
2019/11/11  12:36:01  BASE  8.80824  339  9.80196  335  -0.4  100   -0.4  189   0     975.4    NA       0.0000   -SN      BR    9000  0    
2019/11/11  12:37:01  BASE  8.79648  340  9.80196  335  -0.4  100   -0.4  190   0     975.4    NA       0.0000   -SN      BR    9000  0    
2019/11/11  12:38:00  BASE  8.80824  339  9.80196  335  -0.4  100   -0.4  189   0     975.4    NA       0.0000   -SN      BR    9000  0    
2019/11/11  12:39:01  BASE  8.64948  337  9.80196  335  -0.4  100   -0.4  188   0     975.4    NA       0.0000   -SN      BR    9000  0    
2019/11/11  12:40:01  BASE  8.72592  337  10.0724  337  -0.4  100   -0.4  186   0     975.4    NA       0.0000   -SN      BR    9000  0    
2019/11/11  12:41:01  BASE  8.526    336  10.0724  337  -0.4  100   -0.4  184   0     975.4    NA       0.0000   -SN      BR    8000  0    
2019/11/11  12:42:01  BASE  8.46132  336  10.0724  337  -0.4  100   -0.4  184   0     975.4    NA       0.0000   -SN      BR    8000  0    
2019/11/11  12:43:00  BASE  8.50836  337  10.0724  337  -0.4  100   -0.4  182   0     975.4    NA       0.0000   -SN      BR    7000  0    
2019/11/11  12:44:01  BASE  8.33196  335  10.0724  337  -0.4  100   -0.4  180   0     975.4    NA       0.0000   -SN      BR    6000  0    
2019/11/11  12:45:01  BASE  8.57304  333  10.0724  337  -0.5  100   -0.5  181   0     975.4    NA       0.0000   -SN      BR    4800  0    
2019/11/11  12:46:01  BASE  8.35548  334  10.0724  337  -0.5  100   -0.5  183   0     975.4    NA       0.0000   -SN      BR    4300  0    
2019/11/11  12:47:01  BASE  7.94976  336  10.0724  337  -0.5  100   -0.5  190   0     975.4    NA       0.0000   -SN      BR    5000  0    
2019/11/11  12:48:00  BASE  8.0556   336  10.0724  337  -0.5  100   -0.5  199   0     975.4    NA       0.0000   -SN      BR    6000  0    
2019/11/11  12:49:01  BASE  8.13792  335  10.0724  337  -0.5  100   -0.5  203   0     975.4    NA       0.0000   -SN      BR    7000  0    
2019/11/11  12:50:01  BASE  8.12028  336  9.83136  332  -0.5  100   -0.5  203   0     975.4    NA       0.0000   -SN      BR    6000  0    
2019/11/11  12:51:01  BASE  8.21436  338  9.83136  332  -0.5  100   -0.5  203   0     975.4    NA       0.2540   -SN      BR    7000  0    
2019/11/11  12:52:01  BASE  8.09676  337  9.83136  332  -0.5  100   -0.5  205   0     975.5    NA       0.0000   -SN      BR    8000  0    
2019/11/11  12:53:01  BASE  7.72632  335  9.83136  332  -0.5  100   -0.5  205   0     975.5    NA       0.0000   -SN      BR    7000  0    
2019/11/11  12:54:02  BASE  7.90272  335  9.83136  332  -0.5  100   -0.5  207   0     975.6    NA       0.0000   -SN      BR    6000  0    
2019/11/11  12:55:01  BASE  7.89096  335  9.13752  330  -0.5  100   -0.5  213   0     975.6    NA       0.0000   -SN      BR    6000  0    
2019/11/11  12:56:00  BASE  7.68516  334  9.13752  330  -0.5  100   -0.5  219   0     975.6    NA       0.0000   -SN      BR    8000  0    
2019/11/11  12:57:01  BASE  7.73808  333  9.13752  330  -0.5  100   -0.5  222   0     975.6    NA       0.0000   -SN      BR    9000  0    
2019/11/11  12:58:01  BASE  7.94976  332  9.13752  330  -0.5  100   -0.5  228   0     975.6    NA       0.0000   -SN      BR    8000  0    
2019/11/11  12:59:01  BASE  8.0556   333  9.13752  330  -0.5  100   -0.5  233   0     975.6    NA       0.0000   -SN      BR    8000  0    
2019/11/11  13:00:01  BASE  8.085    336  9.13752  330  -0.5  100   -0.5  236   0     975.6    NA       0.0000   -SN      BR    8000  0    
2019/11/11  13:01:01  BASE  8.34372  337  9.13752  330  -0.5  100   -0.5  237   0     975.6    NA       0.0000   -SN      BR    9000  0    
2019/11/11  13:02:01  BASE  8.52012  336  9.28452  337  -0.5  100   -0.5  238   0     975.6    NA       0.0000   -SN      BR    9000  0    
2019/11/11  13:03:01  BASE  8.39076  336  9.28452  337  -0.5  100   -0.5  240   0     975.6    NA       0.0000   -SN      BR    8000  0    
2019/11/11  13:04:02  BASE  8.23788  336  9.28452  337  -0.4  100   -0.4  240   0     975.6    NA       0.0000   -SN      BR    8000  0    
2019/11/11  13:05:00  BASE  8.24376  336  9.28452  337  -0.4  100   -0.4  241   0     975.6    NA       0.0000   -SN      BR    8000  0    
2019/11/11  13:06:01  BASE  8.2908   336  9.28452  334  -0.4  100   -0.4  241   0     975.6    NA       0.0000   -SN      BR    8000  0    
2019/11/11  13:07:01  BASE  8.4084   336  9.4374   331  -0.4  100   -0.4  242   0     975.6    NA       0.2540   -SN      BR    8000  0    
2019/11/11  13:08:01  BASE  8.44956  336  9.4374   331  -0.4  100   -0.4  245   0     975.6    NA       0.0000   -SN      BR    8000  0    
2019/11/11  13:09:00  BASE  8.70828  337  9.70788  339  -0.4  100   -0.4  249   0     975.6    NA       0.0000   -SN      BR    8000  0    
2019/11/11  13:10:00  BASE  8.80236  337  9.70788  339  -0.4  100   -0.4  255   0     975.6    NA       0.0000   -SN      BR    8000  0    
2019/11/11  13:11:01  BASE  8.82     337  9.70788  339  -0.4  100   -0.4  261   0     975.6    NA       0.0000   -SN      BR    9000  0    
2019/11/11  13:12:01  BASE  8.99052  337  9.70788  339  -0.4  100   -0.4  267   0     975.6    NA       0.0000   -SN      BR    9999  0    
2019/11/11  13:13:01  BASE  8.77884  338  9.70788  339  -0.4  100   -0.4  273   0     975.6    NA       0.0000   -SN      BR    9999  0    
2019/11/11  13:14:01  BASE  8.63772  337  9.70788  337  -0.4  100   -0.4  277   0     975.6    NA       0.0000   -SN      BR    9999  0    
2019/11/11  13:15:00  BASE  8.673    336  9.70788  337  -0.4  100   -0.4  278   0     975.6    NA       0.2540   -SN      BR    9000  0    
2019/11/11  13:16:02  BASE  8.53188  338  9.70788  337  -0.4  100   -0.4  278   0     975.6    NA       0.0000   -SN      BR    9999  0    
2019/11/11  13:17:01  BASE  8.62596  338  9.77256  338  -0.4  100   -0.4  276   0     975.6    NA       0.0000   BR       9999  0     0    
2019/11/11  13:18:01  BASE  8.9082   337  9.77256  338  -0.4  100   -0.4  274   0     975.6    NA       0.0000   BR       9000  0     0    
2019/11/11  13:19:01  BASE  9.13164  337  9.98424  341  -0.4  100   -0.4  278   0     975.6    NA       0.0000   BR       9999  0     0    
2019/11/11  13:20:01  BASE  9.114    338  9.98424  341  -0.4  100   -0.4  281   0     975.6    NA       0.0000   BR       8000  0     0    
2019/11/11  13:21:01  BASE  8.8788   338  9.98424  341  -0.3  100   -0.3  284   0     975.6    NA       0.0000   BR       8000  0     0    
2019/11/11  13:22:01  BASE  8.91996  338  9.98424  341  -0.3  100   -0.3  289   0     975.6    NA       0.2540   BR       8000  0     0    
2019/11/11  13:23:01  BASE  9.11988  339  9.98424  341  -0.3  100   -0.3  292   0     975.6    NA       0.0000   -SN      BR    8000  0    
2019/11/11  13:24:01  BASE  8.97288  340  9.98424  341  -0.3  100   -0.3  294   0     975.6    NA       0.0000   -SN      BR    9000  0    
2019/11/11  13:25:01  BASE  8.94348  340  9.98424  341  -0.3  100   -0.3  297   0     975.6    NA       0.0000   -SN      BR    9999  21850
2019/11/11  13:26:02  BASE  8.89056  339  9.98424  341  -0.3  100   -0.3  302   0     975.6    NA       0.0000   -SN      BR    9999  0    
2019/11/11  13:27:02  BASE  8.93172  339  9.98424  341  -0.3  100   -0.3  308   0     975.6    NA       0.0000   -SN      BR    9999  0    
2019/11/11  13:28:01  BASE  9.36096  339  9.98424  341  -0.3  100   -0.3  315   0     975.6    NA       0.2540   -SN      BR    9999  0    
2019/11/11  13:29:02  BASE  9.261    338  9.86076  338  -0.3  100   -0.3  319   0     975.6    NA       0.0000   -SN      BR    9999  0    
2019/11/11  13:30:01  BASE  9.0846   338  9.86076  338  -0.3  100   -0.3  317   0     975.6    NA       0.0000   -SN      9999  0     0    
2019/11/11  13:31:03  BASE  9.15516  337  10.2547  337  -0.2  100   -0.2  313   0     975.6    NA       0.0000   -SN      9999  23100 0    
2019/11/11  13:32:02  BASE  8.97876  337  10.2547  337  -0.2  100   -0.2  308   0     975.6    NA       0.0000   -SN      9999  0     0    
2019/11/11  13:33:01  BASE  9.1434   337  10.2547  337  -0.2  100   -0.2  304   0     975.6    NA       0.0000   -SN      9999  0     0    
2019/11/11  13:34:01  BASE  9.30804  337  10.2547  337  -0.2  100   -0.2  303   0     975.6    NA       0.0000   9999     0     0     0    
2019/11/11  13:35:01  BASE  9.54324  339  10.437   337  -0.2  100   -0.2  306   0     975.6    NA       0.0000   9999     22610 0     0    
2019/11/11  13:36:01  BASE  9.66084  338  10.437   337  -0.2  100   -0.2  311   0     975.6    NA       0.0000   9999     0     0     0    
2019/11/11  13:37:01  BASE  9.28452  336  10.437   337  -0.2  100   -0.2  317   0     975.6    NA       0.2540   9999     0     0     0    
2019/11/11  13:38:01  BASE  9.2316   337  10.437   337  -0.2  100   -0.2  326   0     975.6    NA       0.0000   9999     24150 0     0    
2019/11/11  13:39:01  BASE  9.41388  338  10.437   337  -0.2  100   -0.2  335   0     975.6    NA       0.0000   9999     0     0     0    
2019/11/11  13:40:01  BASE  9.25512  338  10.437   337  -0.2  100   -0.2  345   0     975.6    NA       0.0000   9999     0     0     0    
2019/11/11  13:41:01  BASE  9.24336  337  10.437   337  -0.2  100   -0.2  353   0     975.6    NA       0.0000   9999     0     0     0    
2019/11/11  13:42:01  BASE  9.16104  335  10.437   337  -0.2  100   -0.2  361   0     975.6    NA       0.0000   9999     0     0     0    
2019/11/11  13:43:01  BASE  8.91408  333  10.437   337  -0.2  100   -0.2  370   0     975.6    NA       0.0000   9999     0     0     0    
2019/11/11  13:44:01  BASE  8.57304  333  10.437   337  -0.2  100   -0.2  381   0     975.6    NA       0.0000   9999     0     0     0    
2019/11/11  13:45:01  BASE  8.57892  335  10.3782  341  -0.2  100   -0.2  392   0     975.6    NA       0.0000   9999     0     0     0    
2019/11/11  13:46:01  BASE  9.09048  337  10.3782  341  -0.1  100   -0.1  399   0     975.5    NA       0.2540   9999     0     0     0    
2019/11/11  13:47:02  BASE  9.555    334  10.9192  331  -0.1  100   -0.1  405   0     975.6    NA       0.0000   9999     0     0     0    
2019/11/11  13:48:01  BASE  10.2312  331  11.3719  328  -0.1  100   -0.1  406   0     975.5    NA       0.0000   9999     0     0     0    
2019/11/11  13:49:01  BASE  10.1018  333  11.3719  328  -0.1  100   -0.1  407   0     975.5    NA       0.2540   9999     0     0     0    
2019/11/11  13:50:00  BASE  9.96072  334  11.3719  328  -0.1  100   -0.1  410   0     975.5    NA       0.0000   9999     0     0     0    
2019/11/11  13:51:01  BASE  10.2782  333  11.3719  328  -0.1  100   -0.1  408   0     975.5    NA       0.0000   9999     0     0     0    
2019/11/11  13:52:01  BASE  10.1959  332  11.3719  328  -0.0  100   -0.0  402   0     975.5    NA       0.0000   9999     0     0     0    
2019/11/11  13:53:01  BASE  10.143   332  11.3719  328  -0.0  100   -0.0  394   0     975.4    NA       0.0000   9999     0     0     0    
2019/11/11  13:54:01  BASE  9.80196  332  11.3719  328  -0.0  100   -0.0  393   0     975.5    NA       0.0000   9999     0     0     0    
2019/11/11  13:55:01  BASE  9.86664  331  11.3719  328  0.0   100   0.0   387   0     975.5    NA       0.2540   9999     0     0     0    
2019/11/11  13:56:02  BASE  10.4311  332  11.3719  328  0.0   100   0.0   389   0     975.5    NA       0.0000   9999     0     0     0    
2019/11/11  13:57:01  BASE  10.2253  332  11.3719  328  0.0   100   0.0   390   0     975.4    NA       0.0000   9999     0     0     0    
2019/11/11  13:58:01  BASE  9.90192  333  11.2837  328  0.0   100   0.0   384   0     975.5    NA       0.0000   9999     0     0     0    
2019/11/11  13:59:02  BASE  9.91956  333  11.2837  328  0.0   100   0.0   388   0     975.5    NA       0.0000   9999     0     0     0    
2019/11/11  14:00:02  BASE  10.0783  333  11.2837  328  0.0   100   0.0   388   0     975.5    NA       0.0000   9999     0     0     0    
2019/11/11  14:01:01  BASE  10.3488  332  11.2837  328  0.0   100   0.0   382   0     975.5    NA       0.0000   9999     0     0     0    
2019/11/11  14:02:00  BASE  10.4488  331  11.2837  328  0.0   100   0.0   373   0     975.6    NA       0.2540   9999     230   0     0    
2019/11/11  14:03:00  BASE  10.2018  332  11.2543  331  0.0   100   0.0   370   0     975.6    NA       0.0000   9999     0     0     0    
2019/11/11  14:04:00  BASE  10.3958  333  11.7953  333  0.0   100   0.0   365   0     975.6    NA       0.0000   9999     0     0     0    
2019/11/11  14:05:01  BASE  10.4076  334  11.7953  333  0.0   100   0.0   369   0     975.6    NA       0.0000   9999     0     0     0    
2019/11/11  14:06:01  BASE  9.98424  334  11.7953  333  0.0   100   0.0   364   0     975.5    NA       0.0000   9999     0     0     0    
2019/11/11  14:07:01  BASE  9.62556  333  11.7953  333  0.0   100   0.0   358   0     975.6    NA       0.0000   9999     0     0     0    
2019/11/11  14:08:01  BASE  9.8196   332  11.7953  333  0.0   100   0.0   357   0     975.6    NA       0.0000   9999     0     0     0    
2019/11/11  14:09:01  BASE  10.3018  331  11.7953  333  0.0   100   0.0   359   0     975.6    NA       0.2540   9999     0     0     0    
2019/11/11  14:10:00  BASE  9.996    331  11.7953  333  0.0   100   0.0   351   0     975.6    NA       0.0000   9999     0     0     0    
2019/11/11  14:11:00  BASE  9.84312  332  11.7953  333  0.0   100   0.0   352   0     975.6    NA       0.0000   9999     260   0     0    
2019/11/11  14:12:01  BASE  10.0136  332  11.7953  333  0.0   100   0.0   347   0     975.6    NA       0.0000   9999     330   0     0    
2019/11/11  14:13:01  BASE  10.0666  333  11.7953  333  0.0   100   0.0   346   0     975.6    NA       0.0000   9999     330   0     0    
2019/11/11  14:14:00  BASE  9.94308  333  11.2249  327  0.0   100   0.0   346   0     975.6    NA       0.0000   9999     330   0     0    
2019/11/11  14:15:01  BASE  9.77256  332  11.2249  327  0.0   100   0.0   346   0     975.6    NA       0.0000   9999     330   0     0    
2019/11/11  14:16:00  BASE  10.1136  333  11.3719  332  0.0   100   0.0   351   0     975.6    NA       0.2540   9999     300   0     0    
2019/11/11  14:17:01  BASE  10.3547  333  11.3719  332  0.0   100   0.0   354   0     975.6    NA       0.0000   9999     300   0     0    
2019/11/11  14:18:01  BASE  10.0724  331  11.3719  332  0.0   100   0.0   353   0     975.6    NA       0.0000   9999     230   20010 0    
2019/11/11  14:19:01  BASE  10.19    333  11.3719  332  0.0   100   0.0   357   0     975.6    NA       0.0000   9999     0     0     0    
2019/11/11  14:20:01  BASE  10.29    333  11.3719  332  0.0   100   0.0   360   0     975.6    NA       0.0000   9999     0     0     0    
2019/11/11  14:21:00  BASE  10.3076  332  11.466   336  0.0   100   0.0   370   0     975.6    NA       0.0000   9999     0     0     0    
2019/11/11  14:22:01  BASE  10.3664  331  11.466   336  0.0   100   0.0   371   0     975.6    NA       0.0000   7000     0     0     0    
2019/11/11  14:23:01  BASE  9.76668  329  11.466   336  0.0   100   0.0   369   0     975.6    NA       0.0000   8000     0     0     0    
2019/11/11  14:24:01  BASE  9.8196   331  11.466   336  0.0   100   0.0   369   0     975.6    NA       0.0000   9000     0     0     0    
2019/11/11  14:25:01  BASE  10.337   331  11.466   336  0.0   100   0.0   369   0     975.6    NA       0.2540   9000     0     0     0    
2019/11/11  14:26:01  BASE  10.0842  331  11.466   336  0.0   100   0.0   368   0     975.6    NA       0.0000   BR       9000  0     0    
2019/11/11  14:27:01  BASE  10.1136  332  11.5542  328  0.0   100   0.0   376   0     975.6    NA       0.0000   BR       9999  0     0    
2019/11/11  14:28:01  BASE  10.0666  331  11.5542  328  0.0   100   0.0   373   0     975.6    NA       0.0000   BR       8000  24480 0    
2019/11/11  14:29:01  BASE  9.91956  332  11.5542  328  0.0   100   0.0   370   0     975.6    NA       0.0000   UP       BR    6000  0    
2019/11/11  14:30:01  BASE  9.91368  332  11.5542  328  0.1   100   0.1   366   0     975.6    NA       0.0000   UP       BR    8000  0    
2019/11/11  14:31:02  BASE  9.89604  332  11.5542  328  0.1   100   0.1   358   0     975.6    NA       0.0000   UP       BR    9999  0    
2019/11/11  14:32:01  BASE  9.81372  332  11.5542  328  0.1   100   0.1   363   0     975.6    NA       0.0000   UP       BR    9999  0    
2019/11/11  14:33:01  BASE  9.90192  332  11.5542  328  0.1   100   0.1   366   0     975.6    NA       0.2540   UP       BR    9999  0    
2019/11/11  14:34:01  BASE  10.3135  332  11.5542  328  0.1   100   0.1   371   0     975.6    NA       0.0000   UP       BR    9999  0    
2019/11/11  14:35:01  BASE  9.98424  333  11.5542  328  0.1   100   0.1   375   0     975.6    NA       0.0000   UP       BR    9999  0    
2019/11/11  14:36:01  BASE  9.67848  334  11.5542  328  0.1   100   0.1   375   0     975.6    NA       0.0000   UP       BR    9999  0    
2019/11/11  14:37:02  BASE  9.78432  333  11.3719  333  0.1   100   0.1   376   0     975.6    NA       0.0000   UP       BR    9000  0    
2019/11/11  14:38:01  BASE  9.69024  332  11.3719  333  0.1   100   0.1   375   0     975.6    NA       0.0000   UP       BR    9000  0    
2019/11/11  14:39:01  BASE  9.69024  332  11.3719  333  0.1   100   0.1   371   0     975.6    NA       0.0000   UP       BR    7000  18700
2019/11/11  14:40:01  BASE  9.97836  332  11.3719  333  0.1   100   0.1   365   0     975.6    NA       0.0000   BR       9999  0     0    
2019/11/11  14:41:01  BASE  10.0842  333  11.1014  334  0.1   100   0.1   365   0     975.6    NA       0.2540   BR       9999  0     0    
2019/11/11  14:42:01  BASE  9.9078   333  11.1014  334  0.1   100   0.1   356   0     975.6    NA       0.0000   BR       9000  0     0    
2019/11/11  14:43:01  BASE  10.0078  332  11.1308  330  0.1   100   0.1   345   0     975.6    NA       0.0000   UP       BR    7000  0    
2019/11/11  14:44:01  BASE  10.5605  332  11.2249  332  0.1   100   0.1   342   0     975.6    NA       0.0000   UP       BR    9000  0    
2019/11/11  14:45:02  BASE  10.4605  333  11.2249  332  0.1   100   0.1   336   0     975.6    NA       0.0000   UP       BR    9000  0    
2019/11/11  14:46:01  BASE  10.1959  333  11.4013  334  0.1   100   0.1   334   0     975.6    NA       0.0000   UP       BR    9000  0    
2019/11/11  14:47:01  BASE  10.5252  332  11.5542  327  0.1   100   0.1   336   0     975.6    NA       0.0000   UP       BR    8000  0    
2019/11/11  14:48:01  BASE  10.5193  330  11.5836  329  0.1   100   0.1   333   0     975.6    NA       0.0000   UP       BR    9000  0    
2019/11/11  14:49:01  BASE  10.2782  331  11.5836  329  0.1   100   0.1   334   0     975.6    NA       0.0000   BR       9000  0     0    
2019/11/11  14:50:01  BASE  10.2488  332  11.5836  329  0.0   100   0.0   334   0     975.6    NA       0.2540   BR       9000  0     0    
2019/11/11  14:51:02  BASE  10.6604  332  11.7659  330  0.0   100   0.0   328   0     975.7    NA       0.0000   BR       8000  0     0    
2019/11/11  14:52:01  BASE  10.8486  332  11.7659  330  0.0   100   0.0   330   0     975.6    NA       0.0000   BR       8000  0     0    
2019/11/11  14:53:01  BASE  10.2959  333  11.7659  330  0.0   100   0.0   327   0     975.7    NA       0.0000   BR       9000  21790 0    
2019/11/11  14:54:01  BASE  10.4017  332  11.7659  330  0.0   100   0.0   324   0     975.7    NA       0.0000   BR       9000  0     0    
2019/11/11  14:55:01  BASE  10.9897  333  11.8247  333  0.0   100   0.0   321   0     975.7    NA       0.0000   BR       9999  0     0    
2019/11/11  14:56:01  BASE  10.9897  332  11.86    331  0.0   100   0.0   315   0     975.7    NA       0.0000   BR       9999  0     0    
2019/11/11  14:57:01  BASE  10.7251  333  11.86    331  0.0   100   0.0   312   0     975.8    NA       0.0000   BR       9999  0     0    
2019/11/11  14:58:00  BASE  10.6075  333  12.101   332  0.0   100   0.0   313   0     975.8    NA       0.0000   BR       9999  0     0    
2019/11/11  14:59:01  BASE  10.5252  333  12.101   332  0.0   100   0.0   309   0     975.8    NA       0.0000   BR       9999  21690 22900
2019/11/11  15:00:01  BASE  10.7957  332  12.101   332  0.0   100   0.0   315   0     975.8    NA       0.0000   BR       9999  0     0    
2019/11/11  15:01:00  BASE  10.8016  332  12.101   332  0.0   100   0.0   323   0     975.8    NA       0.0000   BR       9999  0     0    
2019/11/11  15:02:00  BASE  10.4311  334  12.101   332  0.0   100   0.0   318   0     975.8    NA       0.0000   BR       9999  0     0    
2019/11/11  15:03:01  BASE  10.5722  334  12.101   332  0.0   100   0.0   320   0     975.8    NA       0.0000   9999     0     0     0    
2019/11/11  15:04:01  BASE  10.6193  332  12.101   332  0.0   100   0.0   320   0     975.9    NA       0.2540   9999     0     0     0    
2019/11/11  15:05:00  BASE  10.337   333  12.101   332  0.0   100   0.0   321   0     975.9    NA       0.0000   9999     0     0     0    
2019/11/11  15:06:01  BASE  10.3429  334  12.101   332  0.0   100   0.0   325   0     975.9    NA       0.0000   9999     0     0     0    
2019/11/11  15:07:01  BASE  10.7251  332  12.101   332  0.0   100   0.0   326   0     975.8    NA       0.0000   9999     0     0     0    
2019/11/11  15:08:01  BASE  10.9486  331  11.9188  327  0.0   100   0.0   330   0     975.8    NA       0.0000   9999     0     0     0    
2019/11/11  15:09:01  BASE  10.8956  333  11.9188  327  0.0   100   0.0   333   0     975.9    NA       0.0000   9999     0     0     0    
2019/11/11  15:10:00  BASE  10.684   334  11.9188  327  0.0   100   0.0   333   0     975.9    NA       0.0000   9000     0     0     0    
2019/11/11  15:11:01  BASE  10.484   332  11.9188  327  0.0   100   0.0   334   0     975.9    NA       0.0000   9999     0     0     0    
2019/11/11  15:12:00  BASE  10.7016  331  11.9188  327  0.0   100   0.0   336   0     975.9    NA       0.0000   9999     0     0     0    
2019/11/11  15:13:01  BASE  10.9192  330  11.7659  334  0.0   100   0.0   334   0     975.9    NA       0.0000   BR       9000  0     0    
2019/11/11  15:14:01  BASE  10.5546  330  11.7659  334  0.0   100   0.0   331   0     975.9    NA       0.0000   BR       7000  0     0    
2019/11/11  15:15:01  BASE  10.5546  330  11.7953  331  0.0   100   0.0   335   0     975.9    NA       0.0000   BR       9999  0     0    
2019/11/11  15:16:01  BASE  10.584   330  11.7953  331  0.0   100   0.0   332   0     975.9    NA       0.0000   BR       8000  0     0    
2019/11/11  15:17:02  BASE  10.4017  331  11.7953  331  0.0   100   0.0   324   0     975.9    NA       0.0000   UP       BR    6000  0    
2019/11/11  15:18:02  BASE  10.2371  333  11.7953  331  0.0   100   0.0   318   0     975.9    NA       0.2540   UP       BR    9999  0    
2019/11/11  15:19:00  BASE  10.1724  330  11.7953  331  0.0   100   0.0   309   0     975.9    NA       0.0000   UP       BR    9000  0    
2019/11/11  15:20:01  BASE  10.1959  329  11.7953  331  0.0   100   0.0   301   0     975.9    NA       0.0000   UP       BR    9999  0    
2019/11/11  15:21:01  BASE  9.996    331  11.7953  331  0.0   100   0.0   296   0     976.0    NA       0.0000   UP       BR    9000  0    
2019/11/11  15:22:01  BASE  10.2136  331  11.7953  331  0.0   100   0.0   291   0     976.0    NA       0.0000   UP       BR    9999  0    
2019/11/11  15:23:01  BASE  10.5076  330  11.7953  331  0.0   100   0.0   283   0     976.0    NA       0.0000   UP       BR    8000  0    
2019/11/11  15:24:01  BASE  10.484   329  11.7953  331  0.0   100   0.0   279   0     976.0    NA       0.0000   UP       BR    6000  0    
2019/11/11  15:25:01  BASE  10.1018  328  11.3719  330  0.0   100   0.0   278   0     976.0    NA       0.0000   UP       BR    9000  0    
2019/11/11  15:26:01  BASE  10.2077  328  11.4013  324  0.0   100   0.0   277   0     976.0    NA       0.0000   UP       BR    8000  0    
2019/11/11  15:27:01  BASE  10.4076  329  11.4013  324  0.0   100   0.0   279   0     976.0    NA       0.0000   BR       7000  0     0    
2019/11/11  15:28:01  BASE  10.1665  329  11.4013  324  0.0   100   0.0   280   0     976.0    NA       0.0000   UP       BR    6000  0    
2019/11/11  15:29:01  BASE  9.7902   330  11.4013  324  0.0   100   0.0   278   0     976.0    NA       0.0000   UP       BR    8000  0    
2019/11/11  15:30:01  BASE  9.71964  329  11.4013  324  -0.0  100   -0.0  270   0     976.0    NA       0.0000   UP       BR    8000  0    
2019/11/11  15:31:02  BASE  10.3076  328  11.466   326  -0.0  100   -0.0  267   0     976.0    NA       0.0000   UP       BR    7000  0    
2019/11/11  15:32:02  BASE  10.3135  327  11.466   326  -0.0  100   -0.0  260   0     976.0    NA       0.0000   UP       BR    4600  0    
2019/11/11  15:33:02  BASE  9.88428  328  11.466   326  -0.0  100   -0.0  244   0     976.0    NA       0.0000   UP       BR    4600  0    
2019/11/11  15:34:01  BASE  9.71964  328  11.466   326  -0.1  100   -0.1  240   0     976.0    NA       0.0000   UP       BR    4700  0    
2019/11/11  15:35:01  BASE  9.92544  329  11.466   326  -0.1  100   -0.1  239   0     976.0    NA       0.0000   UP       BR    5000  0    
2019/11/11  15:36:01  BASE  10.1842  329  11.466   326  -0.1  100   -0.1  238   0     976.0    NA       0.0000   UP       BR    5000  0    
2019/11/11  15:37:01  BASE  10.3429  327  11.466   326  -0.1  100   -0.1  246   0     976.1    NA       0.0000   UP       BR    5000  0    
2019/11/11  15:38:01  BASE  9.95484  327  11.466   326  -0.1  100   -0.1  261   0     976.1    NA       0.0000   UP       BR    5000  0    
2019/11/11  15:39:01  BASE  9.5256   328  11.466   326  -0.1  100   -0.1  281   0     976.1    NA       0.0000   UP       BR    5000  0    
2019/11/11  15:40:01  BASE  9.65496  328  11.466   326  -0.1  100   -0.1  302   0     976.1    NA       0.2540   UP       BR    4000  0    
2019/11/11  15:41:01  BASE  9.70788  327  10.9486  327  -0.1  100   -0.1  320   0     976.1    NA       0.0000   UP       BR    4100  0    
2019/11/11  15:42:00  BASE  9.849    327  10.8604  328  -0.1  100   -0.1  338   0     976.1    NA       0.0000   UP       BR    3600  0    
2019/11/11  15:43:01  BASE  9.92544  327  10.8604  328  -0.0  100   -0.0  357   0     976.1    NA       0.0000   UP       BR    3900  0    
2019/11/11  15:44:01  BASE  9.93132  327  11.1602  330  -0.0  100   -0.0  359   0     976.1    NA       0.0000   UP       BR    6000  0    
2019/11/11  15:45:02  BASE  9.7608   328  11.1602  330  0.0   100   0.0   358   0     976.1    NA       0.0000   UP       BR    6000  0    
2019/11/11  15:46:01  BASE  9.67848  327  11.1602  330  0.0   100   0.0   342   0     976.1    NA       0.0000   UP       BR    4400  0    
2019/11/11  15:47:00  BASE  10.0078  327  11.1602  330  0.0   100   0.0   318   0     976.1    NA       0.0000   UP       BR    3800  0    
2019/11/11  15:48:00  BASE  10.0254  328  11.1602  330  0.0   100   0.0   294   0     976.1    NA       0.0000   UP       BR    3300  0    
2019/11/11  15:49:01  BASE  10.0842  329  11.466   325  -0.0  100   -0.0  284   0     976.1    NA       0.0000   UP       BR    5000  0    
2019/11/11  15:50:01  BASE  10.1077  327  11.466   325  -0.0  100   -0.0  282   0     976.2    NA       0.0000   UP       BR    3500  0    
2019/11/11  15:51:01  BASE  9.702    327  11.466   325  -0.0  100   -0.0  296   0     976.2    NA       0.0000   UP       BR    3500  0    
2019/11/11  15:52:01  BASE  9.51384  328  11.466   325  -0.0  100   -0.0  315   0     976.2    NA       0.0000   UP       BR    3800  0    
2019/11/11  15:53:01  BASE  9.56676  327  11.466   325  -0.0  100   -0.0  344   0     976.2    NA       0.0000   UP       BR    6000  0    
2019/11/11  15:54:01  BASE  9.408    327  11.466   325  -0.0  100   -0.0  373   0     976.2    NA       0.0000   UP       BR    8000  230  
2019/11/11  15:55:01  BASE  9.36684  327  11.466   325  -0.0  100   -0.0  383   0     976.2    NA       0.0000   UP       BR    8000  260  
2019/11/11  15:56:01  BASE  9.48444  328  11.466   325  0.0   100   0.0   389   0     976.2    NA       0.0000   UP       BR    6000  300  
2019/11/11  15:57:01  BASE  9.49032  327  11.466   325  0.0   100   0.0   387   0     976.2    NA       0.0000   UP       BR    8000  260  
2019/11/11  15:58:01  BASE  9.63732  326  11.466   325  0.0   100   0.0   383   0     976.2    NA       0.0000   UP       BR    6000  260  
2019/11/11  15:59:01  BASE  9.59616  327  11.3719  320  0.0   100   0.0   404   0     976.2    NA       0.0000   UP       BR    8000  230  
2019/11/11  16:00:00  BASE  9.57852  327  10.831   329  0.1   100   0.1   412   0     976.2    NA       0.2540   UP       BR    6000  0    
2019/11/11  16:01:01  BASE  9.85488  328  10.831   329  0.1   100   0.1   403   0     976.2    NA       0.0000   UP       BR    5000  260  
2019/11/11  16:02:00  BASE  9.67848  328  10.831   329  0.1   100   0.1   394   0     976.2    NA       0.0000   UP       BR    7000  230  
2019/11/11  16:03:01  BASE  9.5256   325  10.831   329  0.1   100   0.1   387   0     976.2    NA       0.0000   UP       BR    4300  0    
2019/11/11  16:04:01  BASE  9.44328  324  10.831   329  0.1   100   0.1   386   0     976.4    NA       0.0000   UP       BR    4300  0    
2019/11/11  16:05:01  BASE  9.34332  325  10.831   329  0.1   100   0.1   377   0     976.3    NA       0.0000   UP       BR    4600  0    
2019/11/11  16:06:01  BASE  9.39036  324  10.831   329  0.1   100   0.1   379   0     976.4    NA       0.0000   UP       BR    7000  0    
2019/11/11  16:07:01  BASE  9.32568  325  10.831   329  0.1   100   0.1   376   0     976.4    NA       0.0000   UP       BR    7000  200  
2019/11/11  16:08:00  BASE  9.59616  327  10.6487  330  0.1   100   0.1   384   0     976.3    NA       0.0000   UP       BR    7000  0    
2019/11/11  16:09:01  BASE  9.99012  328  11.1014  324  0.1   100   0.1   383   0     976.3    NA       0.0000   UP       BR    7000  0    
2019/11/11  16:10:00  BASE  9.68436  327  11.1014  324  0.1   100   0.1   381   0     976.3    NA       0.0000   UP       BR    8000  0    
2019/11/11  16:11:00  BASE  9.32568  326  11.1014  324  0.1   100   0.1   380   0     976.4    NA       0.0000   UP       BR    7000  0    
2019/11/11  16:12:01  BASE  9.41976  326  11.1014  324  0.1   100   0.1   393   0     976.4    NA       0.0000   UP       BR    7000  0    
2019/11/11  16:13:02  BASE  9.4668   326  11.1014  324  0.1   100   0.1   393   0     976.4    NA       0.0000   BR       8000  0     0    
2019/11/11  16:14:01  BASE  9.28452  326  11.1014  324  0.1   100   0.1   390   0     976.4    NA       0.0000   BR       7000  0     0    
2019/11/11  16:15:01  BASE  9.14928  327  11.1014  324  0.1   100   0.1   392   0     976.4    NA       0.0000   BR       7000  230   0    
2019/11/11  16:16:01  BASE  8.9964   326  11.1014  324  0.1   100   0.1   398   0     976.4    NA       0.0000   BR       8000  200   0    
2019/11/11  16:17:01  BASE  9.16104  326  11.1014  324  0.1   100   0.1   413   0     976.4    NA       0.2540   BR       8000  200   0    
2019/11/11  16:18:02  BASE  9.63732  327  11.1014  324  0.1   100   0.1   412   0     976.4    NA       0.0000   BR       8000  230   0    
2019/11/11  16:19:01  BASE  9.5256   326  10.2547  325  0.1   100   0.1   407   0     976.4    NA       0.0000   BR       8000  0     0    
2019/11/11  16:20:01  BASE  9.38448  325  10.6487  319  0.1   100   0.1   404   0     976.4    NA       0.0000   BR       8000  260   0    
2019/11/11  16:21:01  BASE  9.50796  325  10.6487  319  0.1   100   0.1   397   0     976.4    NA       0.0000   BR       8000  260   0    
2019/11/11  16:22:00  BASE  9.36096  328  10.6487  319  0.1   100   0.1   392   0     976.5    NA       0.0000   BR       7000  230   0    
2019/11/11  16:23:00  BASE  9.23748  326  10.6487  319  0.1   100   0.1   387   0     976.5    NA       0.0000   BR       8000  230   0    
2019/11/11  16:24:01  BASE  9.06696  324  10.6487  319  0.1   100   0.1   387   0     976.5    NA       0.0000   BR       7000  260   18930
2019/11/11  16:25:01  BASE  8.967    324  10.6487  319  0.1   100   0.1   392   0     976.5    NA       0.0000   BR       8000  300   0    
2019/11/11  16:26:01  BASE  9.18456  324  10.6487  319  0.1   100   0.1   401   0     976.5    NA       0.0000   BR       9000  300   0    
2019/11/11  16:27:01  BASE  8.83764  323  10.6487  319  0.1   100   0.1   392   0     976.5    NA       0.0000   BR       9000  300   22840
2019/11/11  16:28:02  BASE  8.83176  323  10.6487  319  0.1   100   0.1   384   0     976.5    NA       0.0000   BR       9999  300   19690
2019/11/11  16:29:01  BASE  9.03168  324  10.6487  319  0.1   100   0.1   386   0     976.6    NA       0.0000   BR       9000  330   0    
2019/11/11  16:30:01  BASE  8.94348  325  10.5899  322  0.1   100   0.1   396   0     976.6    NA       0.0000   BR       8000  360   0    
2019/11/11  16:31:02  BASE  9.0846   324  10.5899  322  0.1   100   0.1   400   0     976.6    NA       0.0000   BR       8000  300   0    
2019/11/11  16:32:00  BASE  8.9964   323  10.5899  322  0.1   100   0.1   395   0     976.6    NA       0.0000   BR       8000  330   0    
2019/11/11  16:33:01  BASE  9.00816  320  10.5899  322  0.1   100   0.1   370   0     976.7    NA       0.0000   BR       7000  300   0    
2019/11/11  16:34:01  BASE  9.36096  320  11.2837  318  0.1   100   0.1   366   0     976.6    NA       0.0000   BR       6000  260   0    
2019/11/11  16:35:00  BASE  9.39036  322  11.2837  318  0.1   100   0.1   362   0     976.7    NA       0.2540   BR       7000  260   0    
2019/11/11  16:36:01  BASE  9.2316   321  11.2837  318  0.1   100   0.1   363   0     976.7    NA       0.0000   BR       6000  300   0    
2019/11/11  16:37:01  BASE  9.11988  321  11.2837  318  0.1   100   0.1   359   0     976.7    NA       0.0000   BR       7000  260   0    
2019/11/11  16:38:01  BASE  9.34332  319  11.2837  318  0.1   100   0.1   365   0     976.7    NA       0.0000   BR       7000  300   0    
2019/11/11  16:39:02  BASE  9.31392  318  11.2837  318  0.1   100   0.1   362   0     976.7    NA       0.0000   BR       6000  260   22900
2019/11/11  16:40:01  BASE  9.15516  318  11.2837  318  0.1   100   0.1   355   0     976.7    NA       0.0000   BR       6000  260   0    
2019/11/11  16:41:02  BASE  9.23748  320  11.2837  318  0.1   100   0.1   355   0     976.7    NA       0.0000   BR       7000  230   0    
2019/11/11  16:42:01  BASE  8.96112  323  11.2837  318  0.1   100   0.1   353   0     976.7    NA       0.0000   BR       9999  260   0    
2019/11/11  16:43:01  BASE  8.68476  323  11.2837  318  0.1   100   0.1   352   0     976.7    NA       0.0000   BR       9999  260   0    
2019/11/11  16:44:02  BASE  8.51424  321  10.7075  318  0.1   100   0.1   355   0     976.8    NA       0.0000   BR       9999  230   0    
2019/11/11  16:45:01  BASE  8.54364  322  10.7075  318  0.1   100   0.1   360   0     976.8    NA       0.0000   BR       9999  260   0    
2019/11/11  16:46:01  BASE  8.75532  323  10.7075  318  0.1   100   0.1   357   0     976.8    NA       0.0000   UP       BR    9999  260  
2019/11/11  16:47:01  BASE  8.71416  321  10.7075  318  0.1   100   0.1   350   0     976.8    NA       0.0000   UP       BR    8000  260  
2019/11/11  16:48:02  BASE  8.63772  321  10.1312  314  0.1   100   0.1   342   0     976.8    NA       0.0000   UP       BR    8000  260  
2019/11/11  16:49:01  BASE  8.74356  322  10.1312  314  0.1   100   0.1   334   0     976.9    NA       0.0000   UP       BR    8000  260  
2019/11/11  16:50:01  BASE  8.54364  322  9.86076  320  0.1   100   0.1   338   0     976.9    NA       0.0000   UP       8000  300   0    
2019/11/11  16:51:01  BASE  8.30256  323  9.80196  322  0.1   100   0.1   337   0     977.0    NA       0.0000   UP       7000  260   0    
2019/11/11  16:52:01  BASE  8.50248  323  9.80196  322  0.1   100   0.1   330   0     977.0    NA       0.0000   UP       BR    7000  0    
2019/11/11  16:53:01  BASE  8.78472  321  9.80196  322  0.1   100   0.1   334   0     977.0    NA       0.0000   UP       BR    7000  230  
2019/11/11  16:54:01  BASE  8.77296  321  9.80196  322  0.1   100   0.1   336   0     976.9    NA       0.0000   UP       BR    7000  0    
2019/11/11  16:55:02  BASE  8.57304  321  9.67848  319  0.1   100   0.1   341   0     976.9    NA       0.0000   BR       6000  0     0    
2019/11/11  16:56:01  BASE  8.51424  321  9.67848  319  0.1   100   0.1   335   0     977.0    NA       0.0000   BR       5000  22970 0    
2019/11/11  16:57:02  BASE  8.42604  321  9.67848  319  0.1   100   0.1   331   0     977.0    NA       0.0000   BR       4100  0     0    
2019/11/11  16:58:01  BASE  8.085    321  9.67848  319  0.1   100   0.1   319   0     977.0    NA       0.0000   UP       BR    9999  0    
2019/11/11  16:59:01  BASE  7.92036  323  9.5256   314  0.1   100   0.1   314   0     977.1    NA       0.0000   UP       BR    9999  0    
2019/11/11  17:00:02  BASE  8.24376  324  9.5256   314  0.1   100   0.1   308   0     977.1    NA       0.0000   UP       BR    9999  0    
2019/11/11  17:01:01  BASE  8.26728  323  9.5256   314  0.1   100   0.1   299   0     977.1    NA       0.0000   UP       BR    9999  0    
2019/11/11  17:02:00  BASE  8.06148  319  9.4962   317  0.1   100   0.1   300   0     977.1    NA       0.0000   UP       BR    9999  0    
2019/11/11  17:03:01  BASE  8.07324  319  9.4962   317  0.1   100   0.1   302   0     977.1    NA       0.0000   UP       BR    9999  230  
2019/11/11  17:04:01  BASE  8.28492  320  9.4962   317  0.1   100   0.1   313   0     977.1    NA       0.0000   UP       BR    9999  0    
2019/11/11  17:05:00  BASE  8.36136  319  9.4962   317  0.1   100   0.1   325   0     977.1    NA       0.0000   UP       BR    5000  230  
2019/11/11  17:06:00  BASE  8.10264  321  9.4962   317  0.1   100   0.1   330   0     977.2    NA       0.0000   UP       BR    9000  260  
2019/11/11  17:07:01  BASE  8.36136  320  9.4962   317  0.1   100   0.1   340   0     977.2    NA       0.0000   UP       8000  300   0    
2019/11/11  17:08:01  BASE  8.65536  320  9.4962   317  0.1   100   0.1   337   0     977.2    NA       0.0000   UP       6000  260   0    
2019/11/11  17:09:01  BASE  8.30844  320  9.4962   317  0.1   100   0.1   334   0     977.2    NA       0.0000   UP       BR    4600  230  
2019/11/11  17:10:01  BASE  8.02032  321  9.4668   316  0.1   100   0.1   327   0     977.2    NA       0.0000   UP       BR    4600  0    
2019/11/11  17:11:01  BASE  8.42604  321  9.64908  317  0.1   100   0.1   326   0     977.3    NA       0.0000   UP       BR    6000  0    
2019/11/11  17:12:01  BASE  8.67888  320  9.64908  317  0.1   100   0.1   322   0     977.3    NA       0.0000   UP       BR    4200  0    
2019/11/11  17:13:01  BASE  8.38488  322  9.64908  317  0.1   100   0.1   319   0     977.3    NA       0.0000   UP       BR    3900  0    
2019/11/11  17:14:00  BASE  8.20848  322  9.64908  317  0.1   100   0.1   313   0     977.3    NA       0.0000   UP       BR    4200  0    
2019/11/11  17:15:01  BASE  8.27904  321  9.64908  317  0.1   100   0.1   308   0     977.3    NA       0.0000   UP       BR    3700  0    
2019/11/11  17:16:00  BASE  8.12028  320  9.64908  317  0.1   100   0.1   304   0     977.3    NA       0.0000   UP       BR    3800  0    
2019/11/11  17:17:01  BASE  8.06148  321  9.64908  317  0.1   100   0.1   299   0     977.3    NA       0.0000   UP       BR    3600  0    
2019/11/11  17:18:00  BASE  8.1144   320  9.64908  317  0.1   100   0.1   287   0     977.3    NA       0.0000   UP       BR    3500  0    
2019/11/11  17:19:01  BASE  7.90272  319  9.64908  317  0.1   100   0.1   281   0     977.3    NA       0.0000   UP       BR    3700  0    
2019/11/11  17:20:01  BASE  7.82628  319  9.64908  317  0.1   100   0.1   280   0     977.4    NA       0.0000   UP       BR    3400  0    
2019/11/11  17:21:00  BASE  7.9086   319  9.25512  318  0.1   100   0.1   285   0     977.4    NA       0.0000   UP       BR    3700  23230
2019/11/11  17:22:00  BASE  7.97328  321  9.04344  322  0.1   100   0.1   281   0     977.4    NA       0.0000   UP       BR    3600  0    
2019/11/11  17:23:01  BASE  8.04384  320  9.04344  322  0.1   100   0.1   282   0     977.4    NA       0.0000   UP       BR    3600  0    
2019/11/11  17:24:00  BASE  8.02032  319  9.04344  322  0.1   100   0.1   282   0     977.4    NA       0.0000   UP       BR    3800  0    
2019/11/11  17:25:01  BASE  7.67928  321  8.80236  318  0.1   100   0.1   277   0     977.4    NA       0.0000   UP       BR    3600  0    
2019/11/11  17:26:01  BASE  7.48524  322  8.80236  318  0.1   100   0.1   281   0     977.5    NA       0.0000   UP       BR    3300  0    
2019/11/11  17:27:01  BASE  7.53228  322  8.80236  318  0.0   100   0.0   281   0     977.5    NA       0.0000   UP       BR    3400  0    
2019/11/11  17:28:00  BASE  7.57344  325  8.80236  318  0.0   100   0.0   280   0     977.5    NA       0.0000   UP       BR    3900  21790
2019/11/11  17:29:01  BASE  8.00856  325  9.10224  319  0.0   100   0.0   284   0     977.5    NA       0.0000   UP       BR    4500  0    
2019/11/11  17:30:01  BASE  8.12616  324  9.10224  319  0.0   100   0.0   284   0     977.5    NA       0.0000   UP       BR    3900  0    
2019/11/11  17:31:02  BASE  8.04972  323  9.19632  319  0.0   100   0.0   286   0     977.6    NA       0.0000   UP       BR    3600  0    
2019/11/11  17:32:01  BASE  8.38488  321  9.59028  321  0.0   100   0.0   288   0     977.6    NA       0.0000   UP       BR    3500  0    
2019/11/11  17:33:01  BASE  8.27904  319  9.59028  321  0.0   100   0.0   291   0     977.6    NA       0.0000   UP       BR    3500  0    
2019/11/11  17:34:02  BASE  7.80276  319  9.59028  321  0.0   100   0.0   292   0     977.6    NA       0.0000   UP       BR    3500  0    
2019/11/11  17:35:02  BASE  7.73808  319  9.59028  321  0.0   100   0.0   288   0     977.6    NA       0.0000   UP       BR    3500  0    
2019/11/11  17:36:01  BASE  7.60284  319  9.59028  321  0.0   100   0.0   287   0     977.6    NA       0.0000   UP       BR    3500  0    
2019/11/11  17:37:01  BASE  7.69692  322  9.59028  321  0.0   100   0.0   295   0     977.6    NA       0.2540   UP       BR    3200  0    
2019/11/11  17:38:01  BASE  8.30844  323  9.59028  321  0.0   100   0.0   296   0     977.6    NA       0.0000   UP       BR    3500  0    
2019/11/11  17:39:01  BASE  8.30256  321  9.59028  321  0.0   100   0.0   307   0     977.7    NA       0.0000   UP       BR    3700  22740
2019/11/11  17:40:01  BASE  8.1144   322  9.59028  321  0.0   100   0.0   310   0     977.7    NA       0.0000   UP       BR    3700  0    
2019/11/11  17:41:01  BASE  7.99092  324  9.59028  321  0.0   100   0.0   309   0     977.7    NA       0.0000   UP       BR    3700  0    
2019/11/11  17:42:01  BASE  8.01444  324  9.13752  321  0.0   100   0.0   302   0     977.7    NA       0.0000   UP       BR    4300  0    
2019/11/11  17:43:01  BASE  8.25552  324  9.13752  321  0.0   100   0.0   296   0     977.7    NA       0.0000   UP       BR    5000  0    
2019/11/11  17:44:01  BASE  8.03208  324  9.13752  321  0.0   100   0.0   290   0     977.7    NA       0.0000   UP       BR    5000  0    
2019/11/11  17:45:01  BASE  7.7028   324  9.13752  321  0.0   100   0.0   280   0     977.7    NA       0.0000   UP       BR    5000  0    
2019/11/11  17:46:01  BASE  7.83216  324  9.13752  321  0.0   100   0.0   274   0     977.7    NA       0.0000   UP       BR    5000  0    
2019/11/11  17:47:01  BASE  8.13792  325  9.5256   317  0.0   100   0.0   274   0     977.8    NA       0.0000   UP       BR    5000  0    
2019/11/11  17:48:00  BASE  8.36136  328  9.5256   317  0.0   100   0.0   269   0     977.7    NA       0.0000   UP       BR    8000  0    
2019/11/11  17:49:01  BASE  8.30256  326  9.5256   317  0.0   100   0.0   261   0     977.8    NA       0.0000   UP       BR    9000  0    
2019/11/11  17:50:01  BASE  8.232    325  9.5256   317  0.0   100   0.0   251   0     977.8    NA       0.0000   UP       BR    7000  0    
2019/11/11  17:51:01  BASE  8.25552  327  9.5256   317  0.0   100   0.0   253   0     977.8    NA       0.0000   UP       BR    9000  0    
2019/11/11  17:52:02  BASE  8.41428  326  9.89016  324  0.0   100   0.0   262   0     977.8    NA       0.0000   BR       7000  0     0    
2019/11/11  17:53:01  BASE  8.29668  327  9.89016  324  0.0   100   0.0   264   0     977.8    NA       0.0000   BR       9000  0     0    
2019/11/11  17:54:01  BASE  7.89096  328  9.89016  324  0.0   100   0.0   263   0     977.9    NA       0.0000   BR       8000  0     0    
2019/11/11  17:55:01  BASE  8.19672  326  9.89016  324  0.0   100   0.0   269   0     977.8    NA       0.0000   BR       8000  0     0    
2019/11/11  17:56:00  BASE  8.09676  325  9.89016  324  0.0   100   0.0   257   0     977.9    NA       0.0000   BR       7000  0     0    
2019/11/11  17:57:01  BASE  7.95564  325  9.89016  324  0.0   100   0.0   254   0     977.9    NA       0.0000   BR       5000  0     0    
2019/11/11  17:58:01  BASE  8.24964  325  9.89016  324  0.0   100   0.0   259   0     977.9    NA       0.0000   BR       5000  0     0    
2019/11/11  17:59:01  BASE  8.17908  324  9.89016  324  0.0   100   0.0   265   0     977.9    NA       0.0000   BR       8000  0     0    
2019/11/11  18:00:01  BASE  8.46132  326  9.89016  324  0.0   100   0.0   264   0     977.9    NA       0.0000   BR       8000  0     0    
2019/11/11  18:01:00  BASE  8.36724  325  9.89016  324  0.0   100   0.0   266   0     977.9    NA       0.0000   BR       7000  0     0    
2019/11/11  18:02:01  BASE  8.15556  324  9.4668   324  0.0   100   0.0   277   0     977.9    NA       0.0000   UP       BR    5000  0    
2019/11/11  18:03:01  BASE  8.19672  327  9.4668   328  0.0   100   0.0   292   0     977.9    NA       0.0000   UP       BR    5000  0    
2019/11/11  18:04:01  BASE  8.62596  324  10.043   324  0.0   100   0.0   293   0     977.9    NA       0.0000   UP       BR    7000  260  
2019/11/11  18:05:01  BASE  8.82588  322  10.043   324  0.0   100   0.0   296   0     977.9    NA       0.0000   UP       BR    8000  230  
2019/11/11  18:06:01  BASE  8.16144  324  10.043   324  0.0   100   0.0   302   0     977.9    NA       0.0000   UP       BR    9000  0    
2019/11/11  18:07:01  BASE  7.71456  325  10.043   324  0.0   100   0.0   306   0     977.9    NA       0.0000   BR       8000  0     0    
2019/11/11  18:08:00  BASE  7.96152  323  10.043   324  0.0   100   0.0   313   0     978.0    NA       0.0000   BR       6000  0     0    
2019/11/11  18:09:01  BASE  7.98504  322  10.043   324  0.0   100   0.0   309   0     978.0    NA       0.0000   BR       6000  0     0    
2019/11/11  18:10:01  BASE  7.7322   325  10.043   324  0.0   100   0.0   308   0     978.1    NA       0.0000   UP       BR    5000  0    
2019/11/11  18:11:01  BASE  7.89684  324  10.043   324  0.0   100   0.0   314   0     978.1    NA       0.0000   UP       BR    4700  0    
2019/11/11  18:12:01  BASE  8.13204  323  10.043   324  0.0   100   0.0   319   0     978.0    NA       0.0000   UP       BR    4700  0    
2019/11/11  18:13:00  BASE  8.085    326  10.043   324  0.0   100   0.0   325   0     978.1    NA       0.0000   UP       BR    4700  0    
2019/11/11  18:14:01  BASE  7.66752  325  9.3492   325  0.0   100   0.0   317   0     978.1    NA       0.0000   UP       BR    4700  0    
2019/11/11  18:15:01  BASE  7.54404  323  9.3492   325  0.0   100   0.0   310   0     978.1    NA       0.0000   UP       BR    4700  0    
2019/11/11  18:16:00  BASE  7.8498   324  9.3492   325  0.0   100   0.0   301   0     978.1    NA       0.0000   UP       BR    4600  0    
2019/11/11  18:17:01  BASE  8.085    325  9.3492   325  0.0   100   0.0   299   0     978.1    NA       0.0000   UP       BR    4300  0    
2019/11/11  18:18:01  BASE  7.88508  324  9.3492   325  0.0   100   0.0   297   0     978.1    NA       0.0000   UP       BR    4300  0    
2019/11/11  18:19:01  BASE  7.91448  324  9.3492   325  0.0   100   0.0   289   0     978.1    NA       0.0000   UP       BR    4700  0    
2019/11/11  18:20:01  BASE  8.2908   324  9.3492   325  0.0   100   0.0   286   0     978.1    NA       0.0000   UP       BR    4500  0    
2019/11/11  18:21:02  BASE  8.51424  326  9.3492   325  0.0   100   0.0   277   0     978.1    NA       0.0000   UP       BR    4500  18700
2019/11/11  18:22:01  BASE  8.53776  325  9.01404  319  0.0   100   0.0   268   0     978.2    NA       0.0000   UP       BR    4800  0    
2019/11/11  18:23:02  BASE  8.63184  323  9.74316  324  0.0   100   0.0   265   0     978.1    NA       0.2540   UP       BR    7000  0    
2019/11/11  18:24:01  BASE  8.6142   321  9.74316  324  -0.0  100   -0.0  265   0     978.2    NA       0.0000   UP       BR    5000  0    
2019/11/11  18:25:01  BASE  8.52012  321  9.74316  324  -0.0  100   -0.0  274   0     978.2    NA       0.0000   UP       BR    3500  0    
2019/11/11  18:26:00  BASE  8.52012  321  9.74316  324  -0.0  100   -0.0  285   0     978.2    NA       0.0000   UP       BR    3800  0    
2019/11/11  18:27:01  BASE  8.51424  319  9.74316  324  -0.0  100   -0.0  289   0     978.2    NA       0.0000   UP       BR    3800  0    
2019/11/11  18:28:01  BASE  8.3496   318  9.74316  324  -0.0  100   -0.0  297   0     978.2    NA       0.0000   UP       BR    3800  0    
2019/11/11  18:29:01  BASE  8.77884  317  10.4958  313  -0.0  100   -0.0  292   0     978.2    NA       0.0000   UP       BR    3800  230  
2019/11/11  18:30:00  BASE  8.9376   317  10.4958  313  -0.0  100   -0.0  270   0     978.2    NA       0.0000   UP       BR    3800  230  
2019/11/11  18:31:02  BASE  8.54364  317  10.4958  313  -0.0  100   -0.0  256   0     978.2    NA       0.0000   UP       BR    3800  0    
2019/11/11  18:32:01  BASE  8.57304  316  10.4958  313  -0.0  100   -0.0  249   0     978.2    NA       0.0000   UP       BR    3800  0    
2019/11/11  18:33:01  BASE  8.3202   318  10.4958  313  -0.0  100   -0.0  250   0     978.3    NA       0.0000   UP       BR    3800  0    
2019/11/11  18:34:00  BASE  8.10264  320  10.4958  313  -0.0  100   -0.0  267   0     978.3    NA       0.0000   UP       BR    3800  0    
2019/11/11  18:35:01  BASE  8.23788  321  10.4958  313  -0.0  100   -0.0  270   0     978.3    NA       0.0000   UP       BR    4100  230  
2019/11/11  18:36:01  BASE  8.22612  323  10.4958  313  -0.1  100   -0.1  266   0     978.3    NA       0.0000   UP       BR    6000  260  
2019/11/11  18:37:01  BASE  8.13792  323  10.4958  313  -0.1  100   -0.1  260   0     978.3    NA       0.0000   UP       BR    7000  260  
2019/11/11  18:38:00  BASE  8.7024   319  10.5252  318  -0.1  100   -0.1  257   0     978.3    NA       0.0000   UP       BR    4900  0    
2019/11/11  18:39:01  BASE  8.74944  319  10.5252  318  -0.1  100   -0.1  276   0     978.4    NA       0.0000   UP       BR    3900  0    
2019/11/11  18:40:01  BASE  8.47308  318  10.5252  318  -0.1  100   -0.1  277   0     978.4    NA       0.0000   UP       BR    3900  0    
2019/11/11  18:41:00  BASE  8.19672  317  10.5252  318  -0.1  100   -0.1  272   0     978.4    NA       0.0000   UP       BR    4100  230  
2019/11/11  18:42:00  BASE  7.9086   322  10.5252  318  -0.1  100   -0.1  255   0     978.4    NA       0.0000   UP       BR    5000  300  
2019/11/11  18:43:01  BASE  8.06736  325  10.5252  318  -0.1  100   -0.1  242   0     978.4    NA       0.0000   UP       BR    5000  260  
2019/11/11  18:44:01  BASE  8.085    322  10.5252  318  -0.1  100   -0.1  224   0     978.5    NA       0.0000   UP       BR    7000  260  
2019/11/11  18:45:01  BASE  8.46132  320  10.5252  318  -0.1  100   -0.1  223   0     978.4    NA       0.0000   UP       BR    5000  330  
2019/11/11  18:46:00  BASE  8.84352  322  10.5252  318  -0.1  100   -0.1  221   0     978.4    NA       0.0000   UP       BR    5000  330  
2019/11/11  18:47:01  BASE  8.59068  322  10.5252  318  -0.1  100   -0.1  223   0     978.5    NA       0.0000   UP       BR    5000  260  
2019/11/11  18:48:00  BASE  8.33196  322  9.98424  325  -0.1  100   -0.1  227   0     978.5    NA       0.0000   UP       BR    5000  0    
2019/11/11  18:49:00  BASE  8.4084   322  9.98424  325  -0.1  100   -0.1  231   0     978.5    NA       0.0000   UP       BR    5000  0    
2019/11/11  18:50:00  BASE  8.34372  324  9.98424  325  -0.1  100   -0.1  236   0     978.5    NA       0.0000   UP       BR    5000  260  
2019/11/11  18:51:01  BASE  8.77884  326  9.98424  325  -0.1  100   -0.1  236   0     978.5    NA       0.0000   UP       BR    5000  300  
2019/11/11  18:52:01  BASE  8.9376   326  9.95484  323  -0.1  100   -0.1  232   0     978.5    NA       0.0000   BR       5000  300   0    
2019/11/11  18:53:01  BASE  8.47308  326  9.95484  323  -0.1  100   -0.1  224   0     978.5    NA       0.0000   BR       5000  300   0    
2019/11/11  18:54:01  BASE  8.66124  326  9.95484  323  -0.1  100   -0.1  224   0     978.5    NA       0.0000   BR       5000  260   0    
2019/11/11  18:55:01  BASE  8.68476  327  9.95484  323  -0.1  100   -0.1  225   0     978.5    NA       0.0000   BR       5000  260   0    
2019/11/11  18:56:00  BASE  8.73768  327  9.95484  323  -0.1  100   -0.1  227   0     978.5    NA       0.0000   BR       6000  260   0    
2019/11/11  18:57:01  BASE  9.0846   326  10.4958  326  -0.1  100   -0.1  232   0     978.5    NA       0.0000   BR       7000  260   0    
2019/11/11  18:58:00  BASE  9.09636  327  10.4958  326  -0.1  100   -0.1  229   0     978.5    NA       0.0000   BR       7000  260   0    
2019/11/11  18:59:01  BASE  9.13164  327  10.4958  326  -0.1  100   -0.1  225   0     978.5    NA       0.0000   BR       7000  300   0    
2019/11/11  19:00:01  BASE  8.94348  326  10.4958  326  -0.1  100   -0.1  227   0     978.5    NA       0.0000   BR       6000  260   0    
2019/11/11  19:01:01  BASE  8.54952  325  10.4958  326  -0.1  100   -0.1  224   0     978.5    NA       0.0000   BR       6000  200   0    
2019/11/11  19:02:01  BASE  8.59068  324  10.4958  326  -0.1  100   -0.1  218   0     978.5    NA       0.0000   BR       6000  0     0    
2019/11/11  19:03:01  BASE  8.78472  325  10.4958  326  -0.1  100   -0.1  213   0     978.5    NA       0.0000   BR       6000  230   0    
2019/11/11  19:04:00  BASE  8.57892  325  10.4958  326  -0.1  100   -0.1  211   0     978.6    NA       0.0000   BR       6000  300   0    
2019/11/11  19:05:01  BASE  8.62008  322  10.4958  326  -0.1  100   -0.1  205   0     978.6    NA       0.0000   BR       6000  300   0    
2019/11/11  19:06:01  BASE  9.03756  319  10.4958  326  -0.1  100   -0.1  205   0     978.6    NA       0.0000   BR       6000  260   0    
2019/11/11  19:07:01  BASE  8.94936  321  10.3135  317  -0.2  100   -0.2  215   0     978.6    NA       0.0000   BR       6000  260   0    
2019/11/11  19:08:01  BASE  8.57304  322  10.3135  317  -0.2  100   -0.2  220   0     978.6    NA       0.0000   BR       5000  0     0    
2019/11/11  19:09:00  BASE  8.7318   322  10.3135  317  -0.2  100   -0.2  224   0     978.6    NA       0.0000   BR       5000  0     0    
2019/11/11  19:10:01  BASE  8.70828  322  10.3135  317  -0.2  100   -0.2  222   0     978.7    NA       0.0000   BR       4700  0     0    
2019/11/11  19:11:01  BASE  8.42016  322  10.3135  317  -0.2  100   -0.2  211   0     978.7    NA       0.0000   UP       BR    4900  20210
2019/11/11  19:12:00  BASE  8.67888  321  10.3135  317  -0.2  100   -0.2  203   0     978.7    NA       0.0000   UP       BR    4500  0    
2019/11/11  19:13:01  BASE  8.86116  319  10.3135  317  -0.2  100   -0.2  203   0     978.7    NA       0.0000   UP       BR    4400  0    
2019/11/11  19:14:01  BASE  8.70828  317  10.3135  317  -0.2  100   -0.2  214   0     978.7    NA       0.0000   UP       BR    4400  0    
2019/11/11  19:15:01  BASE  8.44956  316  10.1665  323  -0.2  100   -0.2  219   0     978.8    NA       0.0000   UP       BR    4500  0    
2019/11/11  19:16:01  BASE  8.63184  316  10.1665  323  -0.2  100   -0.2  225   0     978.8    NA       0.0000   UP       BR    5000  260  
2019/11/11  19:17:01  BASE  8.83764  315  10.1665  323  -0.2  100   -0.2  218   0     978.8    NA       0.0000   UP       BR    5000  300  
2019/11/11  19:18:00  BASE  8.8788   314  10.1665  323  -0.2  100   -0.2  214   0     978.8    NA       0.0000   UP       BR    6000  300  
2019/11/11  19:19:01  BASE  9.555    313  10.6487  307  -0.2  100   -0.2  217   0     978.7    NA       0.0000   UP       BR    5000  260  
2019/11/11  19:20:02  BASE  9.3786   313  10.6487  307  -0.2  100   -0.2  227   0     978.8    NA       0.0000   UP       BR    4200  0    
2019/11/11  19:21:01  BASE  8.7024   312  10.6487  307  -0.2  100   -0.2  227   0     978.8    NA       0.0000   UP       BR    4100  0    
2019/11/11  19:22:01  BASE  8.91996  311  10.6487  307  -0.2  100   -0.2  230   0     978.9    NA       0.0000   UP       BR    3300  0    
2019/11/11  19:23:01  BASE  8.99052  312  10.6487  307  -0.2  100   -0.2  236   0     978.9    NA       0.0000   UP       BR    3500  0    
2019/11/11  19:24:01  BASE  8.9082   314  10.6487  307  -0.2  100   -0.2  245   0     978.9    NA       0.0000   UP       BR    3600  0    
2019/11/11  19:25:01  BASE  8.65536  316  10.6487  307  -0.2  100   -0.2  254   0     978.9    NA       0.0000   UP       BR    4100  0    
2019/11/11  19:26:01  BASE  8.66124  318  10.6487  307  -0.2  100   -0.2  256   0     978.8    NA       0.0000   UP       BR    6000  0    
2019/11/11  19:27:01  BASE  9.2904   317  10.6487  307  -0.2  100   -0.2  255   0     978.9    NA       0.0000   UP       BR    7000  230  
2019/11/11  19:28:00  BASE  8.8788   315  10.6487  307  -0.2  100   -0.2  259   0     979.0    NA       0.0000   UP       BR    7000  230  
2019/11/11  19:29:01  BASE  8.04384  316  10.5546  314  -0.2  100   -0.2  258   0     978.9    NA       0.0000   UP       BR    6000  0    
2019/11/11  19:30:01  BASE  7.66752  317  10.5546  314  -0.2  100   -0.2  256   0     979.0    NA       0.0000   UP       BR    4400  0    
2019/11/11  19:31:02  BASE  7.98504  318  10.5546  314  -0.2  100   -0.2  254   0     978.9    NA       0.0000   UP       BR    4600  0    
2019/11/11  19:32:00  BASE  8.44368  321  10.5546  314  -0.2  100   -0.2  258   0     979.0    NA       0.0000   UP       BR    6000  0    
2019/11/11  19:33:00  BASE  8.62596  322  10.5546  314  -0.2  100   -0.2  250   0     979.0    NA       0.0000   UP       BR    6000  0    
2019/11/11  19:34:00  BASE  8.76708  320  10.5546  314  -0.2  100   -0.2  247   0     979.0    NA       0.0000   UP       BR    3900  0    
2019/11/11  19:35:01  BASE  8.85528  318  10.5546  314  -0.2  100   -0.2  242   0     979.0    NA       0.0000   UP       BR    4200  0    
2019/11/11  19:36:01  BASE  8.90232  317  10.5546  314  -0.2  100   -0.2  241   0     979.0    NA       0.0000   UP       BR    5000  0    
2019/11/11  19:37:01  BASE  8.54364  318  10.043   317  -0.2  100   -0.2  241   0     979.0    NA       0.0000   UP       BR    3900  22930
2019/11/11  19:38:00  BASE  8.3496   319  10.043   317  -0.2  100   -0.2  239   0     979.1    NA       0.0000   UP       BR    3900  0    
2019/11/11  19:39:01  BASE  8.232    319  10.043   317  -0.2  100   -0.2  233   0     979.1    NA       0.0000   UP       BR    3900  0    
2019/11/11  19:40:00  BASE  8.232    319  10.043   317  -0.2  100   -0.2  228   0     979.1    NA       0.0000   UP       BR    3900  0    
2019/11/11  19:41:01  BASE  8.51424  319  10.043   315  -0.2  100   -0.2  227   0     979.1    NA       0.0000   UP       BR    3900  0    
2019/11/11  19:42:00  BASE  8.37312  319  10.043   315  -0.2  100   -0.2  223   0     979.1    NA       0.0000   UP       BR    3700  0    
2019/11/11  19:43:01  BASE  8.39076  318  10.043   315  -0.2  100   -0.2  223   0     979.1    NA       0.0000   UP       BR    3000  0    
2019/11/11  19:44:00  BASE  8.44368  316  10.043   315  -0.2  100   -0.2  229   0     979.2    NA       0.0000   UP       BR    2900  0    
2019/11/11  19:45:01  BASE  8.28492  313  10.043   315  -0.2  100   -0.2  230   0     979.2    NA       0.0000   UP       BR    2900  0    
2019/11/11  19:46:01  BASE  8.47308  315  10.043   315  -0.2  100   -0.2  230   0     979.2    NA       0.0000   UP       BR    3400  0    
2019/11/11  19:47:01  BASE  8.4672   316  10.043   315  -0.3  100   -0.3  231   0     979.2    NA       0.0000   UP       BR    3600  0    
2019/11/11  19:48:00  BASE  8.60244  315  10.043   315  -0.2  100   -0.2  240   0     979.2    NA       0.0000   UP       BR    3500  0    
2019/11/11  19:49:00  BASE  8.92584  315  10.043   315  -0.2  100   -0.2  236   0     979.2    NA       0.0000   UP       BR    3300  0    
2019/11/11  19:50:00  BASE  8.7906   314  10.043   315  -0.3  100   -0.3  235   0     979.2    NA       0.0000   UP       BR    3100  0    
2019/11/11  19:51:01  BASE  8.30256  316  9.56088  312  -0.3  100   -0.3  230   0     979.2    NA       0.0000   UP       BR    2800  0    
2019/11/11  19:52:00  BASE  8.46132  316  9.56088  312  -0.3  100   -0.3  218   0     979.2    NA       0.0000   UP       BR    3300  0    
2019/11/11  19:53:02  BASE  8.86704  314  9.56088  311  -0.3  100   -0.3  211   0     979.2    NA       0.0000   UP       BR    3600  0    
2019/11/11  19:54:01  BASE  8.28492  317  9.56088  311  -0.3  100   -0.3  203   0     979.3    NA       0.0000   UP       BR    3300  0    
2019/11/11  19:55:01  BASE  7.77336  319  9.56088  311  -0.3  100   -0.3  200   0     979.3    NA       0.0000   UP       BR    3400  0    
2019/11/11  19:56:01  BASE  8.13204  320  9.56088  311  -0.3  100   -0.3  200   0     979.3    NA       0.0000   UP       BR    3000  0    
2019/11/11  19:57:01  BASE  8.23788  320  9.56088  311  -0.3  100   -0.3  196   0     979.4    NA       0.2540   UP       BR    3700  0    
2019/11/11  19:58:01  BASE  8.18496  318  9.56088  311  -0.3  100   -0.3  201   0     979.4    NA       0.0000   UP       BR    3700  0    
2019/11/11  19:59:00  BASE  8.232    315  9.80196  306  -0.3  100   -0.3  193   0     979.4    NA       0.0000   UP       BR    4000  230  
2019/11/11  20:00:01  BASE  7.56168  316  9.80196  306  -0.3  100   -0.3  186   0     979.5    NA       0.0000   UP       BR    3800  260  
2019/11/11  20:01:00  BASE  7.50288  317  9.80196  306  -0.3  100   -0.3  182   0     979.5    NA       0.0000   UP       BR    3700  0    
2019/11/11  20:02:01  BASE  8.1438   316  9.80196  306  -0.3  100   -0.3  182   0     979.5    NA       0.0000   UP       BR    4000  230  
2019/11/11  20:03:00  BASE  8.25552  314  9.80196  306  -0.3  100   -0.3  180   0     979.5    NA       0.0000   UP       BR    3900  230  
2019/11/11  20:04:01  BASE  8.379    314  9.80196  306  -0.3  100   -0.3  181   0     979.4    NA       0.0000   UP       BR    4100  260  
2019/11/11  20:05:01  BASE  8.70828  311  10.1312  308  -0.3  100   -0.3  184   0     979.4    NA       0.0000   UP       BR    4100  330  
2019/11/11  20:06:01  BASE  8.88468  306  10.8898  297  -0.3  100   -0.3  181   0     979.4    NA       0.0000   UP       BR    4100  360  
2019/11/11  20:07:01  BASE  8.41428  306  10.8898  297  -0.3  100   -0.3  175   0     979.5    NA       0.0000   UP       BR    4100  360  
2019/11/11  20:08:02  BASE  8.1732   305  10.8898  297  -0.3  100   -0.3  172   0     979.5    NA       0.0000   UP       BR    4100  330  
2019/11/11  20:09:01  BASE  7.99092  301  10.8898  297  -0.3  100   -0.3  171   0     979.6    NA       0.0000   UP       BR    4100  300  
2019/11/11  20:10:01  BASE  7.72632  301  10.8898  297  -0.3  100   -0.3  167   0     979.6    NA       0.0000   UP       BR    4100  300  
2019/11/11  20:11:01  BASE  7.84392  302  10.8898  297  -0.3  100   -0.3  165   0     979.6    NA       0.0000   UP       BR    4100  300  
2019/11/11  20:12:01  BASE  7.79688  302  10.8898  297  -0.3  100   -0.3  162   0     979.7    NA       0.0000   UP       BR    3800  300  
2019/11/11  20:13:01  BASE  8.33784  301  10.8898  297  -0.3  100   -0.3  161   0     979.7    NA       0.0000   UP       BR    3000  300  
2019/11/11  20:14:01  BASE  8.53188  299  10.8898  297  -0.3  100   -0.3  155   0     979.7    NA       0.0000   UP       BR    3000  330  
2019/11/11  20:15:02  BASE  7.96152  300  10.8898  297  -0.3  100   -0.3  154   0     979.7    NA       0.0000   UP       BR    3000  330  
2019/11/11  20:16:01  BASE  8.01444  302  9.408    299  -0.3  100   -0.3  153   0     979.7    NA       0.0000   UP       BR    3000  330  
2019/11/11  20:17:01  BASE  7.93212  302  9.408    299  -0.3  100   -0.3  150   0     979.8    NA       0.0000   UP       BR    3000  330  
2019/11/11  20:18:01  BASE  7.77336  300  9.408    299  -0.3  100   -0.3  152   0     979.7    NA       0.0000   UP       BR    3000  360  
2019/11/11  20:19:01  BASE  8.02032  299  9.408    299  -0.3  100   -0.3  151   0     979.7    NA       0.0000   UP       BR    3000  330  
2019/11/11  20:20:01  BASE  8.04972  300  9.408    299  -0.3  100   -0.3  154   0     979.8    NA       0.0000   UP       BR    3200  330  
2019/11/11  20:21:00  BASE  8.21436  301  9.408    299  -0.3  100   -0.3  165   0     979.8    NA       0.0000   UP       BR    5000  360  
2019/11/11  20:22:02  BASE  8.12616  299  9.408    299  -0.3  100   -0.4  177   0     979.8    NA       0.0000   UP       BR    6000  360  
2019/11/11  20:23:01  BASE  7.84392  294  9.31392  287  -0.4  100   -0.4  182   0     979.8    NA       0.0000   UP       BR    6000  390  
2019/11/11  20:24:00  BASE  7.54992  292  9.31392  287  -0.4  100   -0.4  185   0     979.9    NA       0.0000   UP       BR    6000  520  
2019/11/11  20:25:01  BASE  7.5558   296  9.31392  287  -0.4  100   -0.4  192   0     979.9    NA       0.0000   UP       BR    6000  430  
2019/11/11  20:26:01  BASE  7.84392  291  9.31392  287  -0.4  100   -0.4  193   0     979.9    NA       0.0000   UP       BR    6000  390  
2019/11/11  20:27:01  BASE  7.97328  286  9.5256   281  -0.4  100   -0.4  196   0     979.9    NA       0.0000   UP       BR    6000  590  
2019/11/11  20:28:01  BASE  7.95564  287  9.5256   281  -0.4  100   -0.4  197   0     979.9    NA       0.0000   UP       BR    6000  390  
2019/11/11  20:29:01  BASE  8.19084  288  10.1018  291  -0.4  100   -0.4  199   0     979.9    NA       0.0000   UP       BR    6000  360  
2019/11/11  20:30:01  BASE  8.18496  289  10.1018  291  -0.5  100   -0.5  195   0     979.9    NA       0.0000   UP       BR    5000  330  
2019/11/11  20:31:02  BASE  7.20888  289  10.1018  291  -0.5  100   -0.5  187   0     980.0    NA       0.0000   UP       BR    2900  300  
2019/11/11  20:32:01  BASE  6.39744  295  10.1018  291  -0.5  100   -0.5  180   0     980.1    NA       0.0000   UP       BR    2800  300  
2019/11/11  20:33:02  BASE  6.33864  301  10.1018  291  -0.5  100   -0.5  172   0     980.1    NA       0.0000   UP       BR    3400  300  
2019/11/11  20:34:01  BASE  6.3798   297  10.1018  291  -0.4  100   -0.4  167   0     980.1    NA       0.0000   UP       BR    3800  330  
2019/11/11  20:35:01  BASE  6.36804  293  10.1018  291  -0.4  100   -0.4  164   0     980.1    NA       0.0000   UP       BR    3600  330  
2019/11/11  20:36:01  BASE  7.15596  292  10.1018  291  -0.4  100   -0.4  165   0     980.1    NA       0.0000   UP       BR    4100  300  
2019/11/11  20:37:01  BASE  7.82628  290  10.1018  291  -0.5  100   -0.5  170   0     980.1    NA       0.0000   UP       BR    3300  330  
2019/11/11  20:38:01  BASE  7.87332  293  10.1018  291  -0.5  100   -0.5  175   0     980.2    NA       0.0000   UP       BR    3300  330  
2019/11/11  20:39:01  BASE  7.64988  298  9.04344  278  -0.5  100   -0.5  176   0     980.2    NA       0.0000   UP       BR    3300  330  
2019/11/11  20:40:01  BASE  7.85568  296  9.64908  293  -0.6  100   -0.6  176   0     980.1    NA       0.0000   UP       BR    3300  360  
2019/11/11  20:41:00  BASE  8.4378   293  9.64908  293  -0.6  100   -0.6  175   0     980.2    NA       0.0000   UP       BR    3300  360  
2019/11/11  20:42:01  BASE  8.26728  295  9.64908  293  -0.7  100   -0.7  175   0     980.2    NA       0.0000   UP       BR    3300  360  
2019/11/11  20:43:01  BASE  7.89684  296  9.64908  293  -0.7  100   -0.7  174   0     980.2    NA       0.0000   UP       BR    3300  360  
2019/11/11  20:44:01  BASE  8.25552  293  9.64908  293  -0.7  100   -0.7  168   0     980.3    NA       0.0000   UP       BR    3300  360  
2019/11/11  20:45:01  BASE  8.52012  292  9.64908  293  -0.7  100   -0.7  159   0     980.3    NA       0.0000   UP       BR    3300  360  
2019/11/11  20:46:00  BASE  7.93212  294  9.64908  293  -0.7  100   -0.7  153   0     980.3    NA       0.0000   BR       3300  360   0    
2019/11/11  20:47:01  BASE  7.5264   295  9.64908  293  -0.7  100   -0.7  148   0     980.4    NA       0.0000   BR       3300  360   0    
2019/11/11  20:48:01  BASE  7.37352  298  9.64908  293  -0.7  100   -0.7  145   0     980.4    NA       0.0000   BR       3300  360   0    
2019/11/11  20:49:01  BASE  7.02072  298  9.64908  293  -0.7  100   -0.7  138   0     980.4    NA       0.0000   BR       3300  360   1900 
2019/11/11  20:50:01  BASE  6.72672  295  9.4668   290  -0.7  100   -0.7  131   0     980.5    NA       0.0000   BR       3300  360   1350 
2019/11/11  20:51:01  BASE  6.2622   294  9.4668   290  -0.7  100   -0.7  132   0     980.6    NA       0.0000   BR       3300  360   0    
2019/11/11  20:52:00  BASE  6.26808  299  9.4668   290  -0.7  100   -0.7  132   0     980.6    NA       0.0000   BR       3300  360   0    
2019/11/11  20:53:01  BASE  7.12656  300  9.4668   290  -0.7  100   -0.7  132   0     980.6    NA       0.0000   BR       3300  360   0    
2019/11/11  20:54:01  BASE  7.80276  296  9.4668   290  -0.7  100   -0.7  134   0     980.6    NA       0.0000   BR       3300  330   0    
2019/11/11  20:55:01  BASE  7.45584  297  8.56128  299  -0.7  100   -0.7  133   0     980.6    NA       0.0000   BR       3300  330   0    
2019/11/11  20:56:01  BASE  6.92076  297  8.56128  299  -0.7  100   -0.7  133   0     980.7    NA       0.0000   BR       3300  300   0    
2019/11/11  20:57:01  BASE  6.63264  297  8.56128  299  -0.8  100   -0.8  132   0     980.7    NA       0.0000   BR       3300  300   0    
2019/11/11  20:58:01  BASE  6.48564  298  8.56128  299  -0.8  100   -0.8  133   0     980.7    NA       0.0000   BR       3300  300   980  
2019/11/11  20:59:01  BASE  6.84432  297  8.56128  299  -0.8  100   -0.8  130   0     980.7    NA       0.0000   BR       3300  300   0    
2019/11/11  21:00:01  BASE  7.20888  297  8.56128  299  -0.8  100   -0.8  127   0     980.7    NA       0.0000   BR       3300  300   0    
2019/11/11  21:01:01  BASE  7.81452  296  9.3492   297  -0.9  100   -0.9  128   0     980.7    NA       0.0000   BR       3300  300   0    
2019/11/11  21:02:01  BASE  7.74396  297  9.3492   297  -0.9  100   -0.9  127   0     980.7    NA       0.0000   UP       BR    3200  260  
2019/11/11  21:03:01  BASE  7.8204   297  9.3492   297  -0.9  100   -0.9  123   0     980.7    NA       0.0000   UP       BR    2600  230  
2019/11/11  21:04:01  BASE  7.63224  298  9.3492   297  -0.9  100   -0.9  122   0     980.8    NA       0.0000   UP       BR    1600  0    
2019/11/11  21:05:01  BASE  7.01484  298  9.3492   297  -0.9  100   -0.9  120   0     980.8    NA       0.0000   UP       BR    1300  0    
2019/11/11  21:06:01  BASE  7.35     299  9.3492   297  -0.9  100   -0.9  117   0     980.8    NA       0.0000   UP       BR    0800  0    
2019/11/11  21:07:01  BASE  7.1736   300  9.3492   297  -0.9  100   -0.9  116   0     980.9    NA       0.0000   UP       BR    1000  0    
2019/11/11  21:08:02  BASE  6.89136  300  9.3492   297  -0.9  100   -0.9  112   0     980.9    NA       0.0000   UP       BR    1200  0    
2019/11/11  21:09:01  BASE  7.37352  299  9.4668   295  -0.9  100   -0.9  105   0     980.9    NA       0.0000   UP       BR    1300  23160
2019/11/11  21:10:01  BASE  7.4088   299  9.4668   295  -0.9  100   -0.9  99    0     980.9    NA       0.0000   UP       BR    0900  0    
2019/11/11  21:11:01  BASE  7.12068  298  9.4668   295  -0.9  100   -0.9  96    0     980.9    NA       0.0000   UP       BR    1300  0    
2019/11/11  21:12:01  BASE  7.04424  300  9.4668   295  -1.0  100   -1.0  92    0     980.9    NA       0.0000   UP       BR    1200  0    
2019/11/11  21:13:01  BASE  7.056    303  9.4668   295  -1.0  100   -1.0  90    0     981.0    NA       0.0000   UP       BR    1300  0    
2019/11/11  21:14:01  BASE  7.06776  304  9.4668   295  -1.0  100   -1.0  94    0     981.0    NA       0.0000   UP       BR    1400  0    
2019/11/11  21:15:01  BASE  6.68556  306  9.4668   295  -1.0  100   -1.0  98    0     981.0    NA       0.0000   UP       BR    1800  0    
2019/11/11  21:16:01  BASE  6.77376  304  9.4668   295  -1.0  100   -1.0  105   0     981.0    NA       0.0000   UP       BR    3000  300  
2019/11/11  21:17:01  BASE  7.19712  298  9.4668   295  -1.0  100   -1.0  109   0     981.0    NA       0.0000   UP       BR    3000  300  
2019/11/11  21:18:01  BASE  8.0556   295  9.86076  288  -1.0  100   -1.0  112   0     981.0    NA       0.0000   UP       BR    3000  330  
2019/11/11  21:19:01  BASE  7.96152  293  9.86076  288  -1.0  100   -1.0  114   0     981.0    NA       0.0000   UP       BR    3000  330  
2019/11/11  21:20:01  BASE  7.27356  296  9.86076  288  -1.0  100   -1.0  117   0     981.0    NA       0.0000   UP       BR    3000  300  
2019/11/11  21:21:01  BASE  6.86196  302  9.86076  288  -1.0  100   -1.0  120   0     981.1    NA       0.0000   UP       BR    3000  260  
2019/11/11  21:22:01  BASE  6.50328  307  9.86076  288  -1.0  100   -1.0  124   0     981.1    NA       0.0000   UP       BR    3000  300  
2019/11/11  21:23:01  BASE  6.75024  307  9.86076  288  -1.0  100   -1.0  130   0     981.1    NA       0.0000   UP       BR    3000  260  
2019/11/11  21:24:00  BASE  6.66204  308  9.86076  288  -1.0  100   -1.0  134   0     981.1    NA       0.0000   UP       BR    3000  260  
2019/11/11  21:25:00  BASE  6.54444  308  9.86076  288  -1.0  100   -1.0  136   0     981.2    NA       0.0000   BR       3000  260   0    
2019/11/11  21:26:01  BASE  6.62088  306  9.86076  288  -1.0  100   -1.0  137   0     981.2    NA       0.0000   BR       3000  300   21260
2019/11/11  21:27:01  BASE  6.92664  306  9.86076  288  -1.0  100   -1.0  133   0     981.2    NA       0.0000   BR       3000  300   0    
2019/11/11  21:28:00  BASE  7.28532  306  8.50248  290  -1.0  100   -1.0  131   0     981.2    NA       0.0000   BR       3000  330   0    
2019/11/11  21:29:01  BASE  7.24416  305  8.3202   299  -1.0  100   -1.0  125   0     981.2    NA       0.0000   BR       3000  330   0    
2019/11/11  21:30:01  BASE  7.39704  304  8.53188  308  -1.0  100   -1.0  119   0     981.2    NA       0.0000   BR       3000  300   0    
2019/11/11  21:31:02  BASE  7.2618   302  8.53188  308  -1.0  100   -1.0  116   0     981.2    NA       0.0000   BR       3000  230   0    
2019/11/11  21:32:00  BASE  6.92076  301  8.53188  308  -1.0  100   -1.0  115   0     981.2    NA       0.0000   BR       3000  0     0    
2019/11/11  21:33:01  BASE  7.10892  303  8.67888  302  -1.0  100   -1.0  114   0     981.3    NA       0.0000   BR       2300  0     0    
2019/11/11  21:34:01  BASE  6.65616  306  8.67888  302  -1.0  100   -1.0  114   0     981.4    NA       0.0000   UP       BR    1100  0    
2019/11/11  21:35:01  BASE  6.01524  308  8.67888  302  -1.0  100   -1.0  113   0     981.4    NA       0.0000   UP       BR    1300  0    
2019/11/11  21:36:01  BASE  6.16224  309  8.67888  302  -1.0  100   -1.0  112   0     981.4    NA       0.0000   -SN      BR    2300  0    
2019/11/11  21:37:01  BASE  6.15636  307  8.67888  302  -1.0  100   -1.0  109   0     981.4    NA       0.0000   -SN      BR    2700  0    
2019/11/11  21:38:01  BASE  6.22104  307  8.67888  302  -1.0  100   -1.0  107   0     981.5    NA       0.0000   -SN      BR    3400  0    
2019/11/11  21:39:00  BASE  6.22692  308  8.67888  302  -1.1  100   -1.1  105   0     981.5    NA       0.0000   -SN      BR    2600  0    
2019/11/11  21:40:01  BASE  6.25044  308  8.67888  302  -1.1  100   -1.1  104   0     981.5    NA       0.0000   -SN      BR    2600  0    
2019/11/11  21:41:01  BASE  6.49152  307  8.67888  302  -1.1  100   -1.1  105   0     981.5    NA       0.0000   -SN      BR    3600  0    
2019/11/11  21:42:01  BASE  6.6444   306  8.67888  302  -1.1  100   -1.1  107   0     981.5    NA       0.0000   -SN      BR    3500  0    
2019/11/11  21:43:01  BASE  6.5856   304  7.53228  302  -1.1  100   -1.1  105   0     981.5    NA       0.0000   -SN      BR    3600  260  
2019/11/11  21:44:00  BASE  6.90312  302  8.77296  290  -1.1  100   -1.1  105   0     981.5    NA       0.0000   -SN      BR    3400  260  
2019/11/11  21:45:01  BASE  7.10892  299  8.77296  290  -1.1  100   -1.1  105   0     981.5    NA       0.0000   -SN      BR    3400  230  
2019/11/11  21:46:01  BASE  6.59148  298  8.77296  290  -1.1  100   -1.1  102   0     981.5    NA       0.0000   -SN      BR    2200  0    
2019/11/11  21:47:01  BASE  6.45624  302  8.77296  290  -1.1  100   -1.1  102   0     981.6    NA       0.0000   -SN      BR    2000  0    
2019/11/11  21:48:01  BASE  6.48564  311  8.77296  290  -1.1  100   -1.1  101   0     981.6    NA       0.0000   -SN      BR    2600  0    
2019/11/11  21:49:01  BASE  6.37392  314  8.77296  290  -1.1  100   -1.1  101   0     981.6    NA       0.0000   -SN      BR    3200  0    
2019/11/11  21:50:01  BASE  6.47388  313  8.77296  290  -1.1  100   -1.1  103   0     981.6    NA       0.0000   -SN      BR    2900  0    
2019/11/11  21:51:01  BASE  6.57972  314  8.77296  290  -1.1  100   -1.1  102   0     981.6    NA       0.0000   -SN      BR    2300  0    
2019/11/11  21:52:01  BASE  6.52092  318  8.77296  290  -1.1  100   -1.1  100   0     981.6    NA       0.0000   -SN      BR    2500  0    
2019/11/11  21:53:01  BASE  6.72672  318  8.77296  290  -1.1  100   -1.1  98    0     981.6    NA       0.0000   -SN      BR    2400  0    
2019/11/11  21:54:01  BASE  7.12068  318  7.71456  319  -1.2  100   -1.2  96    0     981.6    NA       0.0000   -SN      BR    3100  0    
2019/11/11  21:55:02  BASE  7.2618   318  7.71456  319  -1.2  100   -1.2  95    0     981.6    NA       0.0000   -SN      BR    3200  0    
2019/11/11  21:56:01  BASE  6.8502   316  7.71456  319  -1.2  100   -1.2  96    0     981.6    NA       0.0000   -SN      BR    3100  0    
2019/11/11  21:57:01  BASE  6.69144  315  7.71456  319  -1.2  100   -1.2  97    0     981.6    NA       0.0000   -SN      BR    3100  0    
2019/11/11  21:58:01  BASE  6.8208   316  7.83216  313  -1.2  100   -1.2  98    0     981.7    NA       0.0000   -SN      BR    3000  0    
2019/11/11  21:59:01  BASE  6.60324  316  7.83216  313  -1.2  100   -1.2  96    0     981.7    NA       0.0000   -SN      BR    2900  0    
2019/11/11  22:00:01  BASE  6.54444  317  7.83216  313  -1.2  100   -1.2  94    0     981.7    NA       0.0000   -SN      BR    2900  0    
2019/11/11  22:01:01  BASE  6.65616  317  7.83216  313  -1.2  100   -1.2  92    0     981.7    NA       0.0000   -SN      BR    2800  0    
2019/11/11  22:02:01  BASE  6.62676  316  7.83216  313  -1.2  100   -1.2  91    0     981.7    NA       0.0000   -SN      BR    2800  0    
2019/11/11  22:03:01  BASE  6.66792  315  7.83216  313  -1.3  100   -1.3  91    0     981.7    NA       0.0000   -SN      BR    2600  0    
2019/11/11  22:04:00  BASE  6.66204  315  7.83216  313  -1.3  100   -1.3  88    0     981.7    NA       0.0000   -SN      BR    2600  0    
2019/11/11  22:05:00  BASE  6.69144  314  7.83216  313  -1.3  100   -1.3  87    0     981.8    NA       0.0000   -SN      BR    2600  0    
2019/11/11  22:06:01  BASE  6.84432  314  7.92624  314  -1.3  100   -1.3  86    0     981.8    NA       0.0000   -SN      BR    2500  0    
2019/11/11  22:07:01  BASE  7.07364  314  8.3202   311  -1.3  100   -1.3  84    0     981.8    NA       0.0000   -SN      BR    2500  0    
2019/11/11  22:08:00  BASE  6.72084  312  8.3202   311  -1.3  100   -1.3  84    0     981.8    NA       0.0000   -SN      BR    2500  0    
2019/11/11  22:09:01  BASE  6.43272  311  8.3202   311  -1.3  100   -1.3  81    0     981.8    NA       0.0000   -SN      BR    2500  0    
2019/11/11  22:10:01  BASE  6.47976  311  8.3202   311  -1.3  100   -1.3  79    0     981.9    NA       0.0000   -SN      BR    2400  0    
2019/11/11  22:11:01  BASE  6.4092   308  8.3202   311  -1.3  100   -1.3  77    0     981.9    NA       0.0000   -SN      BR    2400  0    
2019/11/11  22:12:01  BASE  6.65028  309  8.3202   311  -1.3  100   -1.3  77    0     981.9    NA       0.0000   -SN      BR    2400  0    
2019/11/11  22:13:01  BASE  6.38568  312  8.3202   311  -1.3  100   -1.3  80    0     982.0    NA       0.0000   -SN      BR    2400  0    
2019/11/11  22:14:01  BASE  6.25044  312  8.3202   311  -1.3  100   -1.3  81    0     982.0    NA       0.0000   -SN      BR    2300  0    
2019/11/11  22:15:01  BASE  6.72672  314  8.3202   311  -1.3  100   -1.3  81    0     982.0    NA       0.0000   -SN      BR    2300  0    
2019/11/11  22:16:01  BASE  6.94428  316  8.3202   311  -1.3  100   -1.3  79    0     982.0    NA       0.0000   -SN      BR    2300  0    
2019/11/11  22:17:01  BASE  7.00308  314  7.92624  313  -1.3  100   -1.3  79    0     982.0    NA       0.0000   -SN      BR    2300  0    
2019/11/11  22:18:01  BASE  7.02072  313  7.92624  313  -1.4  100   -1.4  78    0     982.1    NA       0.0000   -SN      BR    2200  0    
2019/11/11  22:19:01  BASE  7.13832  313  7.92624  313  -1.4  100   -1.4  77    0     982.1    NA       0.0000   -SN      BR    2200  230  
2019/11/11  22:20:01  BASE  7.06188  312  7.92624  313  -1.4  100   -1.4  75    0     982.1    NA       0.0000   -SN      BR    2200  260  
2019/11/11  22:21:01  BASE  6.75612  312  7.92624  313  -1.4  100   -1.4  75    0     982.2    NA       0.0000   -SN      BR    2200  230  
2019/11/11  22:22:01  BASE  6.73848  314  7.92624  313  -1.4  100   -1.4  75    0     982.2    NA       0.0000   -SN      BR    2200  0    
2019/11/11  22:23:01  BASE  6.82668  315  7.92624  313  -1.4  100   -1.4  78    0     982.2    NA       0.0000   BR       2200  0     0    
2019/11/11  22:24:01  BASE  6.72672  315  7.92624  313  -1.4  100   -1.4  79    0     982.2    NA       0.0000   BR       2100  0     0    
2019/11/11  22:25:01  BASE  6.26808  314  7.92624  313  -1.4  100   -1.4  81    0     982.3    NA       0.0000   BR       2100  0     0    
2019/11/11  22:26:01  BASE  6.12696  317  7.86744  311  -1.4  100   -1.4  81    0     982.3    NA       0.0000   BR       2100  0     0    
2019/11/11  22:27:01  BASE  6.22692  319  7.56168  313  -1.4  100   -1.4  81    0     982.3    NA       0.0000   BR       2100  0     0    
2019/11/11  22:28:01  BASE  6.00348  321  7.56168  313  -1.4  100   -1.4  82    0     982.3    NA       0.0000   BR       2100  0     0    
2019/11/11  22:29:01  BASE  5.89176  321  7.4088   320  -1.4  100   -1.4  81    0     982.3    NA       0.0000   BR       2100  0     0    
2019/11/11  22:30:01  BASE  6.00936  317  7.4088   320  -1.4  100   -1.4  81    0     982.3    NA       0.0000   BR       2100  0     0    
2019/11/11  22:31:02  BASE  6.03876  313  7.4088   320  -1.4  100   -1.4  79    0     982.3    NA       0.0000   BR       2000  0     0    
2019/11/11  22:32:01  BASE  6.29748  312  7.2618   309  -1.4  100   -1.4  78    0     982.3    NA       0.0000   BR       2000  0     0    
2019/11/11  22:33:02  BASE  6.50916  313  7.2618   313  -1.4  100   -1.4  76    0     982.3    NA       0.0000   BR       2000  230   0    
2019/11/11  22:34:02  BASE  6.36804  314  7.2618   306  -1.4  100   -1.4  74    0     982.4    NA       0.0000   BR       2000  260   0    
2019/11/11  22:35:02  BASE  6.33276  315  7.2618   306  -1.4  100   -1.4  73    0     982.4    NA       0.0000   -SN      BR    2100  0    
2019/11/11  22:36:03  BASE  6.37392  315  7.2618   306  -1.4  100   -1.4  70    0     982.4    NA       0.0000   -SN      BR    2700  0    
2019/11/11  22:37:03  BASE  6.43272  313  7.2618   306  -1.5  100   -1.5  69    0     982.4    NA       0.0000   -SN      BR    2800  0    
2019/11/11  22:38:02  BASE  6.40332  314  7.2618   306  -1.5  100   -1.5  68    0     982.4    NA       0.0000   -SN      BR    2900  0    
2019/11/11  22:39:28  BASE  6.5856   317  7.2618   306  -1.5  100   -1.5  66    0     982.4    NA       0.0000   -SN      BR    3300  0    
2019/11/11  22:40:01  BASE  6.40332  313  7.2618   306  -1.5  100   -1.5  65    0     982.6    NA       0.0000   -SN      BR    2700  0    
2019/11/11  22:41:04  BASE  6.03288  308  7.2618   306  -1.5  100   -1.5  63    0     982.6    NA       0.0000   -SN      BR    2400  0    
2019/11/11  22:42:03  BASE  6.07992  308  7.2618   306  -1.5  100   -1.5  60    0     982.6    NA       0.0000   -SN      BR    3400  260  
2019/11/11  22:43:01  BASE  6.19164  310  7.2618   306  -1.5  100   -1.5  57    0     982.6    NA       0.0000   -SN      BR    3600  260  
2019/11/11  22:44:01  BASE  6.30924  311  7.13832  319  -1.5  100   -1.5  56    0     982.6    NA       0.0000   -SN      BR    4000  300  
2019/11/11  22:45:01  BASE  6.19164  310  7.13832  319  -1.5  100   -1.5  55    0     982.6    NA       0.0000   -SN      BR    4000  300  
2019/11/11  22:46:01  BASE  5.91528  312  7.13832  319  -1.5  100   -1.5  54    0     982.6    NA       0.0000   -SN      BR    4000  330  
2019/11/11  22:47:01  BASE  5.8212   317  7.13832  319  -1.5  100   -1.5  56    0     982.7    NA       0.0000   -SN      BR    3900  330  
2019/11/11  22:48:00  BASE  5.8212   318  7.05012  313  -1.5  100   -1.5  59    0     982.7    NA       0.0000   -SN      BR    3900  330  
2019/11/11  22:49:00  BASE  5.90352  316  7.05012  313  -1.5  100   -1.5  62    0     982.7    NA       0.0000   -SN      BR    3900  300  
2019/11/11  22:50:00  BASE  6.12108  314  7.05012  313  -1.5  100   -1.5  65    0     982.7    NA       0.0000   -SN      BR    3900  330  
2019/11/11  22:51:00  BASE  6.22692  312  7.07952  304  -1.5  100   -1.5  68    0     982.7    NA       0.0000   -SN      BR    3800  330  
2019/11/11  22:52:00  BASE  6.2034   312  7.4088   312  -1.5  100   -1.5  70    0     982.8    NA       0.0000   -SN      BR    3800  330  
2019/11/11  22:53:01  BASE  6.321    311  7.4088   312  -1.5  100   -1.5  73    0     982.8    NA       0.0000   BR       3800  360   0    
2019/11/11  22:54:01  BASE  6.5856   309  7.71456  310  -1.5  100   -1.5  75    0     982.8    NA       0.0000   BR       3800  300   890  
2019/11/11  22:55:01  BASE  6.69732  307  7.71456  310  -1.5  100   -1.5  75    0     982.8    NA       0.0000   BR       3800  300   0    
2019/11/11  22:56:01  BASE  6.7914   305  7.71456  310  -1.5  100   -1.5  74    0     982.8    NA       0.0000   BR       3700  0     0    
2019/11/11  22:57:01  BASE  6.76788  306  7.71456  310  -1.5  100   -1.5  73    0     982.9    NA       0.0000   BR       3300  0     0    
2019/11/11  22:58:01  BASE  6.53268  308  7.71456  310  -1.5  100   -1.5  72    0     982.9    NA       0.0000   -SN      BR    2300  0    
2019/11/11  22:59:01  BASE  6.43272  309  7.71456  310  -1.5  100   -1.5  70    0     982.9    NA       0.0000   -SN      BR    2300  0    
2019/11/11  23:00:01  BASE  6.84432  311  8.22612  312  -1.5  100   -1.5  69    0     982.9    NA       0.0000   -SN      BR    2300  0    
2019/11/11  23:01:00  BASE  7.28532  311  8.22612  312  -1.5  100   -1.5  67    0     982.9    NA       0.0000   -SN      BR    2600  0    
2019/11/11  23:02:01  BASE  6.7914   309  8.22612  312  -1.5  100   -1.5  66    0     982.9    NA       0.0000   -SN      BR    2800  0    
2019/11/11  23:03:01  BASE  6.38568  307  8.3202   299  -1.5  100   -1.5  66    0     982.9    NA       0.0000   -SN      BR    2500  260  
2019/11/11  23:04:00  BASE  6.22692  305  8.3202   299  -1.5  100   -1.5  65    0     982.9    NA       0.0000   -SN      BR    2200  260  
2019/11/11  23:05:01  BASE  5.83884  306  8.3202   299  -1.5  100   -1.5  62    0     982.9    NA       0.0000   -SN      BR    2900  260  
2019/11/11  23:06:01  BASE  5.97408  309  8.3202   299  -1.5  100   -1.5  59    0     982.9    NA       0.0000   -SN      BR    3200  300  
2019/11/11  23:07:01  BASE  6.468    307  8.3202   299  -1.5  100   -1.5  56    0     982.9    NA       0.0000   -SN      BR    3400  260  
2019/11/11  23:08:01  BASE  6.63852  305  8.3202   299  -1.5  100   -1.5  54    0     982.9    NA       0.0000   -SN      BR    2900  260  
2019/11/11  23:09:01  BASE  6.4386   308  8.3202   299  -1.6  100   -1.6  52    0     983.1    NA       0.0000   -SN      BR    2900  260  
2019/11/11  23:10:01  BASE  5.95644  311  8.3202   299  -1.6  100   -1.6  52    0     983.1    NA       0.0000   -SN      BR    2700  230  
2019/11/11  23:11:01  BASE  5.76828  311  8.3202   299  -1.6  100   -1.6  52    0     983.1    NA       0.0000   -SN      BR    2500  0    
2019/11/11  23:12:01  BASE  6.22692  310  8.3202   299  -1.6  100   -1.6  51    0     983.1    NA       0.0000   -SN      BR    3000  260  
2019/11/11  23:13:01  BASE  6.23868  310  7.2618   305  -1.6  100   -1.6  49    0     983.1    NA       0.0000   -SN      BR    3500  300  
2019/11/11  23:14:01  BASE  5.98584  308  7.2618   305  -1.6  100   -1.6  47    0     983.1    NA       0.0000   -SN      BR    3400  300  
2019/11/11  23:15:01  BASE  6.10344  306  7.2618   305  -1.6  100   -1.6  46    0     983.1    NA       0.0000   -SN      BR    3400  300  
2019/11/11  23:16:00  BASE  6.09168  306  7.2618   305  -1.6  100   -1.6  45    0     983.1    NA       0.0000   -SN      BR    3400  300  
2019/11/11  23:17:01  BASE  6.21516  306  7.2618   305  -1.6  100   -1.6  45    0     983.2    NA       0.0000   -SN      BR    3400  330  
2019/11/11  23:18:01  BASE  6.26808  307  7.16772  311  -1.6  100   -1.6  45    0     983.2    NA       0.0000   -SN      BR    4000  330  
2019/11/11  23:19:00  BASE  6.027    308  7.16772  311  -1.6  100   -1.6  44    0     983.2    NA       0.0000   -SN      BR    4000  360  
2019/11/11  23:20:01  BASE  5.9388   308  7.16772  311  -1.6  100   -1.6  44    0     983.2    NA       0.0000   -SN      BR    4000  360  
2019/11/11  23:21:01  BASE  5.68008  309  7.16772  311  -1.6  100   -1.6  43    0     983.2    NA       0.0000   -SN      BR    4000  360  
2019/11/11  23:22:00  BASE  5.88     310  7.2618   315  -1.6  100   -1.6  43    0     983.1    NA       0.0000   -SN      BR    3900  360  
2019/11/11  23:23:01  BASE  5.92704  309  7.2618   315  -1.6  100   -1.6  42    0     983.2    NA       0.0000   -SN      BR    3900  330  
2019/11/11  23:24:00  BASE  5.56836  309  7.2618   315  -1.6  100   -1.6  41    0     983.3    NA       0.0000   -SN      BR    3900  330  
2019/11/11  23:25:01  BASE  5.60952  309  7.2618   315  -1.6  100   -1.6  39    0     983.3    NA       0.0000   -SN      BR    3900  360  
2019/11/11  23:26:01  BASE  5.18616  306  7.2618   315  -1.6  100   -1.6  37    0     983.3    NA       0.0000   -SN      BR    3900  390  
2019/11/11  23:27:01  BASE  5.1744   306  7.2618   315  -1.6  100   -1.6  36    0     983.3    NA       0.0000   BR       3800  390   0    
2019/11/11  23:28:01  BASE  5.586    305  7.2618   315  -1.6  100   -1.6  35    0     983.3    NA       0.0000   BR       3800  430   0    
2019/11/11  23:29:01  BASE  5.32728  303  7.2618   315  -1.7  100   -1.7  34    0     983.3    NA       0.0000   BR       3800  460   0    
2019/11/11  23:30:00  BASE  5.20968  302  7.2618   315  -1.7  100   -1.7  34    0     983.3    NA       0.0000   BR       3800  460   0    
2019/11/11  23:31:02  BASE  5.51544  302  7.2618   315  -1.7  100   -1.7  33    0     983.3    NA       0.0000   BR       3800  430   0    
2019/11/11  23:32:01  BASE  5.62128  303  6.41508  319  -1.7  100   -1.7  32    0     983.3    NA       0.0000   BR       3700  390   0    
2019/11/11  23:33:01  BASE  5.439    305  6.41508  319  -1.7  100   -1.7  30    0     983.4    NA       0.0000   BR       3700  390   0    
2019/11/11  23:34:00  BASE  5.3508   307  6.3798   301  -1.7  100   -1.7  29    0     983.4    NA       0.0000   BR       3700  390   0    
2019/11/11  23:35:00  BASE  5.59188  306  6.3798   301  -1.7  100   -1.7  28    0     983.4    NA       0.0000   BR       3700  390   0    
2019/11/11  23:36:01  BASE  5.8506   304  6.56208  302  -1.7  100   -1.7  27    0     983.4    NA       0.0000   BR       3700  390   0    
2019/11/11  23:37:01  BASE  5.78592  305  6.56208  302  -1.7  100   -1.7  28    0     983.4    NA       0.0000   BR       3700  390   0    
2019/11/11  23:38:01  BASE  5.59776  307  6.56208  302  -1.7  100   -1.7  28    0     983.4    NA       0.0000   BR       3700  390   0    
2019/11/11  23:39:01  BASE  5.733    304  6.65616  294  -1.7  100   -1.7  28    0     983.4    NA       0.0000   BR       3600  360   0    
2019/11/11  23:40:01  BASE  5.69772  304  6.65616  294  -1.7  100   -1.7  29    0     983.4    NA       0.0000   BR       3600  360   0    
2019/11/11  23:41:01  BASE  5.54484  306  6.65616  294  -1.7  100   -1.7  30    0     983.5    NA       0.0000   BR       3600  360   0    
2019/11/11  23:42:01  BASE  5.63892  303  6.65616  294  -1.7  100   -1.7  31    0     983.5    NA       0.0000   BR       3600  360   0    
2019/11/11  23:43:01  BASE  5.6742   302  6.65616  294  -1.7  100   -1.7  31    0     983.5    NA       0.0000   BR       3600  360   1120 
2019/11/11  23:44:01  BASE  5.89176  305  6.86784  308  -1.7  100   -1.7  30    0     983.5    NA       0.0000   BR       3600  360   0    
2019/11/11  23:45:01  BASE  6.00348  307  6.86784  308  -1.7  100   -1.7  29    0     983.5    NA       0.0000   BR       3600  360   0    
2019/11/11  23:46:01  BASE  5.75064  308  6.86784  308  -1.7  100   -1.7  29    0     983.5    NA       0.0000   BR       3600  360   0    
2019/11/11  23:47:01  BASE  5.69184  306  6.86784  308  -1.7  100   -1.7  29    0     983.5    NA       0.0000   BR       3600  360   0    
2019/11/11  23:48:01  BASE  5.78004  306  6.86784  308  -1.7  100   -1.7  29    0     983.5    NA       0.0000   BR       3600  330   0    
2019/11/11  23:49:01  BASE  5.71536  308  6.86784  308  -1.7  100   -1.7  29    0     983.5    NA       0.0000   BR       3600  330   0    
2019/11/11  23:50:00  BASE  6.05052  306  6.86784  308  -1.7  100   -1.7  28    0     983.5    NA       0.0000   -SN      BR    3600  360  
2019/11/11  23:51:00  BASE  6.10932  307  6.86784  308  -1.7  100   -1.7  28    0     983.5    NA       0.0000   -SN      BR    3600  360  
2019/11/11  23:52:01  BASE  5.733    310  6.86784  308  -1.7  100   -1.7  28    0     983.5    NA       0.0000   -SN      BR    3600  360  
2019/11/11  23:53:00  BASE  5.70948  310  6.86784  308  -1.8  100   -1.8  28    0     983.5    NA       0.0000   -SN      BR    3600  360  
2019/11/11  23:54:00  BASE  5.8506   309  6.77376  310  -1.8  100   -1.8  28    0     983.5    NA       0.0000   -SN      BR    3500  360  
2019/11/11  23:55:01  BASE  6.15048  308  7.59108  304  -1.8  100   -1.8  29    0     983.5    NA       0.0000   -SN      BR    3500  360  
2019/11/11  23:56:00  BASE  5.97996  307  7.59108  304  -1.8  100   -1.8  29    0     983.5    NA       0.0000   -SN      BR    3500  330  
2019/11/11  23:57:01  BASE  5.5566   307  7.59108  304  -1.8  100   -1.8  29    0     983.6    NA       0.0000   -SN      BR    3500  330  
2019/11/11  23:58:01  BASE  5.73888  308  7.59108  304  -1.8  100   -1.8  29    0     983.6    NA       0.0000   -SN      BR    3500  360  
2019/11/11  23:59:01  BASE  5.78592  308  7.59108  304  -1.8  100   -1.8  28    0     983.6    NA       0.0000   -SN      BR    3500  360